<?xml version="1.0" encoding="utf-8"?>
<gpx xmlns:xsi="http://www.w3.org/2001/XMLSchema-instance" xmlns:xsd="http://www.w3.org/2001/XMLSchema" version="1.1" creator="Shapelink.com" xmlns="http://www.topografix.com/GPX/1/1" xmlns:gpxtpx="http://www.garmin.com/xmlschemas/TrackPointExtension/v1">
  <metadata>
    <name>Ejecutar 5.35 km, 2019-11-29</name>
    <desc></desc>
    <author><name>Peter Littke</name></author> 
    <time>2019-11-29T06:29:30Z</time>
  </metadata>
  <trk>
    <name>Ejecutar 5.35 km, 2019-11-29</name>
    <trkseg>
      <trkpt lat="59.299167" lon="18.081379">
        <ele>48</ele>
        <time>2019-11-29T06:29:30Z</time>
      </trkpt>
      <trkpt lat="59.29916" lon="18.081428">
        <ele>0</ele>
        <time>2019-11-29T06:29:31Z</time>
      </trkpt>
      <trkpt lat="59.299152" lon="18.08147">
        <ele>49</ele>
        <time>2019-11-29T06:29:32Z</time>
      </trkpt>
      <trkpt lat="59.29913" lon="18.08151">
        <ele>49</ele>
        <time>2019-11-29T06:29:34Z</time>
      </trkpt>
      <trkpt lat="59.299115" lon="18.081542">
        <ele>49</ele>
        <time>2019-11-29T06:29:36Z</time>
      </trkpt>
      <trkpt lat="59.299104" lon="18.081575">
        <ele>49</ele>
        <time>2019-11-29T06:29:39Z</time>
      </trkpt>
      <trkpt lat="59.299108" lon="18.081644">
        <ele>50</ele>
        <time>2019-11-29T06:29:40Z</time>
      </trkpt>
      <trkpt lat="59.299113" lon="18.0817">
        <ele>50</ele>
        <time>2019-11-29T06:29:42Z</time>
      </trkpt>
      <trkpt lat="59.299121" lon="18.081763">
        <ele>50</ele>
        <time>2019-11-29T06:29:42Z</time>
      </trkpt>
      <trkpt lat="59.29913" lon="18.081824">
        <ele>50</ele>
        <time>2019-11-29T06:29:43Z</time>
      </trkpt>
      <trkpt lat="59.299141" lon="18.081881">
        <ele>50</ele>
        <time>2019-11-29T06:29:45Z</time>
      </trkpt>
      <trkpt lat="59.299153" lon="18.081938">
        <ele>50</ele>
        <time>2019-11-29T06:29:45Z</time>
      </trkpt>
      <trkpt lat="59.29916" lon="18.082005">
        <ele>50</ele>
        <time>2019-11-29T06:29:46Z</time>
      </trkpt>
      <trkpt lat="59.299165" lon="18.082069">
        <ele>50</ele>
        <time>2019-11-29T06:29:47Z</time>
      </trkpt>
      <trkpt lat="59.299162" lon="18.08213">
        <ele>50</ele>
        <time>2019-11-29T06:29:49Z</time>
      </trkpt>
      <trkpt lat="59.299151" lon="18.082189">
        <ele>49</ele>
        <time>2019-11-29T06:29:49Z</time>
      </trkpt>
      <trkpt lat="59.299137" lon="18.082236">
        <ele>49</ele>
        <time>2019-11-29T06:29:51Z</time>
      </trkpt>
      <trkpt lat="59.299114" lon="18.082278">
        <ele>49</ele>
        <time>2019-11-29T06:29:51Z</time>
      </trkpt>
      <trkpt lat="59.299088" lon="18.082315">
        <ele>49</ele>
        <time>2019-11-29T06:29:52Z</time>
      </trkpt>
      <trkpt lat="59.299061" lon="18.082339">
        <ele>49</ele>
        <time>2019-11-29T06:29:54Z</time>
      </trkpt>
      <trkpt lat="59.299033" lon="18.082372">
        <ele>49</ele>
        <time>2019-11-29T06:29:54Z</time>
      </trkpt>
      <trkpt lat="59.299004" lon="18.0824">
        <ele>49</ele>
        <time>2019-11-29T06:29:55Z</time>
      </trkpt>
      <trkpt lat="59.298976" lon="18.082425">
        <ele>49</ele>
        <time>2019-11-29T06:29:57Z</time>
      </trkpt>
      <trkpt lat="59.298949" lon="18.082448">
        <ele>49</ele>
        <time>2019-11-29T06:29:57Z</time>
      </trkpt>
      <trkpt lat="59.298922" lon="18.082473">
        <ele>49</ele>
        <time>2019-11-29T06:29:58Z</time>
      </trkpt>
      <trkpt lat="59.298894" lon="18.082496">
        <ele>49</ele>
        <time>2019-11-29T06:29:59Z</time>
      </trkpt>
      <trkpt lat="59.298866" lon="18.08252">
        <ele>49</ele>
        <time>2019-11-29T06:30:00Z</time>
      </trkpt>
      <trkpt lat="59.298836" lon="18.082546">
        <ele>50</ele>
        <time>2019-11-29T06:30:01Z</time>
      </trkpt>
      <trkpt lat="59.298808" lon="18.082567">
        <ele>50</ele>
        <time>2019-11-29T06:30:02Z</time>
      </trkpt>
      <trkpt lat="59.298781" lon="18.082583">
        <ele>50</ele>
        <time>2019-11-29T06:30:04Z</time>
      </trkpt>
      <trkpt lat="59.29876" lon="18.082581">
        <ele>50</ele>
        <time>2019-11-29T06:30:04Z</time>
      </trkpt>
      <trkpt lat="59.298746" lon="18.082551">
        <ele>50</ele>
        <time>2019-11-29T06:30:06Z</time>
      </trkpt>
      <trkpt lat="59.298758" lon="18.082495">
        <ele>50</ele>
        <time>2019-11-29T06:30:08Z</time>
      </trkpt>
      <trkpt lat="59.29879" lon="18.08247">
        <ele>50</ele>
        <time>2019-11-29T06:30:10Z</time>
      </trkpt>
      <trkpt lat="59.298814" lon="18.082455">
        <ele>50</ele>
        <time>2019-11-29T06:30:10Z</time>
      </trkpt>
      <trkpt lat="59.298841" lon="18.082437">
        <ele>50</ele>
        <time>2019-11-29T06:30:11Z</time>
      </trkpt>
      <trkpt lat="59.298868" lon="18.08242">
        <ele>51</ele>
        <time>2019-11-29T06:30:13Z</time>
      </trkpt>
      <trkpt lat="59.298896" lon="18.082402">
        <ele>51</ele>
        <time>2019-11-29T06:30:13Z</time>
      </trkpt>
      <trkpt lat="59.298923" lon="18.082384">
        <ele>51</ele>
        <time>2019-11-29T06:30:14Z</time>
      </trkpt>
      <trkpt lat="59.29895" lon="18.082368">
        <ele>51</ele>
        <time>2019-11-29T06:30:15Z</time>
      </trkpt>
      <trkpt lat="59.298974" lon="18.08235">
        <ele>51</ele>
        <time>2019-11-29T06:30:16Z</time>
      </trkpt>
      <trkpt lat="59.298997" lon="18.082334">
        <ele>51</ele>
        <time>2019-11-29T06:30:18Z</time>
      </trkpt>
      <trkpt lat="59.299023" lon="18.08232">
        <ele>51</ele>
        <time>2019-11-29T06:30:18Z</time>
      </trkpt>
      <trkpt lat="59.299045" lon="18.082311">
        <ele>51</ele>
        <time>2019-11-29T06:30:19Z</time>
      </trkpt>
      <trkpt lat="59.299065" lon="18.082304">
        <ele>51</ele>
        <time>2019-11-29T06:30:21Z</time>
      </trkpt>
      <trkpt lat="59.299089" lon="18.082307">
        <ele>51</ele>
        <time>2019-11-29T06:30:21Z</time>
      </trkpt>
      <trkpt lat="59.299117" lon="18.08231">
        <ele>51</ele>
        <time>2019-11-29T06:30:22Z</time>
      </trkpt>
      <trkpt lat="59.299223" lon="18.082316">
        <ele>50</ele>
        <time>2019-11-29T06:30:25Z</time>
      </trkpt>
      <trkpt lat="59.299326" lon="18.08234">
        <ele>50</ele>
        <time>2019-11-29T06:30:28Z</time>
      </trkpt>
      <trkpt lat="59.299359" lon="18.082325">
        <ele>50</ele>
        <time>2019-11-29T06:30:29Z</time>
      </trkpt>
      <trkpt lat="59.299385" lon="18.0823">
        <ele>50</ele>
        <time>2019-11-29T06:30:31Z</time>
      </trkpt>
      <trkpt lat="59.299414" lon="18.082276">
        <ele>50</ele>
        <time>2019-11-29T06:30:31Z</time>
      </trkpt>
      <trkpt lat="59.299442" lon="18.082252">
        <ele>50</ele>
        <time>2019-11-29T06:30:32Z</time>
      </trkpt>
      <trkpt lat="59.299463" lon="18.082225">
        <ele>50</ele>
        <time>2019-11-29T06:30:33Z</time>
      </trkpt>
      <trkpt lat="59.299487" lon="18.082197">
        <ele>50</ele>
        <time>2019-11-29T06:30:34Z</time>
      </trkpt>
      <trkpt lat="59.299509" lon="18.082167">
        <ele>50</ele>
        <time>2019-11-29T06:30:36Z</time>
      </trkpt>
      <trkpt lat="59.299528" lon="18.082128">
        <ele>50</ele>
        <time>2019-11-29T06:30:36Z</time>
      </trkpt>
      <trkpt lat="59.29955" lon="18.082096">
        <ele>50</ele>
        <time>2019-11-29T06:30:37Z</time>
      </trkpt>
      <trkpt lat="59.299575" lon="18.082067">
        <ele>50</ele>
        <time>2019-11-29T06:30:39Z</time>
      </trkpt>
      <trkpt lat="59.2996" lon="18.082039">
        <ele>51</ele>
        <time>2019-11-29T06:30:39Z</time>
      </trkpt>
      <trkpt lat="59.299625" lon="18.082022">
        <ele>51</ele>
        <time>2019-11-29T06:30:40Z</time>
      </trkpt>
      <trkpt lat="59.299656" lon="18.082011">
        <ele>51</ele>
        <time>2019-11-29T06:30:42Z</time>
      </trkpt>
      <trkpt lat="59.299685" lon="18.081994">
        <ele>51</ele>
        <time>2019-11-29T06:30:42Z</time>
      </trkpt>
      <trkpt lat="59.299716" lon="18.081977">
        <ele>51</ele>
        <time>2019-11-29T06:30:44Z</time>
      </trkpt>
      <trkpt lat="59.299742" lon="18.081959">
        <ele>51</ele>
        <time>2019-11-29T06:30:45Z</time>
      </trkpt>
      <trkpt lat="59.299771" lon="18.081936">
        <ele>51</ele>
        <time>2019-11-29T06:30:46Z</time>
      </trkpt>
      <trkpt lat="59.299797" lon="18.081915">
        <ele>51</ele>
        <time>2019-11-29T06:30:46Z</time>
      </trkpt>
      <trkpt lat="59.299827" lon="18.081896">
        <ele>51</ele>
        <time>2019-11-29T06:30:48Z</time>
      </trkpt>
      <trkpt lat="59.299854" lon="18.081878">
        <ele>51</ele>
        <time>2019-11-29T06:30:48Z</time>
      </trkpt>
      <trkpt lat="59.299881" lon="18.081868">
        <ele>51</ele>
        <time>2019-11-29T06:30:49Z</time>
      </trkpt>
      <trkpt lat="59.299908" lon="18.081854">
        <ele>51</ele>
        <time>2019-11-29T06:30:51Z</time>
      </trkpt>
      <trkpt lat="59.299935" lon="18.081829">
        <ele>51</ele>
        <time>2019-11-29T06:30:51Z</time>
      </trkpt>
      <trkpt lat="59.299963" lon="18.081811">
        <ele>51</ele>
        <time>2019-11-29T06:30:53Z</time>
      </trkpt>
      <trkpt lat="59.299989" lon="18.08179">
        <ele>51</ele>
        <time>2019-11-29T06:30:53Z</time>
      </trkpt>
      <trkpt lat="59.300015" lon="18.081772">
        <ele>52</ele>
        <time>2019-11-29T06:30:54Z</time>
      </trkpt>
      <trkpt lat="59.300045" lon="18.081754">
        <ele>52</ele>
        <time>2019-11-29T06:30:56Z</time>
      </trkpt>
      <trkpt lat="59.300076" lon="18.081747">
        <ele>52</ele>
        <time>2019-11-29T06:30:56Z</time>
      </trkpt>
      <trkpt lat="59.300106" lon="18.08174">
        <ele>52</ele>
        <time>2019-11-29T06:30:57Z</time>
      </trkpt>
      <trkpt lat="59.300133" lon="18.081721">
        <ele>52</ele>
        <time>2019-11-29T06:30:59Z</time>
      </trkpt>
      <trkpt lat="59.300159" lon="18.081703">
        <ele>52</ele>
        <time>2019-11-29T06:30:59Z</time>
      </trkpt>
      <trkpt lat="59.300185" lon="18.081685">
        <ele>52</ele>
        <time>2019-11-29T06:31:00Z</time>
      </trkpt>
      <trkpt lat="59.300211" lon="18.081671">
        <ele>52</ele>
        <time>2019-11-29T06:31:02Z</time>
      </trkpt>
      <trkpt lat="59.300239" lon="18.081652">
        <ele>51</ele>
        <time>2019-11-29T06:31:02Z</time>
      </trkpt>
      <trkpt lat="59.300266" lon="18.081634">
        <ele>51</ele>
        <time>2019-11-29T06:31:03Z</time>
      </trkpt>
      <trkpt lat="59.300293" lon="18.081621">
        <ele>51</ele>
        <time>2019-11-29T06:31:05Z</time>
      </trkpt>
      <trkpt lat="59.300321" lon="18.081602">
        <ele>51</ele>
        <time>2019-11-29T06:31:05Z</time>
      </trkpt>
      <trkpt lat="59.300347" lon="18.081584">
        <ele>51</ele>
        <time>2019-11-29T06:31:07Z</time>
      </trkpt>
      <trkpt lat="59.300372" lon="18.081563">
        <ele>51</ele>
        <time>2019-11-29T06:31:07Z</time>
      </trkpt>
      <trkpt lat="59.300399" lon="18.081548">
        <ele>52</ele>
        <time>2019-11-29T06:31:08Z</time>
      </trkpt>
      <trkpt lat="59.300428" lon="18.081534">
        <ele>52</ele>
        <time>2019-11-29T06:31:10Z</time>
      </trkpt>
      <trkpt lat="59.300456" lon="18.081515">
        <ele>51</ele>
        <time>2019-11-29T06:31:10Z</time>
      </trkpt>
      <trkpt lat="59.300486" lon="18.081495">
        <ele>51</ele>
        <time>2019-11-29T06:31:11Z</time>
      </trkpt>
      <trkpt lat="59.300514" lon="18.081478">
        <ele>51</ele>
        <time>2019-11-29T06:31:13Z</time>
      </trkpt>
      <trkpt lat="59.300544" lon="18.081459">
        <ele>51</ele>
        <time>2019-11-29T06:31:13Z</time>
      </trkpt>
      <trkpt lat="59.300573" lon="18.081439">
        <ele>51</ele>
        <time>2019-11-29T06:31:14Z</time>
      </trkpt>
      <trkpt lat="59.300604" lon="18.081423">
        <ele>51</ele>
        <time>2019-11-29T06:31:15Z</time>
      </trkpt>
      <trkpt lat="59.300632" lon="18.081407">
        <ele>51</ele>
        <time>2019-11-29T06:31:16Z</time>
      </trkpt>
      <trkpt lat="59.300659" lon="18.081385">
        <ele>51</ele>
        <time>2019-11-29T06:31:18Z</time>
      </trkpt>
      <trkpt lat="59.300687" lon="18.081362">
        <ele>51</ele>
        <time>2019-11-29T06:31:19Z</time>
      </trkpt>
      <trkpt lat="59.300711" lon="18.081335">
        <ele>50</ele>
        <time>2019-11-29T06:31:19Z</time>
      </trkpt>
      <trkpt lat="59.300732" lon="18.081296">
        <ele>50</ele>
        <time>2019-11-29T06:31:20Z</time>
      </trkpt>
      <trkpt lat="59.30075" lon="18.081256">
        <ele>50</ele>
        <time>2019-11-29T06:31:22Z</time>
      </trkpt>
      <trkpt lat="59.300773" lon="18.081223">
        <ele>50</ele>
        <time>2019-11-29T06:31:22Z</time>
      </trkpt>
      <trkpt lat="59.300799" lon="18.081203">
        <ele>50</ele>
        <time>2019-11-29T06:31:24Z</time>
      </trkpt>
      <trkpt lat="59.300827" lon="18.081187">
        <ele>50</ele>
        <time>2019-11-29T06:31:24Z</time>
      </trkpt>
      <trkpt lat="59.300854" lon="18.081172">
        <ele>50</ele>
        <time>2019-11-29T06:31:26Z</time>
      </trkpt>
      <trkpt lat="59.300888" lon="18.081156">
        <ele>49</ele>
        <time>2019-11-29T06:31:26Z</time>
      </trkpt>
      <trkpt lat="59.300921" lon="18.081144">
        <ele>49</ele>
        <time>2019-11-29T06:31:27Z</time>
      </trkpt>
      <trkpt lat="59.300954" lon="18.081127">
        <ele>49</ele>
        <time>2019-11-29T06:31:28Z</time>
      </trkpt>
      <trkpt lat="59.300983" lon="18.081109">
        <ele>49</ele>
        <time>2019-11-29T06:31:29Z</time>
      </trkpt>
      <trkpt lat="59.301009" lon="18.081085">
        <ele>48</ele>
        <time>2019-11-29T06:31:30Z</time>
      </trkpt>
      <trkpt lat="59.301039" lon="18.081061">
        <ele>48</ele>
        <time>2019-11-29T06:31:31Z</time>
      </trkpt>
      <trkpt lat="59.301069" lon="18.08104">
        <ele>48</ele>
        <time>2019-11-29T06:31:32Z</time>
      </trkpt>
      <trkpt lat="59.301096" lon="18.081014">
        <ele>48</ele>
        <time>2019-11-29T06:31:34Z</time>
      </trkpt>
      <trkpt lat="59.301125" lon="18.080989">
        <ele>48</ele>
        <time>2019-11-29T06:31:35Z</time>
      </trkpt>
      <trkpt lat="59.301153" lon="18.080966">
        <ele>47</ele>
        <time>2019-11-29T06:31:35Z</time>
      </trkpt>
      <trkpt lat="59.301177" lon="18.08094">
        <ele>47</ele>
        <time>2019-11-29T06:31:36Z</time>
      </trkpt>
      <trkpt lat="59.301206" lon="18.080916">
        <ele>47</ele>
        <time>2019-11-29T06:31:38Z</time>
      </trkpt>
      <trkpt lat="59.301231" lon="18.080886">
        <ele>47</ele>
        <time>2019-11-29T06:31:38Z</time>
      </trkpt>
      <trkpt lat="59.301259" lon="18.080859">
        <ele>47</ele>
        <time>2019-11-29T06:31:39Z</time>
      </trkpt>
      <trkpt lat="59.301284" lon="18.080831">
        <ele>47</ele>
        <time>2019-11-29T06:31:40Z</time>
      </trkpt>
      <trkpt lat="59.301309" lon="18.080806">
        <ele>46</ele>
        <time>2019-11-29T06:31:41Z</time>
      </trkpt>
      <trkpt lat="59.301333" lon="18.080779">
        <ele>46</ele>
        <time>2019-11-29T06:31:43Z</time>
      </trkpt>
      <trkpt lat="59.301362" lon="18.08076">
        <ele>46</ele>
        <time>2019-11-29T06:31:43Z</time>
      </trkpt>
      <trkpt lat="59.30139" lon="18.080738">
        <ele>46</ele>
        <time>2019-11-29T06:31:44Z</time>
      </trkpt>
      <trkpt lat="59.301416" lon="18.080714">
        <ele>46</ele>
        <time>2019-11-29T06:31:46Z</time>
      </trkpt>
      <trkpt lat="59.301442" lon="18.080694">
        <ele>46</ele>
        <time>2019-11-29T06:31:46Z</time>
      </trkpt>
      <trkpt lat="59.301467" lon="18.080672">
        <ele>46</ele>
        <time>2019-11-29T06:31:47Z</time>
      </trkpt>
      <trkpt lat="59.301491" lon="18.08065">
        <ele>46</ele>
        <time>2019-11-29T06:31:48Z</time>
      </trkpt>
      <trkpt lat="59.301516" lon="18.080631">
        <ele>45</ele>
        <time>2019-11-29T06:31:49Z</time>
      </trkpt>
      <trkpt lat="59.301544" lon="18.080615">
        <ele>45</ele>
        <time>2019-11-29T06:31:51Z</time>
      </trkpt>
      <trkpt lat="59.301573" lon="18.080602">
        <ele>45</ele>
        <time>2019-11-29T06:31:51Z</time>
      </trkpt>
      <trkpt lat="59.301601" lon="18.080588">
        <ele>45</ele>
        <time>2019-11-29T06:31:53Z</time>
      </trkpt>
      <trkpt lat="59.301625" lon="18.080568">
        <ele>45</ele>
        <time>2019-11-29T06:31:53Z</time>
      </trkpt>
      <trkpt lat="59.301651" lon="18.080548">
        <ele>45</ele>
        <time>2019-11-29T06:31:54Z</time>
      </trkpt>
      <trkpt lat="59.30168" lon="18.080533">
        <ele>45</ele>
        <time>2019-11-29T06:31:56Z</time>
      </trkpt>
      <trkpt lat="59.301706" lon="18.080513">
        <ele>44</ele>
        <time>2019-11-29T06:31:56Z</time>
      </trkpt>
      <trkpt lat="59.301736" lon="18.080497">
        <ele>44</ele>
        <time>2019-11-29T06:31:58Z</time>
      </trkpt>
      <trkpt lat="59.301759" lon="18.080472">
        <ele>44</ele>
        <time>2019-11-29T06:31:58Z</time>
      </trkpt>
      <trkpt lat="59.301786" lon="18.080458">
        <ele>44</ele>
        <time>2019-11-29T06:31:59Z</time>
      </trkpt>
      <trkpt lat="59.301813" lon="18.080441">
        <ele>44</ele>
        <time>2019-11-29T06:32:01Z</time>
      </trkpt>
      <trkpt lat="59.30184" lon="18.080425">
        <ele>44</ele>
        <time>2019-11-29T06:32:02Z</time>
      </trkpt>
      <trkpt lat="59.301867" lon="18.08041">
        <ele>44</ele>
        <time>2019-11-29T06:32:03Z</time>
      </trkpt>
      <trkpt lat="59.301891" lon="18.080392">
        <ele>43</ele>
        <time>2019-11-29T06:32:03Z</time>
      </trkpt>
      <trkpt lat="59.301917" lon="18.080373">
        <ele>43</ele>
        <time>2019-11-29T06:32:05Z</time>
      </trkpt>
      <trkpt lat="59.301944" lon="18.080353">
        <ele>43</ele>
        <time>2019-11-29T06:32:05Z</time>
      </trkpt>
      <trkpt lat="59.301972" lon="18.080338">
        <ele>43</ele>
        <time>2019-11-29T06:32:06Z</time>
      </trkpt>
      <trkpt lat="59.301998" lon="18.080324">
        <ele>43</ele>
        <time>2019-11-29T06:32:08Z</time>
      </trkpt>
      <trkpt lat="59.302028" lon="18.080312">
        <ele>43</ele>
        <time>2019-11-29T06:32:08Z</time>
      </trkpt>
      <trkpt lat="59.302052" lon="18.080292">
        <ele>42</ele>
        <time>2019-11-29T06:32:10Z</time>
      </trkpt>
      <trkpt lat="59.302079" lon="18.080278">
        <ele>42</ele>
        <time>2019-11-29T06:32:10Z</time>
      </trkpt>
      <trkpt lat="59.302104" lon="18.080264">
        <ele>42</ele>
        <time>2019-11-29T06:32:11Z</time>
      </trkpt>
      <trkpt lat="59.302128" lon="18.080241">
        <ele>42</ele>
        <time>2019-11-29T06:32:13Z</time>
      </trkpt>
      <trkpt lat="59.302153" lon="18.080221">
        <ele>42</ele>
        <time>2019-11-29T06:32:13Z</time>
      </trkpt>
      <trkpt lat="59.302178" lon="18.0802">
        <ele>42</ele>
        <time>2019-11-29T06:32:14Z</time>
      </trkpt>
      <trkpt lat="59.302204" lon="18.080181">
        <ele>42</ele>
        <time>2019-11-29T06:32:15Z</time>
      </trkpt>
      <trkpt lat="59.302229" lon="18.080157">
        <ele>42</ele>
        <time>2019-11-29T06:32:16Z</time>
      </trkpt>
      <trkpt lat="59.302254" lon="18.080139">
        <ele>42</ele>
        <time>2019-11-29T06:32:18Z</time>
      </trkpt>
      <trkpt lat="59.302281" lon="18.080121">
        <ele>41</ele>
        <time>2019-11-29T06:32:18Z</time>
      </trkpt>
      <trkpt lat="59.302307" lon="18.080101">
        <ele>41</ele>
        <time>2019-11-29T06:32:19Z</time>
      </trkpt>
      <trkpt lat="59.302334" lon="18.080085">
        <ele>41</ele>
        <time>2019-11-29T06:32:21Z</time>
      </trkpt>
      <trkpt lat="59.302361" lon="18.08007">
        <ele>41</ele>
        <time>2019-11-29T06:32:21Z</time>
      </trkpt>
      <trkpt lat="59.302388" lon="18.080056">
        <ele>41</ele>
        <time>2019-11-29T06:32:23Z</time>
      </trkpt>
      <trkpt lat="59.302413" lon="18.080041">
        <ele>41</ele>
        <time>2019-11-29T06:32:23Z</time>
      </trkpt>
      <trkpt lat="59.30244" lon="18.080023">
        <ele>41</ele>
        <time>2019-11-29T06:32:24Z</time>
      </trkpt>
      <trkpt lat="59.302464" lon="18.080006">
        <ele>41</ele>
        <time>2019-11-29T06:32:26Z</time>
      </trkpt>
      <trkpt lat="59.302491" lon="18.079994">
        <ele>41</ele>
        <time>2019-11-29T06:32:26Z</time>
      </trkpt>
      <trkpt lat="59.302517" lon="18.07998">
        <ele>41</ele>
        <time>2019-11-29T06:32:27Z</time>
      </trkpt>
      <trkpt lat="59.302544" lon="18.079968">
        <ele>41</ele>
        <time>2019-11-29T06:32:29Z</time>
      </trkpt>
      <trkpt lat="59.302572" lon="18.079951">
        <ele>41</ele>
        <time>2019-11-29T06:32:29Z</time>
      </trkpt>
      <trkpt lat="59.302601" lon="18.079933">
        <ele>40</ele>
        <time>2019-11-29T06:32:30Z</time>
      </trkpt>
      <trkpt lat="59.302626" lon="18.079911">
        <ele>40</ele>
        <time>2019-11-29T06:32:31Z</time>
      </trkpt>
      <trkpt lat="59.302651" lon="18.079892">
        <ele>40</ele>
        <time>2019-11-29T06:32:32Z</time>
      </trkpt>
      <trkpt lat="59.302677" lon="18.07987">
        <ele>40</ele>
        <time>2019-11-29T06:32:33Z</time>
      </trkpt>
      <trkpt lat="59.302702" lon="18.07985">
        <ele>40</ele>
        <time>2019-11-29T06:32:34Z</time>
      </trkpt>
      <trkpt lat="59.30273" lon="18.079832">
        <ele>40</ele>
        <time>2019-11-29T06:32:35Z</time>
      </trkpt>
      <trkpt lat="59.302756" lon="18.07982">
        <ele>40</ele>
        <time>2019-11-29T06:32:37Z</time>
      </trkpt>
      <trkpt lat="59.302783" lon="18.079804">
        <ele>40</ele>
        <time>2019-11-29T06:32:37Z</time>
      </trkpt>
      <trkpt lat="59.302808" lon="18.079789">
        <ele>40</ele>
        <time>2019-11-29T06:32:38Z</time>
      </trkpt>
      <trkpt lat="59.302835" lon="18.079774">
        <ele>40</ele>
        <time>2019-11-29T06:32:40Z</time>
      </trkpt>
      <trkpt lat="59.302861" lon="18.079759">
        <ele>40</ele>
        <time>2019-11-29T06:32:40Z</time>
      </trkpt>
      <trkpt lat="59.302887" lon="18.079744">
        <ele>40</ele>
        <time>2019-11-29T06:32:41Z</time>
      </trkpt>
      <trkpt lat="59.302912" lon="18.079732">
        <ele>40</ele>
        <time>2019-11-29T06:32:43Z</time>
      </trkpt>
      <trkpt lat="59.302933" lon="18.07971">
        <ele>40</ele>
        <time>2019-11-29T06:32:43Z</time>
      </trkpt>
      <trkpt lat="59.302956" lon="18.079693">
        <ele>40</ele>
        <time>2019-11-29T06:32:44Z</time>
      </trkpt>
      <trkpt lat="59.302982" lon="18.079682">
        <ele>40</ele>
        <time>2019-11-29T06:32:45Z</time>
      </trkpt>
      <trkpt lat="59.303008" lon="18.079667">
        <ele>40</ele>
        <time>2019-11-29T06:32:47Z</time>
      </trkpt>
      <trkpt lat="59.303031" lon="18.079654">
        <ele>40</ele>
        <time>2019-11-29T06:32:47Z</time>
      </trkpt>
      <trkpt lat="59.303057" lon="18.079641">
        <ele>40</ele>
        <time>2019-11-29T06:32:48Z</time>
      </trkpt>
      <trkpt lat="59.303083" lon="18.079624">
        <ele>40</ele>
        <time>2019-11-29T06:32:50Z</time>
      </trkpt>
      <trkpt lat="59.303108" lon="18.07961">
        <ele>40</ele>
        <time>2019-11-29T06:32:50Z</time>
      </trkpt>
      <trkpt lat="59.303131" lon="18.079596">
        <ele>40</ele>
        <time>2019-11-29T06:32:51Z</time>
      </trkpt>
      <trkpt lat="59.303155" lon="18.079581">
        <ele>39</ele>
        <time>2019-11-29T06:32:52Z</time>
      </trkpt>
      <trkpt lat="59.303181" lon="18.079563">
        <ele>39</ele>
        <time>2019-11-29T06:32:53Z</time>
      </trkpt>
      <trkpt lat="59.303209" lon="18.079545">
        <ele>39</ele>
        <time>2019-11-29T06:32:55Z</time>
      </trkpt>
      <trkpt lat="59.303234" lon="18.079529">
        <ele>39</ele>
        <time>2019-11-29T06:32:55Z</time>
      </trkpt>
      <trkpt lat="59.30326" lon="18.079514">
        <ele>39</ele>
        <time>2019-11-29T06:32:56Z</time>
      </trkpt>
      <trkpt lat="59.303285" lon="18.079495">
        <ele>39</ele>
        <time>2019-11-29T06:32:58Z</time>
      </trkpt>
      <trkpt lat="59.303312" lon="18.079482">
        <ele>39</ele>
        <time>2019-11-29T06:32:59Z</time>
      </trkpt>
      <trkpt lat="59.303337" lon="18.079467">
        <ele>39</ele>
        <time>2019-11-29T06:32:59Z</time>
      </trkpt>
      <trkpt lat="59.303363" lon="18.079452">
        <ele>39</ele>
        <time>2019-11-29T06:33:01Z</time>
      </trkpt>
      <trkpt lat="59.303389" lon="18.079439">
        <ele>39</ele>
        <time>2019-11-29T06:33:01Z</time>
      </trkpt>
      <trkpt lat="59.303416" lon="18.079425">
        <ele>39</ele>
        <time>2019-11-29T06:33:02Z</time>
      </trkpt>
      <trkpt lat="59.303442" lon="18.07941">
        <ele>39</ele>
        <time>2019-11-29T06:33:04Z</time>
      </trkpt>
      <trkpt lat="59.303468" lon="18.079391">
        <ele>39</ele>
        <time>2019-11-29T06:33:04Z</time>
      </trkpt>
      <trkpt lat="59.303494" lon="18.079374">
        <ele>39</ele>
        <time>2019-11-29T06:33:06Z</time>
      </trkpt>
      <trkpt lat="59.303519" lon="18.079359">
        <ele>39</ele>
        <time>2019-11-29T06:33:06Z</time>
      </trkpt>
      <trkpt lat="59.303544" lon="18.079341">
        <ele>39</ele>
        <time>2019-11-29T06:33:07Z</time>
      </trkpt>
      <trkpt lat="59.30357" lon="18.079327">
        <ele>38</ele>
        <time>2019-11-29T06:33:09Z</time>
      </trkpt>
      <trkpt lat="59.303597" lon="18.079309">
        <ele>38</ele>
        <time>2019-11-29T06:33:09Z</time>
      </trkpt>
      <trkpt lat="59.303625" lon="18.079293">
        <ele>38</ele>
        <time>2019-11-29T06:33:10Z</time>
      </trkpt>
      <trkpt lat="59.303654" lon="18.079275">
        <ele>38</ele>
        <time>2019-11-29T06:33:11Z</time>
      </trkpt>
      <trkpt lat="59.303681" lon="18.079261">
        <ele>38</ele>
        <time>2019-11-29T06:33:12Z</time>
      </trkpt>
      <trkpt lat="59.303709" lon="18.079244">
        <ele>38</ele>
        <time>2019-11-29T06:33:14Z</time>
      </trkpt>
      <trkpt lat="59.303736" lon="18.079229">
        <ele>38</ele>
        <time>2019-11-29T06:33:14Z</time>
      </trkpt>
      <trkpt lat="59.303762" lon="18.079213">
        <ele>38</ele>
        <time>2019-11-29T06:33:15Z</time>
      </trkpt>
      <trkpt lat="59.303789" lon="18.079201">
        <ele>38</ele>
        <time>2019-11-29T06:33:17Z</time>
      </trkpt>
      <trkpt lat="59.303815" lon="18.079186">
        <ele>38</ele>
        <time>2019-11-29T06:33:18Z</time>
      </trkpt>
      <trkpt lat="59.303843" lon="18.07917">
        <ele>37</ele>
        <time>2019-11-29T06:33:18Z</time>
      </trkpt>
      <trkpt lat="59.303869" lon="18.079154">
        <ele>37</ele>
        <time>2019-11-29T06:33:19Z</time>
      </trkpt>
      <trkpt lat="59.303895" lon="18.079138">
        <ele>37</ele>
        <time>2019-11-29T06:33:20Z</time>
      </trkpt>
      <trkpt lat="59.303922" lon="18.079122">
        <ele>37</ele>
        <time>2019-11-29T06:33:21Z</time>
      </trkpt>
      <trkpt lat="59.303949" lon="18.079103">
        <ele>37</ele>
        <time>2019-11-29T06:33:22Z</time>
      </trkpt>
      <trkpt lat="59.303976" lon="18.079081">
        <ele>37</ele>
        <time>2019-11-29T06:33:24Z</time>
      </trkpt>
      <trkpt lat="59.304003" lon="18.079063">
        <ele>37</ele>
        <time>2019-11-29T06:33:24Z</time>
      </trkpt>
      <trkpt lat="59.30403" lon="18.079046">
        <ele>37</ele>
        <time>2019-11-29T06:33:25Z</time>
      </trkpt>
      <trkpt lat="59.304057" lon="18.079031">
        <ele>37</ele>
        <time>2019-11-29T06:33:26Z</time>
      </trkpt>
      <trkpt lat="59.304086" lon="18.079016">
        <ele>37</ele>
        <time>2019-11-29T06:33:27Z</time>
      </trkpt>
      <trkpt lat="59.304114" lon="18.078997">
        <ele>36</ele>
        <time>2019-11-29T06:33:28Z</time>
      </trkpt>
      <trkpt lat="59.304142" lon="18.078978">
        <ele>36</ele>
        <time>2019-11-29T06:33:29Z</time>
      </trkpt>
      <trkpt lat="59.30417" lon="18.078964">
        <ele>36</ele>
        <time>2019-11-29T06:33:30Z</time>
      </trkpt>
      <trkpt lat="59.304197" lon="18.078947">
        <ele>36</ele>
        <time>2019-11-29T06:33:31Z</time>
      </trkpt>
      <trkpt lat="59.304224" lon="18.078929">
        <ele>36</ele>
        <time>2019-11-29T06:33:32Z</time>
      </trkpt>
      <trkpt lat="59.30425" lon="18.078909">
        <ele>36</ele>
        <time>2019-11-29T06:33:33Z</time>
      </trkpt>
      <trkpt lat="59.304277" lon="18.078889">
        <ele>36</ele>
        <time>2019-11-29T06:33:35Z</time>
      </trkpt>
      <trkpt lat="59.304303" lon="18.078871">
        <ele>36</ele>
        <time>2019-11-29T06:33:35Z</time>
      </trkpt>
      <trkpt lat="59.304329" lon="18.078857">
        <ele>36</ele>
        <time>2019-11-29T06:33:37Z</time>
      </trkpt>
      <trkpt lat="59.304355" lon="18.078843">
        <ele>36</ele>
        <time>2019-11-29T06:33:37Z</time>
      </trkpt>
      <trkpt lat="59.304381" lon="18.078825">
        <ele>35</ele>
        <time>2019-11-29T06:33:39Z</time>
      </trkpt>
      <trkpt lat="59.304408" lon="18.078809">
        <ele>35</ele>
        <time>2019-11-29T06:33:39Z</time>
      </trkpt>
      <trkpt lat="59.304437" lon="18.078795">
        <ele>35</ele>
        <time>2019-11-29T06:33:41Z</time>
      </trkpt>
      <trkpt lat="59.304465" lon="18.078778">
        <ele>35</ele>
        <time>2019-11-29T06:33:41Z</time>
      </trkpt>
      <trkpt lat="59.304492" lon="18.078762">
        <ele>35</ele>
        <time>2019-11-29T06:33:42Z</time>
      </trkpt>
      <trkpt lat="59.304518" lon="18.078742">
        <ele>35</ele>
        <time>2019-11-29T06:33:43Z</time>
      </trkpt>
      <trkpt lat="59.304545" lon="18.078724">
        <ele>35</ele>
        <time>2019-11-29T06:33:44Z</time>
      </trkpt>
      <trkpt lat="59.304571" lon="18.078706">
        <ele>35</ele>
        <time>2019-11-29T06:33:45Z</time>
      </trkpt>
      <trkpt lat="59.304597" lon="18.078689">
        <ele>35</ele>
        <time>2019-11-29T06:33:46Z</time>
      </trkpt>
      <trkpt lat="59.304624" lon="18.078671">
        <ele>35</ele>
        <time>2019-11-29T06:33:47Z</time>
      </trkpt>
      <trkpt lat="59.304654" lon="18.078654">
        <ele>35</ele>
        <time>2019-11-29T06:33:49Z</time>
      </trkpt>
      <trkpt lat="59.304683" lon="18.078635">
        <ele>35</ele>
        <time>2019-11-29T06:33:49Z</time>
      </trkpt>
      <trkpt lat="59.30471" lon="18.078617">
        <ele>35</ele>
        <time>2019-11-29T06:33:50Z</time>
      </trkpt>
      <trkpt lat="59.304739" lon="18.078602">
        <ele>34</ele>
        <time>2019-11-29T06:33:52Z</time>
      </trkpt>
      <trkpt lat="59.304766" lon="18.078587">
        <ele>34</ele>
        <time>2019-11-29T06:33:52Z</time>
      </trkpt>
      <trkpt lat="59.304794" lon="18.078572">
        <ele>34</ele>
        <time>2019-11-29T06:33:53Z</time>
      </trkpt>
      <trkpt lat="59.304821" lon="18.078556">
        <ele>34</ele>
        <time>2019-11-29T06:33:55Z</time>
      </trkpt>
      <trkpt lat="59.304848" lon="18.07854">
        <ele>34</ele>
        <time>2019-11-29T06:33:56Z</time>
      </trkpt>
      <trkpt lat="59.304875" lon="18.078524">
        <ele>34</ele>
        <time>2019-11-29T06:33:56Z</time>
      </trkpt>
      <trkpt lat="59.304903" lon="18.078512">
        <ele>34</ele>
        <time>2019-11-29T06:33:57Z</time>
      </trkpt>
      <trkpt lat="59.30493" lon="18.078498">
        <ele>33</ele>
        <time>2019-11-29T06:33:59Z</time>
      </trkpt>
      <trkpt lat="59.304957" lon="18.078483">
        <ele>33</ele>
        <time>2019-11-29T06:33:59Z</time>
      </trkpt>
      <trkpt lat="59.304985" lon="18.078465">
        <ele>33</ele>
        <time>2019-11-29T06:34:00Z</time>
      </trkpt>
      <trkpt lat="59.305012" lon="18.078448">
        <ele>33</ele>
        <time>2019-11-29T06:34:01Z</time>
      </trkpt>
      <trkpt lat="59.305039" lon="18.078428">
        <ele>32</ele>
        <time>2019-11-29T06:34:02Z</time>
      </trkpt>
      <trkpt lat="59.305066" lon="18.078411">
        <ele>32</ele>
        <time>2019-11-29T06:34:03Z</time>
      </trkpt>
      <trkpt lat="59.305093" lon="18.078393">
        <ele>32</ele>
        <time>2019-11-29T06:34:04Z</time>
      </trkpt>
      <trkpt lat="59.305118" lon="18.078375">
        <ele>32</ele>
        <time>2019-11-29T06:34:05Z</time>
      </trkpt>
      <trkpt lat="59.305145" lon="18.078357">
        <ele>32</ele>
        <time>2019-11-29T06:34:06Z</time>
      </trkpt>
      <trkpt lat="59.305172" lon="18.078344">
        <ele>32</ele>
        <time>2019-11-29T06:34:07Z</time>
      </trkpt>
      <trkpt lat="59.305199" lon="18.078327">
        <ele>32</ele>
        <time>2019-11-29T06:34:08Z</time>
      </trkpt>
      <trkpt lat="59.305225" lon="18.07831">
        <ele>32</ele>
        <time>2019-11-29T06:34:10Z</time>
      </trkpt>
      <trkpt lat="59.305252" lon="18.078294">
        <ele>31</ele>
        <time>2019-11-29T06:34:10Z</time>
      </trkpt>
      <trkpt lat="59.305279" lon="18.078276">
        <ele>31</ele>
        <time>2019-11-29T06:34:11Z</time>
      </trkpt>
      <trkpt lat="59.305306" lon="18.078261">
        <ele>31</ele>
        <time>2019-11-29T06:34:13Z</time>
      </trkpt>
      <trkpt lat="59.305333" lon="18.078241">
        <ele>31</ele>
        <time>2019-11-29T06:34:13Z</time>
      </trkpt>
      <trkpt lat="59.30536" lon="18.078219">
        <ele>31</ele>
        <time>2019-11-29T06:34:15Z</time>
      </trkpt>
      <trkpt lat="59.305388" lon="18.078202">
        <ele>31</ele>
        <time>2019-11-29T06:34:16Z</time>
      </trkpt>
      <trkpt lat="59.305416" lon="18.078187">
        <ele>31</ele>
        <time>2019-11-29T06:34:16Z</time>
      </trkpt>
      <trkpt lat="59.305444" lon="18.07817">
        <ele>31</ele>
        <time>2019-11-29T06:34:17Z</time>
      </trkpt>
      <trkpt lat="59.305473" lon="18.078152">
        <ele>31</ele>
        <time>2019-11-29T06:34:19Z</time>
      </trkpt>
      <trkpt lat="59.305501" lon="18.078136">
        <ele>31</ele>
        <time>2019-11-29T06:34:19Z</time>
      </trkpt>
      <trkpt lat="59.30553" lon="18.078118">
        <ele>31</ele>
        <time>2019-11-29T06:34:20Z</time>
      </trkpt>
      <trkpt lat="59.305558" lon="18.0781">
        <ele>31</ele>
        <time>2019-11-29T06:34:21Z</time>
      </trkpt>
      <trkpt lat="59.305585" lon="18.078083">
        <ele>31</ele>
        <time>2019-11-29T06:34:22Z</time>
      </trkpt>
      <trkpt lat="59.305612" lon="18.07807">
        <ele>31</ele>
        <time>2019-11-29T06:34:24Z</time>
      </trkpt>
      <trkpt lat="59.305638" lon="18.078059">
        <ele>31</ele>
        <time>2019-11-29T06:34:24Z</time>
      </trkpt>
      <trkpt lat="59.305664" lon="18.078045">
        <ele>30</ele>
        <time>2019-11-29T06:34:25Z</time>
      </trkpt>
      <trkpt lat="59.305691" lon="18.078029">
        <ele>30</ele>
        <time>2019-11-29T06:34:27Z</time>
      </trkpt>
      <trkpt lat="59.305719" lon="18.078013">
        <ele>30</ele>
        <time>2019-11-29T06:34:27Z</time>
      </trkpt>
      <trkpt lat="59.305746" lon="18.077993">
        <ele>30</ele>
        <time>2019-11-29T06:34:28Z</time>
      </trkpt>
      <trkpt lat="59.305773" lon="18.077977">
        <ele>30</ele>
        <time>2019-11-29T06:34:30Z</time>
      </trkpt>
      <trkpt lat="59.3058" lon="18.077961">
        <ele>30</ele>
        <time>2019-11-29T06:34:30Z</time>
      </trkpt>
      <trkpt lat="59.305826" lon="18.077942">
        <ele>30</ele>
        <time>2019-11-29T06:34:31Z</time>
      </trkpt>
      <trkpt lat="59.305855" lon="18.077924">
        <ele>30</ele>
        <time>2019-11-29T06:34:33Z</time>
      </trkpt>
      <trkpt lat="59.305884" lon="18.077908">
        <ele>30</ele>
        <time>2019-11-29T06:34:34Z</time>
      </trkpt>
      <trkpt lat="59.305914" lon="18.077892">
        <ele>30</ele>
        <time>2019-11-29T06:34:34Z</time>
      </trkpt>
      <trkpt lat="59.305942" lon="18.077876">
        <ele>29</ele>
        <time>2019-11-29T06:34:36Z</time>
      </trkpt>
      <trkpt lat="59.30597" lon="18.07786">
        <ele>29</ele>
        <time>2019-11-29T06:34:36Z</time>
      </trkpt>
      <trkpt lat="59.305999" lon="18.077846">
        <ele>29</ele>
        <time>2019-11-29T06:34:37Z</time>
      </trkpt>
      <trkpt lat="59.30603" lon="18.077834">
        <ele>29</ele>
        <time>2019-11-29T06:34:39Z</time>
      </trkpt>
      <trkpt lat="59.306059" lon="18.077818">
        <ele>28</ele>
        <time>2019-11-29T06:34:39Z</time>
      </trkpt>
      <trkpt lat="59.306084" lon="18.077788">
        <ele>28</ele>
        <time>2019-11-29T06:34:40Z</time>
      </trkpt>
      <trkpt lat="59.30611" lon="18.077771">
        <ele>28</ele>
        <time>2019-11-29T06:34:41Z</time>
      </trkpt>
      <trkpt lat="59.306137" lon="18.077758">
        <ele>28</ele>
        <time>2019-11-29T06:34:42Z</time>
      </trkpt>
      <trkpt lat="59.306166" lon="18.077747">
        <ele>28</ele>
        <time>2019-11-29T06:34:44Z</time>
      </trkpt>
      <trkpt lat="59.306194" lon="18.077735">
        <ele>28</ele>
        <time>2019-11-29T06:34:44Z</time>
      </trkpt>
      <trkpt lat="59.306221" lon="18.077725">
        <ele>28</ele>
        <time>2019-11-29T06:34:45Z</time>
      </trkpt>
      <trkpt lat="59.306248" lon="18.077718">
        <ele>28</ele>
        <time>2019-11-29T06:34:47Z</time>
      </trkpt>
      <trkpt lat="59.306274" lon="18.077709">
        <ele>28</ele>
        <time>2019-11-29T06:34:47Z</time>
      </trkpt>
      <trkpt lat="59.3063" lon="18.077696">
        <ele>27</ele>
        <time>2019-11-29T06:34:48Z</time>
      </trkpt>
      <trkpt lat="59.306326" lon="18.077685">
        <ele>27</ele>
        <time>2019-11-29T06:34:50Z</time>
      </trkpt>
      <trkpt lat="59.306353" lon="18.077677">
        <ele>27</ele>
        <time>2019-11-29T06:34:51Z</time>
      </trkpt>
      <trkpt lat="59.30638" lon="18.077662">
        <ele>27</ele>
        <time>2019-11-29T06:34:51Z</time>
      </trkpt>
      <trkpt lat="59.306409" lon="18.077647">
        <ele>27</ele>
        <time>2019-11-29T06:34:53Z</time>
      </trkpt>
      <trkpt lat="59.306438" lon="18.077634">
        <ele>27</ele>
        <time>2019-11-29T06:34:53Z</time>
      </trkpt>
      <trkpt lat="59.306466" lon="18.077625">
        <ele>27</ele>
        <time>2019-11-29T06:34:54Z</time>
      </trkpt>
      <trkpt lat="59.306494" lon="18.077621">
        <ele>27</ele>
        <time>2019-11-29T06:34:56Z</time>
      </trkpt>
      <trkpt lat="59.306525" lon="18.077611">
        <ele>27</ele>
        <time>2019-11-29T06:34:56Z</time>
      </trkpt>
      <trkpt lat="59.306555" lon="18.0776">
        <ele>27</ele>
        <time>2019-11-29T06:34:57Z</time>
      </trkpt>
      <trkpt lat="59.306586" lon="18.077588">
        <ele>27</ele>
        <time>2019-11-29T06:34:58Z</time>
      </trkpt>
      <trkpt lat="59.306617" lon="18.077578">
        <ele>27</ele>
        <time>2019-11-29T06:34:59Z</time>
      </trkpt>
      <trkpt lat="59.306645" lon="18.077565">
        <ele>27</ele>
        <time>2019-11-29T06:35:01Z</time>
      </trkpt>
      <trkpt lat="59.306672" lon="18.077552">
        <ele>27</ele>
        <time>2019-11-29T06:35:01Z</time>
      </trkpt>
      <trkpt lat="59.306701" lon="18.077539">
        <ele>26</ele>
        <time>2019-11-29T06:35:02Z</time>
      </trkpt>
      <trkpt lat="59.306731" lon="18.077522">
        <ele>26</ele>
        <time>2019-11-29T06:35:04Z</time>
      </trkpt>
      <trkpt lat="59.30676" lon="18.077506">
        <ele>26</ele>
        <time>2019-11-29T06:35:04Z</time>
      </trkpt>
      <trkpt lat="59.306789" lon="18.077492">
        <ele>26</ele>
        <time>2019-11-29T06:35:05Z</time>
      </trkpt>
      <trkpt lat="59.306819" lon="18.077478">
        <ele>27</ele>
        <time>2019-11-29T06:35:07Z</time>
      </trkpt>
      <trkpt lat="59.30685" lon="18.077466">
        <ele>27</ele>
        <time>2019-11-29T06:35:08Z</time>
      </trkpt>
      <trkpt lat="59.306881" lon="18.077458">
        <ele>27</ele>
        <time>2019-11-29T06:35:08Z</time>
      </trkpt>
      <trkpt lat="59.306912" lon="18.07745">
        <ele>27</ele>
        <time>2019-11-29T06:35:09Z</time>
      </trkpt>
      <trkpt lat="59.306941" lon="18.077438">
        <ele>27</ele>
        <time>2019-11-29T06:35:10Z</time>
      </trkpt>
      <trkpt lat="59.306971" lon="18.077424">
        <ele>27</ele>
        <time>2019-11-29T06:35:12Z</time>
      </trkpt>
      <trkpt lat="59.307001" lon="18.077408">
        <ele>27</ele>
        <time>2019-11-29T06:35:12Z</time>
      </trkpt>
      <trkpt lat="59.30703" lon="18.077395">
        <ele>27</ele>
        <time>2019-11-29T06:35:14Z</time>
      </trkpt>
      <trkpt lat="59.307058" lon="18.07738">
        <ele>27</ele>
        <time>2019-11-29T06:35:14Z</time>
      </trkpt>
      <trkpt lat="59.307086" lon="18.077364">
        <ele>27</ele>
        <time>2019-11-29T06:35:15Z</time>
      </trkpt>
      <trkpt lat="59.307116" lon="18.077348">
        <ele>27</ele>
        <time>2019-11-29T06:35:17Z</time>
      </trkpt>
      <trkpt lat="59.307143" lon="18.077334">
        <ele>27</ele>
        <time>2019-11-29T06:35:17Z</time>
      </trkpt>
      <trkpt lat="59.307171" lon="18.077319">
        <ele>27</ele>
        <time>2019-11-29T06:35:18Z</time>
      </trkpt>
      <trkpt lat="59.307199" lon="18.077307">
        <ele>27</ele>
        <time>2019-11-29T06:35:20Z</time>
      </trkpt>
      <trkpt lat="59.307228" lon="18.077294">
        <ele>28</ele>
        <time>2019-11-29T06:35:20Z</time>
      </trkpt>
      <trkpt lat="59.307255" lon="18.077278">
        <ele>28</ele>
        <time>2019-11-29T06:35:21Z</time>
      </trkpt>
      <trkpt lat="59.307282" lon="18.077262">
        <ele>28</ele>
        <time>2019-11-29T06:35:22Z</time>
      </trkpt>
      <trkpt lat="59.307309" lon="18.077248">
        <ele>28</ele>
        <time>2019-11-29T06:35:23Z</time>
      </trkpt>
      <trkpt lat="59.307334" lon="18.077234">
        <ele>28</ele>
        <time>2019-11-29T06:35:25Z</time>
      </trkpt>
      <trkpt lat="59.307362" lon="18.077222">
        <ele>28</ele>
        <time>2019-11-29T06:35:26Z</time>
      </trkpt>
      <trkpt lat="59.307389" lon="18.077204">
        <ele>28</ele>
        <time>2019-11-29T06:35:26Z</time>
      </trkpt>
      <trkpt lat="59.307416" lon="18.077188">
        <ele>28</ele>
        <time>2019-11-29T06:35:27Z</time>
      </trkpt>
      <trkpt lat="59.307437" lon="18.077152">
        <ele>28</ele>
        <time>2019-11-29T06:35:28Z</time>
      </trkpt>
      <trkpt lat="59.307465" lon="18.077134">
        <ele>27</ele>
        <time>2019-11-29T06:35:29Z</time>
      </trkpt>
      <trkpt lat="59.307492" lon="18.077122">
        <ele>27</ele>
        <time>2019-11-29T06:35:31Z</time>
      </trkpt>
      <trkpt lat="59.307522" lon="18.077108">
        <ele>27</ele>
        <time>2019-11-29T06:35:31Z</time>
      </trkpt>
      <trkpt lat="59.307549" lon="18.077098">
        <ele>27</ele>
        <time>2019-11-29T06:35:32Z</time>
      </trkpt>
      <trkpt lat="59.307575" lon="18.077086">
        <ele>27</ele>
        <time>2019-11-29T06:35:34Z</time>
      </trkpt>
      <trkpt lat="59.307602" lon="18.077076">
        <ele>27</ele>
        <time>2019-11-29T06:35:34Z</time>
      </trkpt>
      <trkpt lat="59.307627" lon="18.077063">
        <ele>27</ele>
        <time>2019-11-29T06:35:35Z</time>
      </trkpt>
      <trkpt lat="59.307655" lon="18.077068">
        <ele>27</ele>
        <time>2019-11-29T06:35:36Z</time>
      </trkpt>
      <trkpt lat="59.307675" lon="18.077056">
        <ele>27</ele>
        <time>2019-11-29T06:35:37Z</time>
      </trkpt>
      <trkpt lat="59.307699" lon="18.077066">
        <ele>27</ele>
        <time>2019-11-29T06:35:39Z</time>
      </trkpt>
      <trkpt lat="59.307731" lon="18.077052">
        <ele>26</ele>
        <time>2019-11-29T06:35:40Z</time>
      </trkpt>
      <trkpt lat="59.307748" lon="18.077038">
        <ele>26</ele>
        <time>2019-11-29T06:35:42Z</time>
      </trkpt>
      <trkpt lat="59.307766" lon="18.077015">
        <ele>26</ele>
        <time>2019-11-29T06:35:42Z</time>
      </trkpt>
      <trkpt lat="59.307785" lon="18.077002">
        <ele>26</ele>
        <time>2019-11-29T06:35:43Z</time>
      </trkpt>
      <trkpt lat="59.307812" lon="18.076986">
        <ele>26</ele>
        <time>2019-11-29T06:35:45Z</time>
      </trkpt>
      <trkpt lat="59.307832" lon="18.076975">
        <ele>26</ele>
        <time>2019-11-29T06:35:46Z</time>
      </trkpt>
      <trkpt lat="59.307855" lon="18.076954">
        <ele>26</ele>
        <time>2019-11-29T06:35:48Z</time>
      </trkpt>
      <trkpt lat="59.307881" lon="18.076938">
        <ele>26</ele>
        <time>2019-11-29T06:35:48Z</time>
      </trkpt>
      <trkpt lat="59.307909" lon="18.076925">
        <ele>26</ele>
        <time>2019-11-29T06:35:50Z</time>
      </trkpt>
      <trkpt lat="59.30793" lon="18.076898">
        <ele>26</ele>
        <time>2019-11-29T06:35:51Z</time>
      </trkpt>
      <trkpt lat="59.307957" lon="18.07688">
        <ele>27</ele>
        <time>2019-11-29T06:35:51Z</time>
      </trkpt>
      <trkpt lat="59.307982" lon="18.076864">
        <ele>27</ele>
        <time>2019-11-29T06:35:52Z</time>
      </trkpt>
      <trkpt lat="59.307999" lon="18.07684">
        <ele>27</ele>
        <time>2019-11-29T06:35:54Z</time>
      </trkpt>
      <trkpt lat="59.308007" lon="18.076792">
        <ele>27</ele>
        <time>2019-11-29T06:35:54Z</time>
      </trkpt>
      <trkpt lat="59.308018" lon="18.07673">
        <ele>26</ele>
        <time>2019-11-29T06:35:55Z</time>
      </trkpt>
      <trkpt lat="59.308037" lon="18.076694">
        <ele>26</ele>
        <time>2019-11-29T06:35:57Z</time>
      </trkpt>
      <trkpt lat="59.308063" lon="18.07667">
        <ele>26</ele>
        <time>2019-11-29T06:35:57Z</time>
      </trkpt>
      <trkpt lat="59.308087" lon="18.076656">
        <ele>26</ele>
        <time>2019-11-29T06:35:58Z</time>
      </trkpt>
      <trkpt lat="59.308112" lon="18.07664">
        <ele>27</ele>
        <time>2019-11-29T06:35:59Z</time>
      </trkpt>
      <trkpt lat="59.308128" lon="18.076606">
        <ele>27</ele>
        <time>2019-11-29T06:36:00Z</time>
      </trkpt>
      <trkpt lat="59.308154" lon="18.076584">
        <ele>27</ele>
        <time>2019-11-29T06:36:02Z</time>
      </trkpt>
      <trkpt lat="59.308183" lon="18.076573">
        <ele>27</ele>
        <time>2019-11-29T06:36:02Z</time>
      </trkpt>
      <trkpt lat="59.308213" lon="18.076564">
        <ele>27</ele>
        <time>2019-11-29T06:36:04Z</time>
      </trkpt>
      <trkpt lat="59.308241" lon="18.076552">
        <ele>27</ele>
        <time>2019-11-29T06:36:04Z</time>
      </trkpt>
      <trkpt lat="59.308268" lon="18.07654">
        <ele>27</ele>
        <time>2019-11-29T06:36:05Z</time>
      </trkpt>
      <trkpt lat="59.308298" lon="18.076528">
        <ele>27</ele>
        <time>2019-11-29T06:36:07Z</time>
      </trkpt>
      <trkpt lat="59.308325" lon="18.076516">
        <ele>26</ele>
        <time>2019-11-29T06:36:07Z</time>
      </trkpt>
      <trkpt lat="59.308352" lon="18.076501">
        <ele>26</ele>
        <time>2019-11-29T06:36:09Z</time>
      </trkpt>
      <trkpt lat="59.308378" lon="18.076486">
        <ele>26</ele>
        <time>2019-11-29T06:36:09Z</time>
      </trkpt>
      <trkpt lat="59.308403" lon="18.076473">
        <ele>26</ele>
        <time>2019-11-29T06:36:11Z</time>
      </trkpt>
      <trkpt lat="59.30842" lon="18.076428">
        <ele>26</ele>
        <time>2019-11-29T06:36:11Z</time>
      </trkpt>
      <trkpt lat="59.308448" lon="18.076416">
        <ele>26</ele>
        <time>2019-11-29T06:36:12Z</time>
      </trkpt>
      <trkpt lat="59.308473" lon="18.076402">
        <ele>26</ele>
        <time>2019-11-29T06:36:14Z</time>
      </trkpt>
      <trkpt lat="59.308499" lon="18.076388">
        <ele>25</ele>
        <time>2019-11-29T06:36:14Z</time>
      </trkpt>
      <trkpt lat="59.308525" lon="18.076376">
        <ele>25</ele>
        <time>2019-11-29T06:36:15Z</time>
      </trkpt>
      <trkpt lat="59.308553" lon="18.076362">
        <ele>25</ele>
        <time>2019-11-29T06:36:16Z</time>
      </trkpt>
      <trkpt lat="59.308583" lon="18.076348">
        <ele>25</ele>
        <time>2019-11-29T06:36:17Z</time>
      </trkpt>
      <trkpt lat="59.308611" lon="18.076331">
        <ele>24</ele>
        <time>2019-11-29T06:36:19Z</time>
      </trkpt>
      <trkpt lat="59.308639" lon="18.076313">
        <ele>24</ele>
        <time>2019-11-29T06:36:19Z</time>
      </trkpt>
      <trkpt lat="59.308661" lon="18.076284">
        <ele>24</ele>
        <time>2019-11-29T06:36:20Z</time>
      </trkpt>
      <trkpt lat="59.308691" lon="18.076268">
        <ele>24</ele>
        <time>2019-11-29T06:36:22Z</time>
      </trkpt>
      <trkpt lat="59.308717" lon="18.076248">
        <ele>24</ele>
        <time>2019-11-29T06:36:22Z</time>
      </trkpt>
      <trkpt lat="59.308741" lon="18.076231">
        <ele>23</ele>
        <time>2019-11-29T06:36:23Z</time>
      </trkpt>
      <trkpt lat="59.308761" lon="18.076201">
        <ele>23</ele>
        <time>2019-11-29T06:36:25Z</time>
      </trkpt>
      <trkpt lat="59.308786" lon="18.076189">
        <ele>23</ele>
        <time>2019-11-29T06:36:25Z</time>
      </trkpt>
      <trkpt lat="59.308812" lon="18.076177">
        <ele>23</ele>
        <time>2019-11-29T06:36:26Z</time>
      </trkpt>
      <trkpt lat="59.308837" lon="18.076165">
        <ele>23</ele>
        <time>2019-11-29T06:36:28Z</time>
      </trkpt>
      <trkpt lat="59.308862" lon="18.076154">
        <ele>23</ele>
        <time>2019-11-29T06:36:28Z</time>
      </trkpt>
      <trkpt lat="59.308886" lon="18.076142">
        <ele>23</ele>
        <time>2019-11-29T06:36:29Z</time>
      </trkpt>
      <trkpt lat="59.308913" lon="18.076128">
        <ele>23</ele>
        <time>2019-11-29T06:36:31Z</time>
      </trkpt>
      <trkpt lat="59.308939" lon="18.076115">
        <ele>23</ele>
        <time>2019-11-29T06:36:31Z</time>
      </trkpt>
      <trkpt lat="59.308965" lon="18.076098">
        <ele>23</ele>
        <time>2019-11-29T06:36:32Z</time>
      </trkpt>
      <trkpt lat="59.308989" lon="18.076081">
        <ele>23</ele>
        <time>2019-11-29T06:36:33Z</time>
      </trkpt>
      <trkpt lat="59.309017" lon="18.076072">
        <ele>23</ele>
        <time>2019-11-29T06:36:34Z</time>
      </trkpt>
      <trkpt lat="59.309046" lon="18.076067">
        <ele>22</ele>
        <time>2019-11-29T06:36:35Z</time>
      </trkpt>
      <trkpt lat="59.309071" lon="18.076059">
        <ele>22</ele>
        <time>2019-11-29T06:36:36Z</time>
      </trkpt>
      <trkpt lat="59.309096" lon="18.07605">
        <ele>22</ele>
        <time>2019-11-29T06:36:37Z</time>
      </trkpt>
      <trkpt lat="59.309121" lon="18.076041">
        <ele>22</ele>
        <time>2019-11-29T06:36:39Z</time>
      </trkpt>
      <trkpt lat="59.309147" lon="18.076033">
        <ele>22</ele>
        <time>2019-11-29T06:36:39Z</time>
      </trkpt>
      <trkpt lat="59.309169" lon="18.076027">
        <ele>22</ele>
        <time>2019-11-29T06:36:41Z</time>
      </trkpt>
      <trkpt lat="59.309195" lon="18.07602">
        <ele>22</ele>
        <time>2019-11-29T06:36:41Z</time>
      </trkpt>
      <trkpt lat="59.309224" lon="18.076008">
        <ele>22</ele>
        <time>2019-11-29T06:36:42Z</time>
      </trkpt>
      <trkpt lat="59.309255" lon="18.075998">
        <ele>22</ele>
        <time>2019-11-29T06:36:44Z</time>
      </trkpt>
      <trkpt lat="59.309282" lon="18.075991">
        <ele>22</ele>
        <time>2019-11-29T06:36:44Z</time>
      </trkpt>
      <trkpt lat="59.309311" lon="18.075984">
        <ele>22</ele>
        <time>2019-11-29T06:36:45Z</time>
      </trkpt>
      <trkpt lat="59.309342" lon="18.075974">
        <ele>22</ele>
        <time>2019-11-29T06:36:47Z</time>
      </trkpt>
      <trkpt lat="59.309372" lon="18.075964">
        <ele>22</ele>
        <time>2019-11-29T06:36:47Z</time>
      </trkpt>
      <trkpt lat="59.309404" lon="18.075955">
        <ele>22</ele>
        <time>2019-11-29T06:36:49Z</time>
      </trkpt>
      <trkpt lat="59.309434" lon="18.075932">
        <ele>22</ele>
        <time>2019-11-29T06:36:49Z</time>
      </trkpt>
      <trkpt lat="59.309461" lon="18.075909">
        <ele>22</ele>
        <time>2019-11-29T06:36:50Z</time>
      </trkpt>
      <trkpt lat="59.309485" lon="18.075886">
        <ele>22</ele>
        <time>2019-11-29T06:36:52Z</time>
      </trkpt>
      <trkpt lat="59.309508" lon="18.075859">
        <ele>21</ele>
        <time>2019-11-29T06:36:52Z</time>
      </trkpt>
      <trkpt lat="59.309528" lon="18.075827">
        <ele>20</ele>
        <time>2019-11-29T06:36:53Z</time>
      </trkpt>
      <trkpt lat="59.309546" lon="18.075786">
        <ele>20</ele>
        <time>2019-11-29T06:36:55Z</time>
      </trkpt>
      <trkpt lat="59.309569" lon="18.075763">
        <ele>19</ele>
        <time>2019-11-29T06:36:55Z</time>
      </trkpt>
      <trkpt lat="59.309587" lon="18.075728">
        <ele>19</ele>
        <time>2019-11-29T06:36:56Z</time>
      </trkpt>
      <trkpt lat="59.309614" lon="18.075719">
        <ele>19</ele>
        <time>2019-11-29T06:36:58Z</time>
      </trkpt>
      <trkpt lat="59.309645" lon="18.075703">
        <ele>18</ele>
        <time>2019-11-29T06:36:58Z</time>
      </trkpt>
      <trkpt lat="59.309669" lon="18.075668">
        <ele>18</ele>
        <time>2019-11-29T06:36:59Z</time>
      </trkpt>
      <trkpt lat="59.309698" lon="18.075653">
        <ele>18</ele>
        <time>2019-11-29T06:37:01Z</time>
      </trkpt>
      <trkpt lat="59.309726" lon="18.075637">
        <ele>18</ele>
        <time>2019-11-29T06:37:01Z</time>
      </trkpt>
      <trkpt lat="59.309754" lon="18.075622">
        <ele>17</ele>
        <time>2019-11-29T06:37:02Z</time>
      </trkpt>
      <trkpt lat="59.30978" lon="18.075609">
        <ele>17</ele>
        <time>2019-11-29T06:37:04Z</time>
      </trkpt>
      <trkpt lat="59.30981" lon="18.075597">
        <ele>17</ele>
        <time>2019-11-29T06:37:04Z</time>
      </trkpt>
      <trkpt lat="59.30984" lon="18.075588">
        <ele>17</ele>
        <time>2019-11-29T06:37:06Z</time>
      </trkpt>
      <trkpt lat="59.309867" lon="18.075579">
        <ele>17</ele>
        <time>2019-11-29T06:37:06Z</time>
      </trkpt>
      <trkpt lat="59.309896" lon="18.07557">
        <ele>17</ele>
        <time>2019-11-29T06:37:07Z</time>
      </trkpt>
      <trkpt lat="59.309926" lon="18.07556">
        <ele>17</ele>
        <time>2019-11-29T06:37:08Z</time>
      </trkpt>
      <trkpt lat="59.309956" lon="18.075555">
        <ele>17</ele>
        <time>2019-11-29T06:37:10Z</time>
      </trkpt>
      <trkpt lat="59.309983" lon="18.075548">
        <ele>17</ele>
        <time>2019-11-29T06:37:10Z</time>
      </trkpt>
      <trkpt lat="59.310012" lon="18.075544">
        <ele>17</ele>
        <time>2019-11-29T06:37:12Z</time>
      </trkpt>
      <trkpt lat="59.310047" lon="18.075542">
        <ele>18</ele>
        <time>2019-11-29T06:37:12Z</time>
      </trkpt>
      <trkpt lat="59.310072" lon="18.075519">
        <ele>18</ele>
        <time>2019-11-29T06:37:13Z</time>
      </trkpt>
      <trkpt lat="59.310102" lon="18.075511">
        <ele>18</ele>
        <time>2019-11-29T06:37:15Z</time>
      </trkpt>
      <trkpt lat="59.310136" lon="18.075506">
        <ele>19</ele>
        <time>2019-11-29T06:37:15Z</time>
      </trkpt>
      <trkpt lat="59.31017" lon="18.075502">
        <ele>19</ele>
        <time>2019-11-29T06:37:16Z</time>
      </trkpt>
      <trkpt lat="59.310197" lon="18.075492">
        <ele>19</ele>
        <time>2019-11-29T06:37:18Z</time>
      </trkpt>
      <trkpt lat="59.310224" lon="18.07548">
        <ele>18</ele>
        <time>2019-11-29T06:37:18Z</time>
      </trkpt>
      <trkpt lat="59.310246" lon="18.07545">
        <ele>18</ele>
        <time>2019-11-29T06:37:19Z</time>
      </trkpt>
      <trkpt lat="59.310271" lon="18.075437">
        <ele>18</ele>
        <time>2019-11-29T06:37:21Z</time>
      </trkpt>
      <trkpt lat="59.310298" lon="18.075421">
        <ele>18</ele>
        <time>2019-11-29T06:37:21Z</time>
      </trkpt>
      <trkpt lat="59.310324" lon="18.075405">
        <ele>18</ele>
        <time>2019-11-29T06:37:22Z</time>
      </trkpt>
      <trkpt lat="59.310355" lon="18.075381">
        <ele>18</ele>
        <time>2019-11-29T06:37:23Z</time>
      </trkpt>
      <trkpt lat="59.310384" lon="18.075369">
        <ele>18</ele>
        <time>2019-11-29T06:37:25Z</time>
      </trkpt>
      <trkpt lat="59.310412" lon="18.075358">
        <ele>17</ele>
        <time>2019-11-29T06:37:25Z</time>
      </trkpt>
      <trkpt lat="59.310439" lon="18.075347">
        <ele>17</ele>
        <time>2019-11-29T06:37:27Z</time>
      </trkpt>
      <trkpt lat="59.31047" lon="18.075339">
        <ele>17</ele>
        <time>2019-11-29T06:37:27Z</time>
      </trkpt>
      <trkpt lat="59.310501" lon="18.075328">
        <ele>18</ele>
        <time>2019-11-29T06:37:28Z</time>
      </trkpt>
      <trkpt lat="59.310535" lon="18.075322">
        <ele>18</ele>
        <time>2019-11-29T06:37:30Z</time>
      </trkpt>
      <trkpt lat="59.310566" lon="18.075309">
        <ele>18</ele>
        <time>2019-11-29T06:37:30Z</time>
      </trkpt>
      <trkpt lat="59.310595" lon="18.075292">
        <ele>18</ele>
        <time>2019-11-29T06:37:32Z</time>
      </trkpt>
      <trkpt lat="59.310622" lon="18.075261">
        <ele>17</ele>
        <time>2019-11-29T06:37:32Z</time>
      </trkpt>
      <trkpt lat="59.310644" lon="18.075223">
        <ele>17</ele>
        <time>2019-11-29T06:37:33Z</time>
      </trkpt>
      <trkpt lat="59.310672" lon="18.075208">
        <ele>18</ele>
        <time>2019-11-29T06:37:35Z</time>
      </trkpt>
      <trkpt lat="59.3107" lon="18.075199">
        <ele>18</ele>
        <time>2019-11-29T06:37:35Z</time>
      </trkpt>
      <trkpt lat="59.310727" lon="18.075184">
        <ele>18</ele>
        <time>2019-11-29T06:37:36Z</time>
      </trkpt>
      <trkpt lat="59.310756" lon="18.075176">
        <ele>18</ele>
        <time>2019-11-29T06:37:37Z</time>
      </trkpt>
      <trkpt lat="59.310782" lon="18.075156">
        <ele>18</ele>
        <time>2019-11-29T06:37:38Z</time>
      </trkpt>
      <trkpt lat="59.310801" lon="18.075117">
        <ele>18</ele>
        <time>2019-11-29T06:37:40Z</time>
      </trkpt>
      <trkpt lat="59.310827" lon="18.075109">
        <ele>18</ele>
        <time>2019-11-29T06:37:40Z</time>
      </trkpt>
      <trkpt lat="59.310854" lon="18.075102">
        <ele>19</ele>
        <time>2019-11-29T06:37:42Z</time>
      </trkpt>
      <trkpt lat="59.31088" lon="18.075094">
        <ele>19</ele>
        <time>2019-11-29T06:37:43Z</time>
      </trkpt>
      <trkpt lat="59.3109" lon="18.075063">
        <ele>19</ele>
        <time>2019-11-29T06:37:44Z</time>
      </trkpt>
      <trkpt lat="59.310914" lon="18.075026">
        <ele>19</ele>
        <time>2019-11-29T06:37:44Z</time>
      </trkpt>
      <trkpt lat="59.310938" lon="18.07501">
        <ele>19</ele>
        <time>2019-11-29T06:37:46Z</time>
      </trkpt>
      <trkpt lat="59.310962" lon="18.074992">
        <ele>20</ele>
        <time>2019-11-29T06:37:46Z</time>
      </trkpt>
      <trkpt lat="59.310984" lon="18.074973">
        <ele>20</ele>
        <time>2019-11-29T06:37:47Z</time>
      </trkpt>
      <trkpt lat="59.311007" lon="18.074957">
        <ele>20</ele>
        <time>2019-11-29T06:37:49Z</time>
      </trkpt>
      <trkpt lat="59.31103" lon="18.074943">
        <ele>20</ele>
        <time>2019-11-29T06:37:49Z</time>
      </trkpt>
      <trkpt lat="59.311054" lon="18.074927">
        <ele>20</ele>
        <time>2019-11-29T06:37:51Z</time>
      </trkpt>
      <trkpt lat="59.31108" lon="18.074912">
        <ele>20</ele>
        <time>2019-11-29T06:37:51Z</time>
      </trkpt>
      <trkpt lat="59.311103" lon="18.074903">
        <ele>20</ele>
        <time>2019-11-29T06:37:52Z</time>
      </trkpt>
      <trkpt lat="59.311128" lon="18.0749">
        <ele>20</ele>
        <time>2019-11-29T06:37:53Z</time>
      </trkpt>
      <trkpt lat="59.311153" lon="18.074901">
        <ele>20</ele>
        <time>2019-11-29T06:37:54Z</time>
      </trkpt>
      <trkpt lat="59.311178" lon="18.074901">
        <ele>20</ele>
        <time>2019-11-29T06:37:55Z</time>
      </trkpt>
      <trkpt lat="59.311201" lon="18.074898">
        <ele>20</ele>
        <time>2019-11-29T06:37:57Z</time>
      </trkpt>
      <trkpt lat="59.311232" lon="18.074895">
        <ele>20</ele>
        <time>2019-11-29T06:37:57Z</time>
      </trkpt>
      <trkpt lat="59.311258" lon="18.074877">
        <ele>21</ele>
        <time>2019-11-29T06:37:59Z</time>
      </trkpt>
      <trkpt lat="59.31129" lon="18.074865">
        <ele>21</ele>
        <time>2019-11-29T06:37:59Z</time>
      </trkpt>
      <trkpt lat="59.311323" lon="18.074855">
        <ele>22</ele>
        <time>2019-11-29T06:38:00Z</time>
      </trkpt>
      <trkpt lat="59.311357" lon="18.074843">
        <ele>22</ele>
        <time>2019-11-29T06:38:02Z</time>
      </trkpt>
      <trkpt lat="59.31139" lon="18.07483">
        <ele>23</ele>
        <time>2019-11-29T06:38:03Z</time>
      </trkpt>
      <trkpt lat="59.311423" lon="18.07482">
        <ele>23</ele>
        <time>2019-11-29T06:38:03Z</time>
      </trkpt>
      <trkpt lat="59.311452" lon="18.074808">
        <ele>23</ele>
        <time>2019-11-29T06:38:04Z</time>
      </trkpt>
      <trkpt lat="59.31148" lon="18.074801">
        <ele>24</ele>
        <time>2019-11-29T06:38:06Z</time>
      </trkpt>
      <trkpt lat="59.311507" lon="18.074789">
        <ele>24</ele>
        <time>2019-11-29T06:38:06Z</time>
      </trkpt>
      <trkpt lat="59.311538" lon="18.074775">
        <ele>24</ele>
        <time>2019-11-29T06:38:08Z</time>
      </trkpt>
      <trkpt lat="59.311572" lon="18.074765">
        <ele>25</ele>
        <time>2019-11-29T06:38:08Z</time>
      </trkpt>
      <trkpt lat="59.311603" lon="18.074751">
        <ele>25</ele>
        <time>2019-11-29T06:38:09Z</time>
      </trkpt>
      <trkpt lat="59.311633" lon="18.074735">
        <ele>25</ele>
        <time>2019-11-29T06:38:11Z</time>
      </trkpt>
      <trkpt lat="59.311662" lon="18.074722">
        <ele>25</ele>
        <time>2019-11-29T06:38:11Z</time>
      </trkpt>
      <trkpt lat="59.311693" lon="18.074707">
        <ele>25</ele>
        <time>2019-11-29T06:38:12Z</time>
      </trkpt>
      <trkpt lat="59.311723" lon="18.0747">
        <ele>25</ele>
        <time>2019-11-29T06:38:13Z</time>
      </trkpt>
      <trkpt lat="59.311752" lon="18.074691">
        <ele>25</ele>
        <time>2019-11-29T06:38:14Z</time>
      </trkpt>
      <trkpt lat="59.311779" lon="18.074681">
        <ele>25</ele>
        <time>2019-11-29T06:38:16Z</time>
      </trkpt>
      <trkpt lat="59.311808" lon="18.07468">
        <ele>25</ele>
        <time>2019-11-29T06:38:16Z</time>
      </trkpt>
      <trkpt lat="59.311838" lon="18.074672">
        <ele>25</ele>
        <time>2019-11-29T06:38:17Z</time>
      </trkpt>
      <trkpt lat="59.311866" lon="18.074656">
        <ele>25</ele>
        <time>2019-11-29T06:38:19Z</time>
      </trkpt>
      <trkpt lat="59.311895" lon="18.074646">
        <ele>24</ele>
        <time>2019-11-29T06:38:19Z</time>
      </trkpt>
      <trkpt lat="59.311922" lon="18.074632">
        <ele>24</ele>
        <time>2019-11-29T06:38:20Z</time>
      </trkpt>
      <trkpt lat="59.311948" lon="18.074621">
        <ele>24</ele>
        <time>2019-11-29T06:38:22Z</time>
      </trkpt>
      <trkpt lat="59.312008" lon="18.074583">
        <ele>24</ele>
        <time>2019-11-29T06:38:23Z</time>
      </trkpt>
      <trkpt lat="59.31207" lon="18.074543">
        <ele>24</ele>
        <time>2019-11-29T06:38:26Z</time>
      </trkpt>
      <trkpt lat="59.312094" lon="18.074524">
        <ele>24</ele>
        <time>2019-11-29T06:38:26Z</time>
      </trkpt>
      <trkpt lat="59.312121" lon="18.074508">
        <ele>24</ele>
        <time>2019-11-29T06:38:27Z</time>
      </trkpt>
      <trkpt lat="59.312148" lon="18.074494">
        <ele>24</ele>
        <time>2019-11-29T06:38:28Z</time>
      </trkpt>
      <trkpt lat="59.312177" lon="18.074488">
        <ele>24</ele>
        <time>2019-11-29T06:38:29Z</time>
      </trkpt>
      <trkpt lat="59.312203" lon="18.074468">
        <ele>24</ele>
        <time>2019-11-29T06:38:31Z</time>
      </trkpt>
      <trkpt lat="59.312228" lon="18.07445">
        <ele>24</ele>
        <time>2019-11-29T06:38:31Z</time>
      </trkpt>
      <trkpt lat="59.312253" lon="18.07443">
        <ele>23</ele>
        <time>2019-11-29T06:38:32Z</time>
      </trkpt>
      <trkpt lat="59.312275" lon="18.074395">
        <ele>23</ele>
        <time>2019-11-29T06:38:34Z</time>
      </trkpt>
      <trkpt lat="59.312299" lon="18.074378">
        <ele>23</ele>
        <time>2019-11-29T06:38:34Z</time>
      </trkpt>
      <trkpt lat="59.312321" lon="18.074362">
        <ele>23</ele>
        <time>2019-11-29T06:38:35Z</time>
      </trkpt>
      <trkpt lat="59.312345" lon="18.074349">
        <ele>23</ele>
        <time>2019-11-29T06:38:37Z</time>
      </trkpt>
      <trkpt lat="59.312368" lon="18.074319">
        <ele>23</ele>
        <time>2019-11-29T06:38:37Z</time>
      </trkpt>
      <trkpt lat="59.31239" lon="18.074306">
        <ele>23</ele>
        <time>2019-11-29T06:38:38Z</time>
      </trkpt>
      <trkpt lat="59.312416" lon="18.074286">
        <ele>23</ele>
        <time>2019-11-29T06:38:40Z</time>
      </trkpt>
      <trkpt lat="59.312439" lon="18.07427">
        <ele>23</ele>
        <time>2019-11-29T06:38:41Z</time>
      </trkpt>
      <trkpt lat="59.31246" lon="18.074252">
        <ele>23</ele>
        <time>2019-11-29T06:38:41Z</time>
      </trkpt>
      <trkpt lat="59.312482" lon="18.07424">
        <ele>22</ele>
        <time>2019-11-29T06:38:43Z</time>
      </trkpt>
      <trkpt lat="59.312507" lon="18.074213">
        <ele>22</ele>
        <time>2019-11-29T06:38:43Z</time>
      </trkpt>
      <trkpt lat="59.312533" lon="18.074199">
        <ele>22</ele>
        <time>2019-11-29T06:38:44Z</time>
      </trkpt>
      <trkpt lat="59.312558" lon="18.074186">
        <ele>22</ele>
        <time>2019-11-29T06:38:46Z</time>
      </trkpt>
      <trkpt lat="59.312583" lon="18.07417">
        <ele>22</ele>
        <time>2019-11-29T06:38:46Z</time>
      </trkpt>
      <trkpt lat="59.312608" lon="18.074158">
        <ele>22</ele>
        <time>2019-11-29T06:38:47Z</time>
      </trkpt>
      <trkpt lat="59.312632" lon="18.074145">
        <ele>21</ele>
        <time>2019-11-29T06:38:48Z</time>
      </trkpt>
      <trkpt lat="59.312656" lon="18.074131">
        <ele>21</ele>
        <time>2019-11-29T06:38:49Z</time>
      </trkpt>
      <trkpt lat="59.312686" lon="18.074118">
        <ele>21</ele>
        <time>2019-11-29T06:38:51Z</time>
      </trkpt>
      <trkpt lat="59.312714" lon="18.074105">
        <ele>21</ele>
        <time>2019-11-29T06:38:51Z</time>
      </trkpt>
      <trkpt lat="59.312743" lon="18.07409">
        <ele>21</ele>
        <time>2019-11-29T06:38:52Z</time>
      </trkpt>
      <trkpt lat="59.31277" lon="18.074074">
        <ele>21</ele>
        <time>2019-11-29T06:38:54Z</time>
      </trkpt>
      <trkpt lat="59.312798" lon="18.074057">
        <ele>21</ele>
        <time>2019-11-29T06:38:54Z</time>
      </trkpt>
      <trkpt lat="59.312827" lon="18.074044">
        <ele>20</ele>
        <time>2019-11-29T06:38:55Z</time>
      </trkpt>
      <trkpt lat="59.312855" lon="18.074025">
        <ele>20</ele>
        <time>2019-11-29T06:38:57Z</time>
      </trkpt>
      <trkpt lat="59.312885" lon="18.074018">
        <ele>20</ele>
        <time>2019-11-29T06:38:57Z</time>
      </trkpt>
      <trkpt lat="59.312915" lon="18.074008">
        <ele>20</ele>
        <time>2019-11-29T06:38:58Z</time>
      </trkpt>
      <trkpt lat="59.312943" lon="18.073996">
        <ele>20</ele>
        <time>2019-11-29T06:39:00Z</time>
      </trkpt>
      <trkpt lat="59.31297" lon="18.073981">
        <ele>19</ele>
        <time>2019-11-29T06:39:01Z</time>
      </trkpt>
      <trkpt lat="59.312992" lon="18.073959">
        <ele>20</ele>
        <time>2019-11-29T06:39:01Z</time>
      </trkpt>
      <trkpt lat="59.313017" lon="18.073934">
        <ele>20</ele>
        <time>2019-11-29T06:39:02Z</time>
      </trkpt>
      <trkpt lat="59.313043" lon="18.073915">
        <ele>20</ele>
        <time>2019-11-29T06:39:04Z</time>
      </trkpt>
      <trkpt lat="59.31307" lon="18.0739">
        <ele>21</ele>
        <time>2019-11-29T06:39:04Z</time>
      </trkpt>
      <trkpt lat="59.313098" lon="18.073889">
        <ele>21</ele>
        <time>2019-11-29T06:39:05Z</time>
      </trkpt>
      <trkpt lat="59.313124" lon="18.073872">
        <ele>21</ele>
        <time>2019-11-29T06:39:06Z</time>
      </trkpt>
      <trkpt lat="59.313148" lon="18.073852">
        <ele>21</ele>
        <time>2019-11-29T06:39:07Z</time>
      </trkpt>
      <trkpt lat="59.313171" lon="18.073836">
        <ele>20</ele>
        <time>2019-11-29T06:39:09Z</time>
      </trkpt>
      <trkpt lat="59.313196" lon="18.07382">
        <ele>20</ele>
        <time>2019-11-29T06:39:09Z</time>
      </trkpt>
      <trkpt lat="59.313219" lon="18.073801">
        <ele>21</ele>
        <time>2019-11-29T06:39:10Z</time>
      </trkpt>
      <trkpt lat="59.313244" lon="18.073784">
        <ele>21</ele>
        <time>2019-11-29T06:39:12Z</time>
      </trkpt>
      <trkpt lat="59.313268" lon="18.073769">
        <ele>21</ele>
        <time>2019-11-29T06:39:12Z</time>
      </trkpt>
      <trkpt lat="59.313291" lon="18.073756">
        <ele>21</ele>
        <time>2019-11-29T06:39:13Z</time>
      </trkpt>
      <trkpt lat="59.313314" lon="18.07374">
        <ele>21</ele>
        <time>2019-11-29T06:39:15Z</time>
      </trkpt>
      <trkpt lat="59.313336" lon="18.07372">
        <ele>21</ele>
        <time>2019-11-29T06:39:15Z</time>
      </trkpt>
      <trkpt lat="59.313358" lon="18.073696">
        <ele>21</ele>
        <time>2019-11-29T06:39:16Z</time>
      </trkpt>
      <trkpt lat="59.313385" lon="18.073666">
        <ele>21</ele>
        <time>2019-11-29T06:39:18Z</time>
      </trkpt>
      <trkpt lat="59.313415" lon="18.073651">
        <ele>21</ele>
        <time>2019-11-29T06:39:19Z</time>
      </trkpt>
      <trkpt lat="59.313447" lon="18.073653">
        <ele>22</ele>
        <time>2019-11-29T06:39:20Z</time>
      </trkpt>
      <trkpt lat="59.313475" lon="18.073641">
        <ele>22</ele>
        <time>2019-11-29T06:39:20Z</time>
      </trkpt>
      <trkpt lat="59.313495" lon="18.073621">
        <ele>22</ele>
        <time>2019-11-29T06:39:21Z</time>
      </trkpt>
      <trkpt lat="59.313515" lon="18.073599">
        <ele>22</ele>
        <time>2019-11-29T06:39:23Z</time>
      </trkpt>
      <trkpt lat="59.313534" lon="18.073585">
        <ele>22</ele>
        <time>2019-11-29T06:39:23Z</time>
      </trkpt>
      <trkpt lat="59.313554" lon="18.07356">
        <ele>21</ele>
        <time>2019-11-29T06:39:24Z</time>
      </trkpt>
      <trkpt lat="59.313577" lon="18.073542">
        <ele>21</ele>
        <time>2019-11-29T06:39:25Z</time>
      </trkpt>
      <trkpt lat="59.313606" lon="18.073526">
        <ele>21</ele>
        <time>2019-11-29T06:39:26Z</time>
      </trkpt>
      <trkpt lat="59.313631" lon="18.073504">
        <ele>21</ele>
        <time>2019-11-29T06:39:28Z</time>
      </trkpt>
      <trkpt lat="59.313653" lon="18.073486">
        <ele>21</ele>
        <time>2019-11-29T06:39:28Z</time>
      </trkpt>
      <trkpt lat="59.313677" lon="18.073462">
        <ele>21</ele>
        <time>2019-11-29T06:39:29Z</time>
      </trkpt>
      <trkpt lat="59.313702" lon="18.073441">
        <ele>20</ele>
        <time>2019-11-29T06:39:31Z</time>
      </trkpt>
      <trkpt lat="59.31373" lon="18.07342">
        <ele>20</ele>
        <time>2019-11-29T06:39:31Z</time>
      </trkpt>
      <trkpt lat="59.313756" lon="18.073398">
        <ele>20</ele>
        <time>2019-11-29T06:39:32Z</time>
      </trkpt>
      <trkpt lat="59.313781" lon="18.073377">
        <ele>20</ele>
        <time>2019-11-29T06:39:34Z</time>
      </trkpt>
      <trkpt lat="59.313807" lon="18.073354">
        <ele>20</ele>
        <time>2019-11-29T06:39:35Z</time>
      </trkpt>
      <trkpt lat="59.313834" lon="18.073335">
        <ele>20</ele>
        <time>2019-11-29T06:39:35Z</time>
      </trkpt>
      <trkpt lat="59.313858" lon="18.073318">
        <ele>20</ele>
        <time>2019-11-29T06:39:37Z</time>
      </trkpt>
      <trkpt lat="59.313883" lon="18.073297">
        <ele>20</ele>
        <time>2019-11-29T06:39:38Z</time>
      </trkpt>
      <trkpt lat="59.313906" lon="18.073272">
        <ele>20</ele>
        <time>2019-11-29T06:39:39Z</time>
      </trkpt>
      <trkpt lat="59.313926" lon="18.073259">
        <ele>20</ele>
        <time>2019-11-29T06:39:39Z</time>
      </trkpt>
      <trkpt lat="59.313964" lon="18.073247">
        <ele>20</ele>
        <time>2019-11-29T06:39:42Z</time>
      </trkpt>
      <trkpt lat="59.314" lon="18.073279">
        <ele>20</ele>
        <time>2019-11-29T06:39:42Z</time>
      </trkpt>
      <trkpt lat="59.31404" lon="18.07334">
        <ele>20</ele>
        <time>2019-11-29T06:39:43Z</time>
      </trkpt>
      <trkpt lat="59.314076" lon="18.073391">
        <ele>21</ele>
        <time>2019-11-29T06:39:44Z</time>
      </trkpt>
      <trkpt lat="59.314112" lon="18.073415">
        <ele>21</ele>
        <time>2019-11-29T06:39:45Z</time>
      </trkpt>
      <trkpt lat="59.314147" lon="18.073416">
        <ele>22</ele>
        <time>2019-11-29T06:39:47Z</time>
      </trkpt>
      <trkpt lat="59.314184" lon="18.073398">
        <ele>22</ele>
        <time>2019-11-29T06:39:47Z</time>
      </trkpt>
      <trkpt lat="59.314215" lon="18.073371">
        <ele>23</ele>
        <time>2019-11-29T06:39:48Z</time>
      </trkpt>
      <trkpt lat="59.314248" lon="18.073346">
        <ele>23</ele>
        <time>2019-11-29T06:39:50Z</time>
      </trkpt>
      <trkpt lat="59.314282" lon="18.073323">
        <ele>23</ele>
        <time>2019-11-29T06:39:50Z</time>
      </trkpt>
      <trkpt lat="59.314311" lon="18.073284">
        <ele>24</ele>
        <time>2019-11-29T06:39:51Z</time>
      </trkpt>
      <trkpt lat="59.314337" lon="18.073243">
        <ele>24</ele>
        <time>2019-11-29T06:39:53Z</time>
      </trkpt>
      <trkpt lat="59.314366" lon="18.073207">
        <ele>24</ele>
        <time>2019-11-29T06:39:53Z</time>
      </trkpt>
      <trkpt lat="59.314393" lon="18.073177">
        <ele>24</ele>
        <time>2019-11-29T06:39:54Z</time>
      </trkpt>
      <trkpt lat="59.314419" lon="18.073151">
        <ele>24</ele>
        <time>2019-11-29T06:39:56Z</time>
      </trkpt>
      <trkpt lat="59.314439" lon="18.073111">
        <ele>23</ele>
        <time>2019-11-29T06:39:57Z</time>
      </trkpt>
      <trkpt lat="59.314468" lon="18.073081">
        <ele>23</ele>
        <time>2019-11-29T06:39:57Z</time>
      </trkpt>
      <trkpt lat="59.314493" lon="18.073061">
        <ele>22</ele>
        <time>2019-11-29T06:39:59Z</time>
      </trkpt>
      <trkpt lat="59.314517" lon="18.073031">
        <ele>22</ele>
        <time>2019-11-29T06:39:59Z</time>
      </trkpt>
      <trkpt lat="59.314541" lon="18.072997">
        <ele>22</ele>
        <time>2019-11-29T06:40:00Z</time>
      </trkpt>
      <trkpt lat="59.314566" lon="18.072966">
        <ele>21</ele>
        <time>2019-11-29T06:40:01Z</time>
      </trkpt>
      <trkpt lat="59.31459" lon="18.07294">
        <ele>21</ele>
        <time>2019-11-29T06:40:02Z</time>
      </trkpt>
      <trkpt lat="59.314612" lon="18.072916">
        <ele>21</ele>
        <time>2019-11-29T06:40:03Z</time>
      </trkpt>
      <trkpt lat="59.314632" lon="18.07289">
        <ele>21</ele>
        <time>2019-11-29T06:40:04Z</time>
      </trkpt>
      <trkpt lat="59.314657" lon="18.072881">
        <ele>20</ele>
        <time>2019-11-29T06:40:05Z</time>
      </trkpt>
      <trkpt lat="59.314688" lon="18.072872">
        <ele>20</ele>
        <time>2019-11-29T06:40:07Z</time>
      </trkpt>
      <trkpt lat="59.314714" lon="18.072863">
        <ele>20</ele>
        <time>2019-11-29T06:40:07Z</time>
      </trkpt>
      <trkpt lat="59.314737" lon="18.072853">
        <ele>20</ele>
        <time>2019-11-29T06:40:08Z</time>
      </trkpt>
      <trkpt lat="59.314761" lon="18.072843">
        <ele>19</ele>
        <time>2019-11-29T06:40:10Z</time>
      </trkpt>
      <trkpt lat="59.314781" lon="18.072824">
        <ele>19</ele>
        <time>2019-11-29T06:40:11Z</time>
      </trkpt>
      <trkpt lat="59.314806" lon="18.072812">
        <ele>19</ele>
        <time>2019-11-29T06:40:11Z</time>
      </trkpt>
      <trkpt lat="59.314828" lon="18.072801">
        <ele>19</ele>
        <time>2019-11-29T06:40:12Z</time>
      </trkpt>
      <trkpt lat="59.314856" lon="18.072801">
        <ele>19</ele>
        <time>2019-11-29T06:40:14Z</time>
      </trkpt>
      <trkpt lat="59.314888" lon="18.072794">
        <ele>20</ele>
        <time>2019-11-29T06:40:14Z</time>
      </trkpt>
      <trkpt lat="59.314922" lon="18.072794">
        <ele>21</ele>
        <time>2019-11-29T06:40:16Z</time>
      </trkpt>
      <trkpt lat="59.314956" lon="18.072801">
        <ele>21</ele>
        <time>2019-11-29T06:40:16Z</time>
      </trkpt>
      <trkpt lat="59.31499" lon="18.072805">
        <ele>21</ele>
        <time>2019-11-29T06:40:18Z</time>
      </trkpt>
      <trkpt lat="59.315026" lon="18.072813">
        <ele>22</ele>
        <time>2019-11-29T06:40:18Z</time>
      </trkpt>
      <trkpt lat="59.31506" lon="18.072823">
        <ele>22</ele>
        <time>2019-11-29T06:40:19Z</time>
      </trkpt>
      <trkpt lat="59.315095" lon="18.072832">
        <ele>23</ele>
        <time>2019-11-29T06:40:21Z</time>
      </trkpt>
      <trkpt lat="59.315128" lon="18.072839">
        <ele>23</ele>
        <time>2019-11-29T06:40:21Z</time>
      </trkpt>
      <trkpt lat="59.31516" lon="18.072847">
        <ele>23</ele>
        <time>2019-11-29T06:40:22Z</time>
      </trkpt>
      <trkpt lat="59.315191" lon="18.07285">
        <ele>23</ele>
        <time>2019-11-29T06:40:24Z</time>
      </trkpt>
      <trkpt lat="59.315222" lon="18.072856">
        <ele>23</ele>
        <time>2019-11-29T06:40:24Z</time>
      </trkpt>
      <trkpt lat="59.315254" lon="18.072864">
        <ele>24</ele>
        <time>2019-11-29T06:40:25Z</time>
      </trkpt>
      <trkpt lat="59.315284" lon="18.072873">
        <ele>24</ele>
        <time>2019-11-29T06:40:27Z</time>
      </trkpt>
      <trkpt lat="59.315312" lon="18.072887">
        <ele>24</ele>
        <time>2019-11-29T06:40:27Z</time>
      </trkpt>
      <trkpt lat="59.31534" lon="18.072889">
        <ele>24</ele>
        <time>2019-11-29T06:40:28Z</time>
      </trkpt>
      <trkpt lat="59.31537" lon="18.072883">
        <ele>24</ele>
        <time>2019-11-29T06:40:30Z</time>
      </trkpt>
      <trkpt lat="59.3154" lon="18.072885">
        <ele>25</ele>
        <time>2019-11-29T06:40:30Z</time>
      </trkpt>
      <trkpt lat="59.315432" lon="18.072877">
        <ele>25</ele>
        <time>2019-11-29T06:40:31Z</time>
      </trkpt>
      <trkpt lat="59.315459" lon="18.072864">
        <ele>25</ele>
        <time>2019-11-29T06:40:32Z</time>
      </trkpt>
      <trkpt lat="59.315488" lon="18.072849">
        <ele>25</ele>
        <time>2019-11-29T06:40:33Z</time>
      </trkpt>
      <trkpt lat="59.31552" lon="18.072831">
        <ele>25</ele>
        <time>2019-11-29T06:40:35Z</time>
      </trkpt>
      <trkpt lat="59.31555" lon="18.072811">
        <ele>25</ele>
        <time>2019-11-29T06:40:35Z</time>
      </trkpt>
      <trkpt lat="59.31558" lon="18.072791">
        <ele>25</ele>
        <time>2019-11-29T06:40:36Z</time>
      </trkpt>
      <trkpt lat="59.315605" lon="18.072767">
        <ele>25</ele>
        <time>2019-11-29T06:40:38Z</time>
      </trkpt>
      <trkpt lat="59.315632" lon="18.07275">
        <ele>25</ele>
        <time>2019-11-29T06:40:38Z</time>
      </trkpt>
      <trkpt lat="59.315658" lon="18.072729">
        <ele>25</ele>
        <time>2019-11-29T06:40:39Z</time>
      </trkpt>
      <trkpt lat="59.315679" lon="18.072698">
        <ele>25</ele>
        <time>2019-11-29T06:40:40Z</time>
      </trkpt>
      <trkpt lat="59.315699" lon="18.072662">
        <ele>25</ele>
        <time>2019-11-29T06:40:41Z</time>
      </trkpt>
      <trkpt lat="59.31572" lon="18.072623">
        <ele>25</ele>
        <time>2019-11-29T06:40:43Z</time>
      </trkpt>
      <trkpt lat="59.315746" lon="18.072594">
        <ele>25</ele>
        <time>2019-11-29T06:40:44Z</time>
      </trkpt>
      <trkpt lat="59.315772" lon="18.07258">
        <ele>25</ele>
        <time>2019-11-29T06:40:44Z</time>
      </trkpt>
      <trkpt lat="59.315799" lon="18.072559">
        <ele>25</ele>
        <time>2019-11-29T06:40:45Z</time>
      </trkpt>
      <trkpt lat="59.315822" lon="18.072534">
        <ele>25</ele>
        <time>2019-11-29T06:40:47Z</time>
      </trkpt>
      <trkpt lat="59.315844" lon="18.072511">
        <ele>25</ele>
        <time>2019-11-29T06:40:47Z</time>
      </trkpt>
      <trkpt lat="59.315868" lon="18.072486">
        <ele>26</ele>
        <time>2019-11-29T06:40:48Z</time>
      </trkpt>
      <trkpt lat="59.315888" lon="18.07246">
        <ele>26</ele>
        <time>2019-11-29T06:40:49Z</time>
      </trkpt>
      <trkpt lat="59.31591" lon="18.072437">
        <ele>26</ele>
        <time>2019-11-29T06:40:50Z</time>
      </trkpt>
      <trkpt lat="59.315937" lon="18.072424">
        <ele>26</ele>
        <time>2019-11-29T06:40:52Z</time>
      </trkpt>
      <trkpt lat="59.315963" lon="18.072415">
        <ele>26</ele>
        <time>2019-11-29T06:40:52Z</time>
      </trkpt>
      <trkpt lat="59.315986" lon="18.072397">
        <ele>26</ele>
        <time>2019-11-29T06:40:54Z</time>
      </trkpt>
      <trkpt lat="59.316014" lon="18.072382">
        <ele>26</ele>
        <time>2019-11-29T06:40:54Z</time>
      </trkpt>
      <trkpt lat="59.316038" lon="18.072366">
        <ele>26</ele>
        <time>2019-11-29T06:40:56Z</time>
      </trkpt>
      <trkpt lat="59.316064" lon="18.07235">
        <ele>26</ele>
        <time>2019-11-29T06:40:56Z</time>
      </trkpt>
      <trkpt lat="59.316088" lon="18.072336">
        <ele>26</ele>
        <time>2019-11-29T06:40:57Z</time>
      </trkpt>
      <trkpt lat="59.316112" lon="18.072319">
        <ele>26</ele>
        <time>2019-11-29T06:40:58Z</time>
      </trkpt>
      <trkpt lat="59.316133" lon="18.072302">
        <ele>26</ele>
        <time>2019-11-29T06:40:59Z</time>
      </trkpt>
      <trkpt lat="59.316223" lon="18.072224">
        <ele>26</ele>
        <time>2019-11-29T06:41:04Z</time>
      </trkpt>
      <trkpt lat="59.316245" lon="18.072211">
        <ele>26</ele>
        <time>2019-11-29T06:41:05Z</time>
      </trkpt>
      <trkpt lat="59.316268" lon="18.07219">
        <ele>26</ele>
        <time>2019-11-29T06:41:05Z</time>
      </trkpt>
      <trkpt lat="59.31629" lon="18.072168">
        <ele>26</ele>
        <time>2019-11-29T06:41:06Z</time>
      </trkpt>
      <trkpt lat="59.316312" lon="18.07215">
        <ele>26</ele>
        <time>2019-11-29T06:41:07Z</time>
      </trkpt>
      <trkpt lat="59.316335" lon="18.072131">
        <ele>26</ele>
        <time>2019-11-29T06:41:08Z</time>
      </trkpt>
      <trkpt lat="59.316362" lon="18.072117">
        <ele>26</ele>
        <time>2019-11-29T06:41:10Z</time>
      </trkpt>
      <trkpt lat="59.316385" lon="18.072102">
        <ele>26</ele>
        <time>2019-11-29T06:41:10Z</time>
      </trkpt>
      <trkpt lat="59.316409" lon="18.072087">
        <ele>27</ele>
        <time>2019-11-29T06:41:11Z</time>
      </trkpt>
      <trkpt lat="59.316438" lon="18.072082">
        <ele>27</ele>
        <time>2019-11-29T06:41:13Z</time>
      </trkpt>
      <trkpt lat="59.316466" lon="18.072076">
        <ele>28</ele>
        <time>2019-11-29T06:41:13Z</time>
      </trkpt>
      <trkpt lat="59.316497" lon="18.072073">
        <ele>28</ele>
        <time>2019-11-29T06:41:14Z</time>
      </trkpt>
      <trkpt lat="59.316522" lon="18.072062">
        <ele>28</ele>
        <time>2019-11-29T06:41:16Z</time>
      </trkpt>
      <trkpt lat="59.316543" lon="18.072053">
        <ele>28</ele>
        <time>2019-11-29T06:41:16Z</time>
      </trkpt>
      <trkpt lat="59.316562" lon="18.072051">
        <ele>28</ele>
        <time>2019-11-29T06:41:18Z</time>
      </trkpt>
      <trkpt lat="59.316582" lon="18.072056">
        <ele>29</ele>
        <time>2019-11-29T06:41:18Z</time>
      </trkpt>
      <trkpt lat="59.316606" lon="18.07206">
        <ele>29</ele>
        <time>2019-11-29T06:41:19Z</time>
      </trkpt>
      <trkpt lat="59.316635" lon="18.072058">
        <ele>29</ele>
        <time>2019-11-29T06:41:21Z</time>
      </trkpt>
      <trkpt lat="59.316663" lon="18.072056">
        <ele>29</ele>
        <time>2019-11-29T06:41:21Z</time>
      </trkpt>
      <trkpt lat="59.316692" lon="18.072051">
        <ele>29</ele>
        <time>2019-11-29T06:41:23Z</time>
      </trkpt>
      <trkpt lat="59.31672" lon="18.072046">
        <ele>29</ele>
        <time>2019-11-29T06:41:23Z</time>
      </trkpt>
      <trkpt lat="59.31675" lon="18.072047">
        <ele>29</ele>
        <time>2019-11-29T06:41:24Z</time>
      </trkpt>
      <trkpt lat="59.316776" lon="18.072033">
        <ele>29</ele>
        <time>2019-11-29T06:41:26Z</time>
      </trkpt>
      <trkpt lat="59.316804" lon="18.072024">
        <ele>28</ele>
        <time>2019-11-29T06:41:26Z</time>
      </trkpt>
      <trkpt lat="59.31683" lon="18.07201">
        <ele>28</ele>
        <time>2019-11-29T06:41:27Z</time>
      </trkpt>
      <trkpt lat="59.316855" lon="18.071994">
        <ele>28</ele>
        <time>2019-11-29T06:41:28Z</time>
      </trkpt>
      <trkpt lat="59.316884" lon="18.071972">
        <ele>28</ele>
        <time>2019-11-29T06:41:29Z</time>
      </trkpt>
      <trkpt lat="59.316908" lon="18.07195">
        <ele>28</ele>
        <time>2019-11-29T06:41:30Z</time>
      </trkpt>
      <trkpt lat="59.316931" lon="18.071927">
        <ele>28</ele>
        <time>2019-11-29T06:41:32Z</time>
      </trkpt>
      <trkpt lat="59.316956" lon="18.071906">
        <ele>28</ele>
        <time>2019-11-29T06:41:32Z</time>
      </trkpt>
      <trkpt lat="59.316983" lon="18.071883">
        <ele>28</ele>
        <time>2019-11-29T06:41:33Z</time>
      </trkpt>
      <trkpt lat="59.317004" lon="18.071855">
        <ele>28</ele>
        <time>2019-11-29T06:41:35Z</time>
      </trkpt>
      <trkpt lat="59.317029" lon="18.071833">
        <ele>28</ele>
        <time>2019-11-29T06:41:35Z</time>
      </trkpt>
      <trkpt lat="59.317052" lon="18.071811">
        <ele>28</ele>
        <time>2019-11-29T06:41:36Z</time>
      </trkpt>
      <trkpt lat="59.317075" lon="18.071787">
        <ele>28</ele>
        <time>2019-11-29T06:41:37Z</time>
      </trkpt>
      <trkpt lat="59.317105" lon="18.071775">
        <ele>28</ele>
        <time>2019-11-29T06:41:38Z</time>
      </trkpt>
      <trkpt lat="59.317131" lon="18.071758">
        <ele>29</ele>
        <time>2019-11-29T06:41:40Z</time>
      </trkpt>
      <trkpt lat="59.317157" lon="18.071743">
        <ele>29</ele>
        <time>2019-11-29T06:41:41Z</time>
      </trkpt>
      <trkpt lat="59.317182" lon="18.071722">
        <ele>30</ele>
        <time>2019-11-29T06:41:41Z</time>
      </trkpt>
      <trkpt lat="59.31721" lon="18.071707">
        <ele>30</ele>
        <time>2019-11-29T06:41:42Z</time>
      </trkpt>
      <trkpt lat="59.317228" lon="18.071684">
        <ele>30</ele>
        <time>2019-11-29T06:41:44Z</time>
      </trkpt>
      <trkpt lat="59.317249" lon="18.071668">
        <ele>30</ele>
        <time>2019-11-29T06:41:44Z</time>
      </trkpt>
      <trkpt lat="59.317271" lon="18.07166">
        <ele>30</ele>
        <time>2019-11-29T06:41:45Z</time>
      </trkpt>
      <trkpt lat="59.317295" lon="18.071655">
        <ele>30</ele>
        <time>2019-11-29T06:41:46Z</time>
      </trkpt>
      <trkpt lat="59.317318" lon="18.071649">
        <ele>30</ele>
        <time>2019-11-29T06:41:47Z</time>
      </trkpt>
      <trkpt lat="59.317343" lon="18.071643">
        <ele>30</ele>
        <time>2019-11-29T06:41:49Z</time>
      </trkpt>
      <trkpt lat="59.317367" lon="18.071633">
        <ele>30</ele>
        <time>2019-11-29T06:41:49Z</time>
      </trkpt>
      <trkpt lat="59.317393" lon="18.071621">
        <ele>30</ele>
        <time>2019-11-29T06:41:51Z</time>
      </trkpt>
      <trkpt lat="59.317416" lon="18.071616">
        <ele>30</ele>
        <time>2019-11-29T06:41:51Z</time>
      </trkpt>
      <trkpt lat="59.317438" lon="18.071611">
        <ele>30</ele>
        <time>2019-11-29T06:41:53Z</time>
      </trkpt>
      <trkpt lat="59.317461" lon="18.071603">
        <ele>30</ele>
        <time>2019-11-29T06:41:53Z</time>
      </trkpt>
      <trkpt lat="59.317483" lon="18.071595">
        <ele>30</ele>
        <time>2019-11-29T06:41:54Z</time>
      </trkpt>
      <trkpt lat="59.317504" lon="18.071581">
        <ele>30</ele>
        <time>2019-11-29T06:41:56Z</time>
      </trkpt>
      <trkpt lat="59.317529" lon="18.071574">
        <ele>30</ele>
        <time>2019-11-29T06:41:56Z</time>
      </trkpt>
      <trkpt lat="59.317556" lon="18.071564">
        <ele>30</ele>
        <time>2019-11-29T06:41:57Z</time>
      </trkpt>
      <trkpt lat="59.31758" lon="18.071554">
        <ele>29</ele>
        <time>2019-11-29T06:41:59Z</time>
      </trkpt>
      <trkpt lat="59.317607" lon="18.071546">
        <ele>29</ele>
        <time>2019-11-29T06:41:59Z</time>
      </trkpt>
      <trkpt lat="59.317634" lon="18.071531">
        <ele>29</ele>
        <time>2019-11-29T06:42:00Z</time>
      </trkpt>
      <trkpt lat="59.317662" lon="18.071513">
        <ele>29</ele>
        <time>2019-11-29T06:42:02Z</time>
      </trkpt>
      <trkpt lat="59.317693" lon="18.071505">
        <ele>29</ele>
        <time>2019-11-29T06:42:02Z</time>
      </trkpt>
      <trkpt lat="59.317717" lon="18.071489">
        <ele>29</ele>
        <time>2019-11-29T06:42:03Z</time>
      </trkpt>
      <trkpt lat="59.317739" lon="18.07147">
        <ele>29</ele>
        <time>2019-11-29T06:42:05Z</time>
      </trkpt>
      <trkpt lat="59.317793" lon="18.071449">
        <ele>29</ele>
        <time>2019-11-29T06:42:06Z</time>
      </trkpt>
      <trkpt lat="59.317821" lon="18.071439">
        <ele>29</ele>
        <time>2019-11-29T06:42:07Z</time>
      </trkpt>
      <trkpt lat="59.317847" lon="18.071421">
        <ele>29</ele>
        <time>2019-11-29T06:42:08Z</time>
      </trkpt>
      <trkpt lat="59.317873" lon="18.071411">
        <ele>29</ele>
        <time>2019-11-29T06:42:10Z</time>
      </trkpt>
      <trkpt lat="59.317896" lon="18.071401">
        <ele>29</ele>
        <time>2019-11-29T06:42:11Z</time>
      </trkpt>
      <trkpt lat="59.317921" lon="18.071395">
        <ele>30</ele>
        <time>2019-11-29T06:42:11Z</time>
      </trkpt>
      <trkpt lat="59.317947" lon="18.07139">
        <ele>30</ele>
        <time>2019-11-29T06:42:12Z</time>
      </trkpt>
      <trkpt lat="59.31797" lon="18.071375">
        <ele>30</ele>
        <time>2019-11-29T06:42:13Z</time>
      </trkpt>
      <trkpt lat="59.318001" lon="18.07138">
        <ele>30</ele>
        <time>2019-11-29T06:42:14Z</time>
      </trkpt>
      <trkpt lat="59.31803" lon="18.071368">
        <ele>31</ele>
        <time>2019-11-29T06:42:16Z</time>
      </trkpt>
      <trkpt lat="59.318054" lon="18.07135">
        <ele>31</ele>
        <time>2019-11-29T06:42:16Z</time>
      </trkpt>
      <trkpt lat="59.318079" lon="18.071338">
        <ele>31</ele>
        <time>2019-11-29T06:42:17Z</time>
      </trkpt>
      <trkpt lat="59.318107" lon="18.071325">
        <ele>31</ele>
        <time>2019-11-29T06:42:19Z</time>
      </trkpt>
      <trkpt lat="59.318134" lon="18.071315">
        <ele>32</ele>
        <time>2019-11-29T06:42:20Z</time>
      </trkpt>
      <trkpt lat="59.318164" lon="18.071301">
        <ele>32</ele>
        <time>2019-11-29T06:42:20Z</time>
      </trkpt>
      <trkpt lat="59.31819" lon="18.071294">
        <ele>32</ele>
        <time>2019-11-29T06:42:21Z</time>
      </trkpt>
      <trkpt lat="59.318218" lon="18.071283">
        <ele>32</ele>
        <time>2019-11-29T06:42:23Z</time>
      </trkpt>
      <trkpt lat="59.318244" lon="18.07127">
        <ele>32</ele>
        <time>2019-11-29T06:42:23Z</time>
      </trkpt>
      <trkpt lat="59.318271" lon="18.07126">
        <ele>33</ele>
        <time>2019-11-29T06:42:24Z</time>
      </trkpt>
      <trkpt lat="59.318295" lon="18.07125">
        <ele>32</ele>
        <time>2019-11-29T06:42:25Z</time>
      </trkpt>
      <trkpt lat="59.318322" lon="18.07124">
        <ele>32</ele>
        <time>2019-11-29T06:42:26Z</time>
      </trkpt>
      <trkpt lat="59.318404" lon="18.071165">
        <ele>32</ele>
        <time>2019-11-29T06:42:29Z</time>
      </trkpt>
      <trkpt lat="59.318514" lon="18.07104">
        <ele>33</ele>
        <time>2019-11-29T06:42:32Z</time>
      </trkpt>
      <trkpt lat="59.318578" lon="18.070955">
        <ele>33</ele>
        <time>2019-11-29T06:42:35Z</time>
      </trkpt>
      <trkpt lat="59.318599" lon="18.07091">
        <ele>33</ele>
        <time>2019-11-29T06:42:35Z</time>
      </trkpt>
      <trkpt lat="59.318624" lon="18.070875">
        <ele>33</ele>
        <time>2019-11-29T06:42:36Z</time>
      </trkpt>
      <trkpt lat="59.318649" lon="18.070839">
        <ele>33</ele>
        <time>2019-11-29T06:42:38Z</time>
      </trkpt>
      <trkpt lat="59.318681" lon="18.070833">
        <ele>33</ele>
        <time>2019-11-29T06:42:38Z</time>
      </trkpt>
      <trkpt lat="59.318706" lon="18.070827">
        <ele>33</ele>
        <time>2019-11-29T06:42:39Z</time>
      </trkpt>
      <trkpt lat="59.318731" lon="18.070822">
        <ele>33</ele>
        <time>2019-11-29T06:42:40Z</time>
      </trkpt>
      <trkpt lat="59.318761" lon="18.07082">
        <ele>33</ele>
        <time>2019-11-29T06:42:41Z</time>
      </trkpt>
      <trkpt lat="59.318792" lon="18.070818">
        <ele>34</ele>
        <time>2019-11-29T06:42:43Z</time>
      </trkpt>
      <trkpt lat="59.318824" lon="18.070822">
        <ele>34</ele>
        <time>2019-11-29T06:42:43Z</time>
      </trkpt>
      <trkpt lat="59.318856" lon="18.070823">
        <ele>34</ele>
        <time>2019-11-29T06:42:44Z</time>
      </trkpt>
      <trkpt lat="59.318884" lon="18.070811">
        <ele>34</ele>
        <time>2019-11-29T06:42:46Z</time>
      </trkpt>
      <trkpt lat="59.318914" lon="18.070792">
        <ele>34</ele>
        <time>2019-11-29T06:42:46Z</time>
      </trkpt>
      <trkpt lat="59.318944" lon="18.070782">
        <ele>33</ele>
        <time>2019-11-29T06:42:48Z</time>
      </trkpt>
      <trkpt lat="59.318973" lon="18.070777">
        <ele>33</ele>
        <time>2019-11-29T06:42:48Z</time>
      </trkpt>
      <trkpt lat="59.318999" lon="18.070768">
        <ele>33</ele>
        <time>2019-11-29T06:42:50Z</time>
      </trkpt>
      <trkpt lat="59.319026" lon="18.070754">
        <ele>33</ele>
        <time>2019-11-29T06:42:50Z</time>
      </trkpt>
      <trkpt lat="59.319055" lon="18.070744">
        <ele>33</ele>
        <time>2019-11-29T06:42:52Z</time>
      </trkpt>
      <trkpt lat="59.319086" lon="18.070741">
        <ele>33</ele>
        <time>2019-11-29T06:42:52Z</time>
      </trkpt>
      <trkpt lat="59.319119" lon="18.070731">
        <ele>33</ele>
        <time>2019-11-29T06:42:53Z</time>
      </trkpt>
      <trkpt lat="59.319153" lon="18.070726">
        <ele>32</ele>
        <time>2019-11-29T06:42:55Z</time>
      </trkpt>
      <trkpt lat="59.319185" lon="18.070714">
        <ele>32</ele>
        <time>2019-11-29T06:42:55Z</time>
      </trkpt>
      <trkpt lat="59.319215" lon="18.070697">
        <ele>32</ele>
        <time>2019-11-29T06:42:56Z</time>
      </trkpt>
      <trkpt lat="59.319248" lon="18.070686">
        <ele>33</ele>
        <time>2019-11-29T06:42:57Z</time>
      </trkpt>
      <trkpt lat="59.319282" lon="18.070671">
        <ele>33</ele>
        <time>2019-11-29T06:42:58Z</time>
      </trkpt>
      <trkpt lat="59.319316" lon="18.070664">
        <ele>33</ele>
        <time>2019-11-29T06:43:00Z</time>
      </trkpt>
      <trkpt lat="59.319343" lon="18.07066">
        <ele>33</ele>
        <time>2019-11-29T06:43:00Z</time>
      </trkpt>
      <trkpt lat="59.319366" lon="18.070654">
        <ele>33</ele>
        <time>2019-11-29T06:43:01Z</time>
      </trkpt>
      <trkpt lat="59.319388" lon="18.070642">
        <ele>32</ele>
        <time>2019-11-29T06:43:03Z</time>
      </trkpt>
      <trkpt lat="59.319409" lon="18.070636">
        <ele>33</ele>
        <time>2019-11-29T06:43:03Z</time>
      </trkpt>
      <trkpt lat="59.319434" lon="18.070632">
        <ele>33</ele>
        <time>2019-11-29T06:43:04Z</time>
      </trkpt>
      <trkpt lat="59.319462" lon="18.070631">
        <ele>33</ele>
        <time>2019-11-29T06:43:06Z</time>
      </trkpt>
      <trkpt lat="59.31949" lon="18.070625">
        <ele>32</ele>
        <time>2019-11-29T06:43:07Z</time>
      </trkpt>
      <trkpt lat="59.319517" lon="18.070619">
        <ele>32</ele>
        <time>2019-11-29T06:43:07Z</time>
      </trkpt>
      <trkpt lat="59.319548" lon="18.070604">
        <ele>32</ele>
        <time>2019-11-29T06:43:09Z</time>
      </trkpt>
      <trkpt lat="59.31958" lon="18.070572">
        <ele>31</ele>
        <time>2019-11-29T06:43:09Z</time>
      </trkpt>
      <trkpt lat="59.319614" lon="18.070531">
        <ele>31</ele>
        <time>2019-11-29T06:43:10Z</time>
      </trkpt>
      <trkpt lat="59.319646" lon="18.070504">
        <ele>30</ele>
        <time>2019-11-29T06:43:12Z</time>
      </trkpt>
      <trkpt lat="59.319674" lon="18.070483">
        <ele>30</ele>
        <time>2019-11-29T06:43:12Z</time>
      </trkpt>
      <trkpt lat="59.319701" lon="18.07047">
        <ele>30</ele>
        <time>2019-11-29T06:43:13Z</time>
      </trkpt>
      <trkpt lat="59.319727" lon="18.070456">
        <ele>31</ele>
        <time>2019-11-29T06:43:15Z</time>
      </trkpt>
      <trkpt lat="59.31975" lon="18.070439">
        <ele>31</ele>
        <time>2019-11-29T06:43:15Z</time>
      </trkpt>
      <trkpt lat="59.319775" lon="18.070431">
        <ele>31</ele>
        <time>2019-11-29T06:43:16Z</time>
      </trkpt>
      <trkpt lat="59.319806" lon="18.070444">
        <ele>30</ele>
        <time>2019-11-29T06:43:18Z</time>
      </trkpt>
      <trkpt lat="59.319841" lon="18.070493">
        <ele>30</ele>
        <time>2019-11-29T06:43:18Z</time>
      </trkpt>
      <trkpt lat="59.319874" lon="18.070582">
        <ele>30</ele>
        <time>2019-11-29T06:43:19Z</time>
      </trkpt>
      <trkpt lat="59.319897" lon="18.070675">
        <ele>29</ele>
        <time>2019-11-29T06:43:21Z</time>
      </trkpt>
      <trkpt lat="59.319922" lon="18.070745">
        <ele>29</ele>
        <time>2019-11-29T06:43:21Z</time>
      </trkpt>
      <trkpt lat="59.319952" lon="18.070805">
        <ele>28</ele>
        <time>2019-11-29T06:43:23Z</time>
      </trkpt>
      <trkpt lat="59.319973" lon="18.070872">
        <ele>28</ele>
        <time>2019-11-29T06:43:23Z</time>
      </trkpt>
      <trkpt lat="59.319992" lon="18.070932">
        <ele>27</ele>
        <time>2019-11-29T06:43:25Z</time>
      </trkpt>
      <trkpt lat="59.32001" lon="18.070988">
        <ele>27</ele>
        <time>2019-11-29T06:43:26Z</time>
      </trkpt>
      <trkpt lat="59.320019" lon="18.071027">
        <ele>28</ele>
        <time>2019-11-29T06:43:26Z</time>
      </trkpt>
      <trkpt lat="59.32003" lon="18.071056">
        <ele>27</ele>
        <time>2019-11-29T06:43:28Z</time>
      </trkpt>
      <trkpt lat="59.320046" lon="18.071083">
        <ele>27</ele>
        <time>2019-11-29T06:43:28Z</time>
      </trkpt>
      <trkpt lat="59.32007" lon="18.071101">
        <ele>27</ele>
        <time>2019-11-29T06:43:29Z</time>
      </trkpt>
      <trkpt lat="59.3201" lon="18.071122">
        <ele>27</ele>
        <time>2019-11-29T06:43:31Z</time>
      </trkpt>
      <trkpt lat="59.320131" lon="18.071134">
        <ele>27</ele>
        <time>2019-11-29T06:43:31Z</time>
      </trkpt>
      <trkpt lat="59.320163" lon="18.071146">
        <ele>27</ele>
        <time>2019-11-29T06:43:32Z</time>
      </trkpt>
      <trkpt lat="59.320191" lon="18.07116">
        <ele>27</ele>
        <time>2019-11-29T06:43:34Z</time>
      </trkpt>
      <trkpt lat="59.320221" lon="18.071175">
        <ele>27</ele>
        <time>2019-11-29T06:43:34Z</time>
      </trkpt>
      <trkpt lat="59.320249" lon="18.0712">
        <ele>27</ele>
        <time>2019-11-29T06:43:35Z</time>
      </trkpt>
      <trkpt lat="59.320272" lon="18.071241">
        <ele>26</ele>
        <time>2019-11-29T06:43:37Z</time>
      </trkpt>
      <trkpt lat="59.320293" lon="18.071285">
        <ele>26</ele>
        <time>2019-11-29T06:43:37Z</time>
      </trkpt>
      <trkpt lat="59.320314" lon="18.071323">
        <ele>26</ele>
        <time>2019-11-29T06:43:39Z</time>
      </trkpt>
      <trkpt lat="59.320339" lon="18.071359">
        <ele>25</ele>
        <time>2019-11-29T06:43:40Z</time>
      </trkpt>
      <trkpt lat="59.320364" lon="18.071388">
        <ele>25</ele>
        <time>2019-11-29T06:43:40Z</time>
      </trkpt>
      <trkpt lat="59.32039" lon="18.07141">
        <ele>25</ele>
        <time>2019-11-29T06:43:41Z</time>
      </trkpt>
      <trkpt lat="59.320417" lon="18.071426">
        <ele>24</ele>
        <time>2019-11-29T06:43:43Z</time>
      </trkpt>
      <trkpt lat="59.320444" lon="18.071442">
        <ele>24</ele>
        <time>2019-11-29T06:43:43Z</time>
      </trkpt>
      <trkpt lat="59.320468" lon="18.071453">
        <ele>24</ele>
        <time>2019-11-29T06:43:45Z</time>
      </trkpt>
      <trkpt lat="59.320494" lon="18.071462">
        <ele>23</ele>
        <time>2019-11-29T06:43:45Z</time>
      </trkpt>
      <trkpt lat="59.320521" lon="18.071465">
        <ele>23</ele>
        <time>2019-11-29T06:43:47Z</time>
      </trkpt>
      <trkpt lat="59.320548" lon="18.071468">
        <ele>23</ele>
        <time>2019-11-29T06:43:47Z</time>
      </trkpt>
      <trkpt lat="59.320575" lon="18.071467">
        <ele>22</ele>
        <time>2019-11-29T06:43:48Z</time>
      </trkpt>
      <trkpt lat="59.320603" lon="18.07147">
        <ele>22</ele>
        <time>2019-11-29T06:43:50Z</time>
      </trkpt>
      <trkpt lat="59.320629" lon="18.071474">
        <ele>22</ele>
        <time>2019-11-29T06:43:50Z</time>
      </trkpt>
      <trkpt lat="59.320657" lon="18.071484">
        <ele>21</ele>
        <time>2019-11-29T06:43:51Z</time>
      </trkpt>
      <trkpt lat="59.320686" lon="18.0715">
        <ele>21</ele>
        <time>2019-11-29T06:43:52Z</time>
      </trkpt>
      <trkpt lat="59.320714" lon="18.071519">
        <ele>21</ele>
        <time>2019-11-29T06:43:53Z</time>
      </trkpt>
      <trkpt lat="59.320742" lon="18.071542">
        <ele>21</ele>
        <time>2019-11-29T06:43:55Z</time>
      </trkpt>
      <trkpt lat="59.320767" lon="18.071575">
        <ele>21</ele>
        <time>2019-11-29T06:43:55Z</time>
      </trkpt>
      <trkpt lat="59.320788" lon="18.071621">
        <ele>21</ele>
        <time>2019-11-29T06:43:57Z</time>
      </trkpt>
      <trkpt lat="59.320806" lon="18.071675">
        <ele>21</ele>
        <time>2019-11-29T06:43:57Z</time>
      </trkpt>
      <trkpt lat="59.320821" lon="18.071732">
        <ele>20</ele>
        <time>2019-11-29T06:43:58Z</time>
      </trkpt>
      <trkpt lat="59.320834" lon="18.071791">
        <ele>20</ele>
        <time>2019-11-29T06:44:00Z</time>
      </trkpt>
      <trkpt lat="59.320847" lon="18.071847">
        <ele>20</ele>
        <time>2019-11-29T06:44:00Z</time>
      </trkpt>
      <trkpt lat="59.320862" lon="18.0719">
        <ele>20</ele>
        <time>2019-11-29T06:44:01Z</time>
      </trkpt>
      <trkpt lat="59.320876" lon="18.071955">
        <ele>20</ele>
        <time>2019-11-29T06:44:02Z</time>
      </trkpt>
      <trkpt lat="59.320892" lon="18.072008">
        <ele>20</ele>
        <time>2019-11-29T06:44:04Z</time>
      </trkpt>
      <trkpt lat="59.320909" lon="18.072056">
        <ele>20</ele>
        <time>2019-11-29T06:44:04Z</time>
      </trkpt>
      <trkpt lat="59.320929" lon="18.072097">
        <ele>19</ele>
        <time>2019-11-29T06:44:05Z</time>
      </trkpt>
      <trkpt lat="59.320952" lon="18.072132">
        <ele>19</ele>
        <time>2019-11-29T06:44:06Z</time>
      </trkpt>
      <trkpt lat="59.320978" lon="18.07216">
        <ele>19</ele>
        <time>2019-11-29T06:44:07Z</time>
      </trkpt>
      <trkpt lat="59.321005" lon="18.072182">
        <ele>19</ele>
        <time>2019-11-29T06:44:08Z</time>
      </trkpt>
      <trkpt lat="59.321033" lon="18.072203">
        <ele>18</ele>
        <time>2019-11-29T06:44:09Z</time>
      </trkpt>
      <trkpt lat="59.321061" lon="18.072225">
        <ele>18</ele>
        <time>2019-11-29T06:44:10Z</time>
      </trkpt>
      <trkpt lat="59.321089" lon="18.072248">
        <ele>18</ele>
        <time>2019-11-29T06:44:11Z</time>
      </trkpt>
      <trkpt lat="59.321118" lon="18.072274">
        <ele>17</ele>
        <time>2019-11-29T06:44:13Z</time>
      </trkpt>
      <trkpt lat="59.321147" lon="18.072296">
        <ele>17</ele>
        <time>2019-11-29T06:44:13Z</time>
      </trkpt>
      <trkpt lat="59.321176" lon="18.072321">
        <ele>17</ele>
        <time>2019-11-29T06:44:14Z</time>
      </trkpt>
      <trkpt lat="59.321205" lon="18.072344">
        <ele>17</ele>
        <time>2019-11-29T06:44:15Z</time>
      </trkpt>
      <trkpt lat="59.321235" lon="18.072365">
        <ele>16</ele>
        <time>2019-11-29T06:44:16Z</time>
      </trkpt>
      <trkpt lat="59.321265" lon="18.072383">
        <ele>16</ele>
        <time>2019-11-29T06:44:17Z</time>
      </trkpt>
      <trkpt lat="59.321294" lon="18.072403">
        <ele>16</ele>
        <time>2019-11-29T06:44:18Z</time>
      </trkpt>
      <trkpt lat="59.321324" lon="18.072426">
        <ele>15</ele>
        <time>2019-11-29T06:44:19Z</time>
      </trkpt>
      <trkpt lat="59.321353" lon="18.072446">
        <ele>15</ele>
        <time>2019-11-29T06:44:20Z</time>
      </trkpt>
      <trkpt lat="59.321383" lon="18.07247">
        <ele>15</ele>
        <time>2019-11-29T06:44:21Z</time>
      </trkpt>
      <trkpt lat="59.321412" lon="18.072493">
        <ele>15</ele>
        <time>2019-11-29T06:44:23Z</time>
      </trkpt>
      <trkpt lat="59.321442" lon="18.072515">
        <ele>15</ele>
        <time>2019-11-29T06:44:23Z</time>
      </trkpt>
      <trkpt lat="59.32147" lon="18.072537">
        <ele>14</ele>
        <time>2019-11-29T06:44:25Z</time>
      </trkpt>
      <trkpt lat="59.321498" lon="18.072559">
        <ele>14</ele>
        <time>2019-11-29T06:44:25Z</time>
      </trkpt>
      <trkpt lat="59.321526" lon="18.072577">
        <ele>14</ele>
        <time>2019-11-29T06:44:26Z</time>
      </trkpt>
      <trkpt lat="59.321554" lon="18.072595">
        <ele>14</ele>
        <time>2019-11-29T06:44:28Z</time>
      </trkpt>
      <trkpt lat="59.321581" lon="18.072614">
        <ele>14</ele>
        <time>2019-11-29T06:44:28Z</time>
      </trkpt>
      <trkpt lat="59.321611" lon="18.072635">
        <ele>14</ele>
        <time>2019-11-29T06:44:30Z</time>
      </trkpt>
      <trkpt lat="59.321635" lon="18.072652">
        <ele>13</ele>
        <time>2019-11-29T06:44:30Z</time>
      </trkpt>
      <trkpt lat="59.321659" lon="18.072668">
        <ele>13</ele>
        <time>2019-11-29T06:44:31Z</time>
      </trkpt>
      <trkpt lat="59.321686" lon="18.072691">
        <ele>13</ele>
        <time>2019-11-29T06:44:33Z</time>
      </trkpt>
      <trkpt lat="59.32171" lon="18.072721">
        <ele>13</ele>
        <time>2019-11-29T06:44:33Z</time>
      </trkpt>
      <trkpt lat="59.321732" lon="18.072753">
        <ele>13</ele>
        <time>2019-11-29T06:44:34Z</time>
      </trkpt>
      <trkpt lat="59.321752" lon="18.072781">
        <ele>13</ele>
        <time>2019-11-29T06:44:35Z</time>
      </trkpt>
      <trkpt lat="59.32177" lon="18.072802">
        <ele>12</ele>
        <time>2019-11-29T06:44:36Z</time>
      </trkpt>
      <trkpt lat="59.321787" lon="18.072817">
        <ele>12</ele>
        <time>2019-11-29T06:44:38Z</time>
      </trkpt>
      <trkpt lat="59.321808" lon="18.072818">
        <ele>12</ele>
        <time>2019-11-29T06:44:38Z</time>
      </trkpt>
      <trkpt lat="59.321826" lon="18.072803">
        <ele>12</ele>
        <time>2019-11-29T06:44:40Z</time>
      </trkpt>
      <trkpt lat="59.321848" lon="18.072783">
        <ele>12</ele>
        <time>2019-11-29T06:44:40Z</time>
      </trkpt>
      <trkpt lat="59.321874" lon="18.07278">
        <ele>12</ele>
        <time>2019-11-29T06:44:42Z</time>
      </trkpt>
      <trkpt lat="59.321895" lon="18.072786">
        <ele>12</ele>
        <time>2019-11-29T06:44:42Z</time>
      </trkpt>
      <trkpt lat="59.321914" lon="18.072802">
        <ele>12</ele>
        <time>2019-11-29T06:44:43Z</time>
      </trkpt>
      <trkpt lat="59.32193" lon="18.072823">
        <ele>12</ele>
        <time>2019-11-29T06:44:45Z</time>
      </trkpt>
      <trkpt lat="59.321949" lon="18.072871">
        <ele>12</ele>
        <time>2019-11-29T06:44:46Z</time>
      </trkpt>
      <trkpt lat="59.321965" lon="18.072918">
        <ele>12</ele>
        <time>2019-11-29T06:44:48Z</time>
      </trkpt>
      <trkpt lat="59.321991" lon="18.072935">
        <ele>11</ele>
        <time>2019-11-29T06:44:51Z</time>
      </trkpt>
      <trkpt lat="59.322011" lon="18.072948">
        <ele>12</ele>
        <time>2019-11-29T06:44:52Z</time>
      </trkpt>
      <trkpt lat="59.322031" lon="18.072966">
        <ele>12</ele>
        <time>2019-11-29T06:44:53Z</time>
      </trkpt>
      <trkpt lat="59.32203" lon="18.07303">
        <ele>12</ele>
        <time>2019-11-29T06:44:55Z</time>
      </trkpt>
      <trkpt lat="59.322016" lon="18.073067">
        <ele>12</ele>
        <time>2019-11-29T06:44:56Z</time>
      </trkpt>
      <trkpt lat="59.322002" lon="18.073114">
        <ele>12</ele>
        <time>2019-11-29T06:44:58Z</time>
      </trkpt>
      <trkpt lat="59.32199" lon="18.073165">
        <ele>12</ele>
        <time>2019-11-29T06:44:58Z</time>
      </trkpt>
      <trkpt lat="59.321978" lon="18.073219">
        <ele>12</ele>
        <time>2019-11-29T06:44:59Z</time>
      </trkpt>
      <trkpt lat="59.32197" lon="18.073271">
        <ele>0</ele>
        <time>2019-11-29T06:45:00Z</time>
      </trkpt>
      <trkpt lat="59.321963" lon="18.073325">
        <ele>12</ele>
        <time>2019-11-29T06:45:01Z</time>
      </trkpt>
      <trkpt lat="59.321954" lon="18.073377">
        <ele>12</ele>
        <time>2019-11-29T06:45:02Z</time>
      </trkpt>
      <trkpt lat="59.321946" lon="18.073431">
        <ele>12</ele>
        <time>2019-11-29T06:45:03Z</time>
      </trkpt>
      <trkpt lat="59.321937" lon="18.073484">
        <ele>12</ele>
        <time>2019-11-29T06:45:04Z</time>
      </trkpt>
      <trkpt lat="59.321927" lon="18.073535">
        <ele>12</ele>
        <time>2019-11-29T06:45:06Z</time>
      </trkpt>
      <trkpt lat="59.321915" lon="18.073584">
        <ele>12</ele>
        <time>2019-11-29T06:45:06Z</time>
      </trkpt>
      <trkpt lat="59.321907" lon="18.073632">
        <ele>12</ele>
        <time>2019-11-29T06:45:07Z</time>
      </trkpt>
      <trkpt lat="59.321904" lon="18.073685">
        <ele>11</ele>
        <time>2019-11-29T06:45:09Z</time>
      </trkpt>
      <trkpt lat="59.321912" lon="18.073738">
        <ele>10</ele>
        <time>2019-11-29T06:45:09Z</time>
      </trkpt>
      <trkpt lat="59.32194" lon="18.073787">
        <ele>10</ele>
        <time>2019-11-29T06:45:10Z</time>
      </trkpt>
      <trkpt lat="59.321973" lon="18.073824">
        <ele>9</ele>
        <time>2019-11-29T06:45:12Z</time>
      </trkpt>
      <trkpt lat="59.322004" lon="18.073865">
        <ele>9</ele>
        <time>2019-11-29T06:45:12Z</time>
      </trkpt>
      <trkpt lat="59.322037" lon="18.073896">
        <ele>8</ele>
        <time>2019-11-29T06:45:13Z</time>
      </trkpt>
      <trkpt lat="59.322069" lon="18.073924">
        <ele>8</ele>
        <time>2019-11-29T06:45:15Z</time>
      </trkpt>
      <trkpt lat="59.322098" lon="18.073949">
        <ele>7</ele>
        <time>2019-11-29T06:45:15Z</time>
      </trkpt>
      <trkpt lat="59.322122" lon="18.07398">
        <ele>7</ele>
        <time>2019-11-29T06:45:16Z</time>
      </trkpt>
      <trkpt lat="59.322147" lon="18.074007">
        <ele>7</ele>
        <time>2019-11-29T06:45:17Z</time>
      </trkpt>
      <trkpt lat="59.322171" lon="18.074042">
        <ele>7</ele>
        <time>2019-11-29T06:45:18Z</time>
      </trkpt>
      <trkpt lat="59.322193" lon="18.074075">
        <ele>6</ele>
        <time>2019-11-29T06:45:20Z</time>
      </trkpt>
      <trkpt lat="59.322217" lon="18.0741">
        <ele>6</ele>
        <time>2019-11-29T06:45:20Z</time>
      </trkpt>
      <trkpt lat="59.322246" lon="18.074114">
        <ele>6</ele>
        <time>2019-11-29T06:45:22Z</time>
      </trkpt>
      <trkpt lat="59.322271" lon="18.074145">
        <ele>6</ele>
        <time>2019-11-29T06:45:22Z</time>
      </trkpt>
      <trkpt lat="59.322294" lon="18.074185">
        <ele>6</ele>
        <time>2019-11-29T06:45:23Z</time>
      </trkpt>
      <trkpt lat="59.322317" lon="18.074216">
        <ele>5</ele>
        <time>2019-11-29T06:45:24Z</time>
      </trkpt>
      <trkpt lat="59.322342" lon="18.074241">
        <ele>5</ele>
        <time>2019-11-29T06:45:25Z</time>
      </trkpt>
      <trkpt lat="59.322369" lon="18.074269">
        <ele>5</ele>
        <time>2019-11-29T06:45:26Z</time>
      </trkpt>
      <trkpt lat="59.3224" lon="18.074283">
        <ele>5</ele>
        <time>2019-11-29T06:45:28Z</time>
      </trkpt>
      <trkpt lat="59.32243" lon="18.0743">
        <ele>5</ele>
        <time>2019-11-29T06:45:28Z</time>
      </trkpt>
      <trkpt lat="59.322458" lon="18.074316">
        <ele>4</ele>
        <time>2019-11-29T06:45:29Z</time>
      </trkpt>
      <trkpt lat="59.322484" lon="18.074334">
        <ele>4</ele>
        <time>2019-11-29T06:45:30Z</time>
      </trkpt>
      <trkpt lat="59.322511" lon="18.074357">
        <ele>4</ele>
        <time>2019-11-29T06:45:31Z</time>
      </trkpt>
      <trkpt lat="59.32254" lon="18.074376">
        <ele>4</ele>
        <time>2019-11-29T06:45:32Z</time>
      </trkpt>
      <trkpt lat="59.322565" lon="18.074402">
        <ele>4</ele>
        <time>2019-11-29T06:45:33Z</time>
      </trkpt>
      <trkpt lat="59.322594" lon="18.074418">
        <ele>4</ele>
        <time>2019-11-29T06:45:34Z</time>
      </trkpt>
      <trkpt lat="59.322622" lon="18.074436">
        <ele>4</ele>
        <time>2019-11-29T06:45:36Z</time>
      </trkpt>
      <trkpt lat="59.322648" lon="18.074457">
        <ele>3</ele>
        <time>2019-11-29T06:45:36Z</time>
      </trkpt>
      <trkpt lat="59.322672" lon="18.074484">
        <ele>3</ele>
        <time>2019-11-29T06:45:37Z</time>
      </trkpt>
      <trkpt lat="59.322695" lon="18.074516">
        <ele>3</ele>
        <time>2019-11-29T06:45:39Z</time>
      </trkpt>
      <trkpt lat="59.322718" lon="18.074551">
        <ele>3</ele>
        <time>2019-11-29T06:45:39Z</time>
      </trkpt>
      <trkpt lat="59.322741" lon="18.074584">
        <ele>3</ele>
        <time>2019-11-29T06:45:40Z</time>
      </trkpt>
      <trkpt lat="59.322767" lon="18.074612">
        <ele>3</ele>
        <time>2019-11-29T06:45:41Z</time>
      </trkpt>
      <trkpt lat="59.322794" lon="18.074636">
        <ele>3</ele>
        <time>2019-11-29T06:45:42Z</time>
      </trkpt>
      <trkpt lat="59.322819" lon="18.07467">
        <ele>3</ele>
        <time>2019-11-29T06:45:44Z</time>
      </trkpt>
      <trkpt lat="59.322843" lon="18.074697">
        <ele>2</ele>
        <time>2019-11-29T06:45:44Z</time>
      </trkpt>
      <trkpt lat="59.322869" lon="18.07472">
        <ele>2</ele>
        <time>2019-11-29T06:45:46Z</time>
      </trkpt>
      <trkpt lat="59.322892" lon="18.07475">
        <ele>2</ele>
        <time>2019-11-29T06:45:46Z</time>
      </trkpt>
      <trkpt lat="59.322917" lon="18.074777">
        <ele>2</ele>
        <time>2019-11-29T06:45:47Z</time>
      </trkpt>
      <trkpt lat="59.322942" lon="18.074798">
        <ele>2</ele>
        <time>2019-11-29T06:45:48Z</time>
      </trkpt>
      <trkpt lat="59.322968" lon="18.074822">
        <ele>2</ele>
        <time>2019-11-29T06:45:49Z</time>
      </trkpt>
      <trkpt lat="59.322992" lon="18.074848">
        <ele>2</ele>
        <time>2019-11-29T06:45:50Z</time>
      </trkpt>
      <trkpt lat="59.323015" lon="18.074873">
        <ele>2</ele>
        <time>2019-11-29T06:45:51Z</time>
      </trkpt>
      <trkpt lat="59.32304" lon="18.074895">
        <ele>2</ele>
        <time>2019-11-29T06:45:52Z</time>
      </trkpt>
      <trkpt lat="59.323068" lon="18.074911">
        <ele>2</ele>
        <time>2019-11-29T06:45:54Z</time>
      </trkpt>
      <trkpt lat="59.323099" lon="18.07492">
        <ele>2</ele>
        <time>2019-11-29T06:45:54Z</time>
      </trkpt>
      <trkpt lat="59.323125" lon="18.074926">
        <ele>2</ele>
        <time>2019-11-29T06:45:55Z</time>
      </trkpt>
      <trkpt lat="59.323147" lon="18.074935">
        <ele>2</ele>
        <time>2019-11-29T06:45:57Z</time>
      </trkpt>
      <trkpt lat="59.323169" lon="18.074944">
        <ele>2</ele>
        <time>2019-11-29T06:45:58Z</time>
      </trkpt>
      <trkpt lat="59.323193" lon="18.074954">
        <ele>2</ele>
        <time>2019-11-29T06:45:58Z</time>
      </trkpt>
      <trkpt lat="59.323219" lon="18.074968">
        <ele>2</ele>
        <time>2019-11-29T06:46:00Z</time>
      </trkpt>
      <trkpt lat="59.323243" lon="18.074977">
        <ele>2</ele>
        <time>2019-11-29T06:46:00Z</time>
      </trkpt>
      <trkpt lat="59.323266" lon="18.074999">
        <ele>2</ele>
        <time>2019-11-29T06:46:01Z</time>
      </trkpt>
      <trkpt lat="59.323296" lon="18.075011">
        <ele>1</ele>
        <time>2019-11-29T06:46:03Z</time>
      </trkpt>
      <trkpt lat="59.323324" lon="18.075048">
        <ele>1</ele>
        <time>2019-11-29T06:46:04Z</time>
      </trkpt>
      <trkpt lat="59.323345" lon="18.07512">
        <ele>1</ele>
        <time>2019-11-29T06:46:04Z</time>
      </trkpt>
      <trkpt lat="59.323374" lon="18.075141">
        <ele>1</ele>
        <time>2019-11-29T06:46:05Z</time>
      </trkpt>
      <trkpt lat="59.323401" lon="18.075157">
        <ele>1</ele>
        <time>2019-11-29T06:46:07Z</time>
      </trkpt>
      <trkpt lat="59.323431" lon="18.075171">
        <ele>1</ele>
        <time>2019-11-29T06:46:07Z</time>
      </trkpt>
      <trkpt lat="59.323457" lon="18.075179">
        <ele>1</ele>
        <time>2019-11-29T06:46:08Z</time>
      </trkpt>
      <trkpt lat="59.323486" lon="18.075199">
        <ele>0</ele>
        <time>2019-11-29T06:46:09Z</time>
      </trkpt>
      <trkpt lat="59.323517" lon="18.075211">
        <ele>0</ele>
        <time>2019-11-29T06:46:10Z</time>
      </trkpt>
      <trkpt lat="59.323544" lon="18.075225">
        <ele>0</ele>
        <time>2019-11-29T06:46:12Z</time>
      </trkpt>
      <trkpt lat="59.323574" lon="18.075231">
        <ele>0</ele>
        <time>2019-11-29T06:46:12Z</time>
      </trkpt>
      <trkpt lat="59.323606" lon="18.075232">
        <ele>0</ele>
        <time>2019-11-29T06:46:13Z</time>
      </trkpt>
      <trkpt lat="59.323633" lon="18.075221">
        <ele>0</ele>
        <time>2019-11-29T06:46:15Z</time>
      </trkpt>
      <trkpt lat="59.323656" lon="18.075224">
        <ele>0</ele>
        <time>2019-11-29T06:46:15Z</time>
      </trkpt>
      <trkpt lat="59.323684" lon="18.075214">
        <ele>0</ele>
        <time>2019-11-29T06:46:17Z</time>
      </trkpt>
      <trkpt lat="59.32371" lon="18.075209">
        <ele>0</ele>
        <time>2019-11-29T06:46:17Z</time>
      </trkpt>
      <trkpt lat="59.323736" lon="18.075195">
        <ele>0</ele>
        <time>2019-11-29T06:46:19Z</time>
      </trkpt>
      <trkpt lat="59.323765" lon="18.075174">
        <ele>0</ele>
        <time>2019-11-29T06:46:19Z</time>
      </trkpt>
      <trkpt lat="59.32379" lon="18.075151">
        <ele>0</ele>
        <time>2019-11-29T06:46:21Z</time>
      </trkpt>
      <trkpt lat="59.323814" lon="18.075152">
        <ele>0</ele>
        <time>2019-11-29T06:46:21Z</time>
      </trkpt>
      <trkpt lat="59.323843" lon="18.075155">
        <ele>0</ele>
        <time>2019-11-29T06:46:22Z</time>
      </trkpt>
      <trkpt lat="59.32387" lon="18.075186">
        <ele>0</ele>
        <time>2019-11-29T06:46:24Z</time>
      </trkpt>
      <trkpt lat="59.323897" lon="18.075201">
        <ele>0</ele>
        <time>2019-11-29T06:46:24Z</time>
      </trkpt>
      <trkpt lat="59.32393" lon="18.075209">
        <ele>0</ele>
        <time>2019-11-29T06:46:25Z</time>
      </trkpt>
      <trkpt lat="59.323961" lon="18.075213">
        <ele>0</ele>
        <time>2019-11-29T06:46:26Z</time>
      </trkpt>
      <trkpt lat="59.323989" lon="18.07522">
        <ele>0</ele>
        <time>2019-11-29T06:46:27Z</time>
      </trkpt>
      <trkpt lat="59.324016" lon="18.075223">
        <ele>0</ele>
        <time>2019-11-29T06:46:29Z</time>
      </trkpt>
      <trkpt lat="59.324038" lon="18.075224">
        <ele>0</ele>
        <time>2019-11-29T06:46:29Z</time>
      </trkpt>
      <trkpt lat="59.324064" lon="18.075219">
        <ele>0</ele>
        <time>2019-11-29T06:46:30Z</time>
      </trkpt>
      <trkpt lat="59.324085" lon="18.075254">
        <ele>0</ele>
        <time>2019-11-29T06:46:32Z</time>
      </trkpt>
      <trkpt lat="59.324112" lon="18.07527">
        <ele>0</ele>
        <time>2019-11-29T06:46:32Z</time>
      </trkpt>
      <trkpt lat="59.324141" lon="18.075287">
        <ele>0</ele>
        <time>2019-11-29T06:46:33Z</time>
      </trkpt>
      <trkpt lat="59.32417" lon="18.075298">
        <ele>0</ele>
        <time>2019-11-29T06:46:35Z</time>
      </trkpt>
      <trkpt lat="59.324203" lon="18.075309">
        <ele>0</ele>
        <time>2019-11-29T06:46:36Z</time>
      </trkpt>
      <trkpt lat="59.32423" lon="18.075326">
        <ele>0</ele>
        <time>2019-11-29T06:46:36Z</time>
      </trkpt>
      <trkpt lat="59.324259" lon="18.075341">
        <ele>0</ele>
        <time>2019-11-29T06:46:38Z</time>
      </trkpt>
      <trkpt lat="59.324288" lon="18.075354">
        <ele>0</ele>
        <time>2019-11-29T06:46:39Z</time>
      </trkpt>
      <trkpt lat="59.324319" lon="18.075358">
        <ele>0</ele>
        <time>2019-11-29T06:46:39Z</time>
      </trkpt>
      <trkpt lat="59.324348" lon="18.07537">
        <ele>0</ele>
        <time>2019-11-29T06:46:40Z</time>
      </trkpt>
      <trkpt lat="59.324375" lon="18.075385">
        <ele>0</ele>
        <time>2019-11-29T06:46:42Z</time>
      </trkpt>
      <trkpt lat="59.324406" lon="18.075394">
        <ele>0</ele>
        <time>2019-11-29T06:46:42Z</time>
      </trkpt>
      <trkpt lat="59.32444" lon="18.075397">
        <ele>0</ele>
        <time>2019-11-29T06:46:43Z</time>
      </trkpt>
      <trkpt lat="59.324472" lon="18.0754">
        <ele>0</ele>
        <time>2019-11-29T06:46:45Z</time>
      </trkpt>
      <trkpt lat="59.3245" lon="18.075414">
        <ele>0</ele>
        <time>2019-11-29T06:46:45Z</time>
      </trkpt>
      <trkpt lat="59.32453" lon="18.075419">
        <ele>0</ele>
        <time>2019-11-29T06:46:47Z</time>
      </trkpt>
      <trkpt lat="59.324557" lon="18.075426">
        <ele>0</ele>
        <time>2019-11-29T06:46:47Z</time>
      </trkpt>
      <trkpt lat="59.324583" lon="18.075438">
        <ele>0</ele>
        <time>2019-11-29T06:46:48Z</time>
      </trkpt>
      <trkpt lat="59.324608" lon="18.075447">
        <ele>0</ele>
        <time>2019-11-29T06:46:50Z</time>
      </trkpt>
      <trkpt lat="59.324634" lon="18.07546">
        <ele>0</ele>
        <time>2019-11-29T06:46:50Z</time>
      </trkpt>
      <trkpt lat="59.32466" lon="18.075471">
        <ele>0</ele>
        <time>2019-11-29T06:46:51Z</time>
      </trkpt>
      <trkpt lat="59.324689" lon="18.075475">
        <ele>0</ele>
        <time>2019-11-29T06:46:53Z</time>
      </trkpt>
      <trkpt lat="59.324716" lon="18.07548">
        <ele>0</ele>
        <time>2019-11-29T06:46:53Z</time>
      </trkpt>
      <trkpt lat="59.324744" lon="18.075485">
        <ele>0</ele>
        <time>2019-11-29T06:46:55Z</time>
      </trkpt>
      <trkpt lat="59.32477" lon="18.075484">
        <ele>0</ele>
        <time>2019-11-29T06:46:56Z</time>
      </trkpt>
      <trkpt lat="59.324796" lon="18.075484">
        <ele>0</ele>
        <time>2019-11-29T06:46:56Z</time>
      </trkpt>
      <trkpt lat="59.32482" lon="18.075485">
        <ele>0</ele>
        <time>2019-11-29T06:46:57Z</time>
      </trkpt>
      <trkpt lat="59.324844" lon="18.075483">
        <ele>0</ele>
        <time>2019-11-29T06:46:59Z</time>
      </trkpt>
      <trkpt lat="59.32487" lon="18.075485">
        <ele>0</ele>
        <time>2019-11-29T06:46:59Z</time>
      </trkpt>
      <trkpt lat="59.324896" lon="18.075495">
        <ele>0</ele>
        <time>2019-11-29T06:47:00Z</time>
      </trkpt>
      <trkpt lat="59.324925" lon="18.075483">
        <ele>0</ele>
        <time>2019-11-29T06:47:02Z</time>
      </trkpt>
      <trkpt lat="59.324958" lon="18.075468">
        <ele>0</ele>
        <time>2019-11-29T06:47:02Z</time>
      </trkpt>
      <trkpt lat="59.324989" lon="18.075466">
        <ele>0</ele>
        <time>2019-11-29T06:47:03Z</time>
      </trkpt>
      <trkpt lat="59.325017" lon="18.075474">
        <ele>0</ele>
        <time>2019-11-29T06:47:04Z</time>
      </trkpt>
      <trkpt lat="59.32504" lon="18.075486">
        <ele>0</ele>
        <time>2019-11-29T06:47:05Z</time>
      </trkpt>
      <trkpt lat="59.325064" lon="18.075505">
        <ele>0</ele>
        <time>2019-11-29T06:47:07Z</time>
      </trkpt>
      <trkpt lat="59.325084" lon="18.075527">
        <ele>0</ele>
        <time>2019-11-29T06:47:07Z</time>
      </trkpt>
      <trkpt lat="59.325109" lon="18.075523">
        <ele>0</ele>
        <time>2019-11-29T06:47:08Z</time>
      </trkpt>
      <trkpt lat="59.325135" lon="18.075514">
        <ele>0</ele>
        <time>2019-11-29T06:47:09Z</time>
      </trkpt>
      <trkpt lat="59.325162" lon="18.075512">
        <ele>0</ele>
        <time>2019-11-29T06:47:10Z</time>
      </trkpt>
      <trkpt lat="59.325191" lon="18.075511">
        <ele>0</ele>
        <time>2019-11-29T06:47:11Z</time>
      </trkpt>
      <trkpt lat="59.325224" lon="18.075506">
        <ele>0</ele>
        <time>2019-11-29T06:47:12Z</time>
      </trkpt>
      <trkpt lat="59.325256" lon="18.0755">
        <ele>0</ele>
        <time>2019-11-29T06:47:13Z</time>
      </trkpt>
      <trkpt lat="59.325289" lon="18.07551">
        <ele>0</ele>
        <time>2019-11-29T06:47:14Z</time>
      </trkpt>
      <trkpt lat="59.325317" lon="18.07552">
        <ele>0</ele>
        <time>2019-11-29T06:47:15Z</time>
      </trkpt>
      <trkpt lat="59.325348" lon="18.075532">
        <ele>0</ele>
        <time>2019-11-29T06:47:17Z</time>
      </trkpt>
      <trkpt lat="59.325376" lon="18.075551">
        <ele>0</ele>
        <time>2019-11-29T06:47:17Z</time>
      </trkpt>
      <trkpt lat="59.325405" lon="18.075578">
        <ele>0</ele>
        <time>2019-11-29T06:47:18Z</time>
      </trkpt>
      <trkpt lat="59.325432" lon="18.075616">
        <ele>0</ele>
        <time>2019-11-29T06:47:20Z</time>
      </trkpt>
      <trkpt lat="59.325456" lon="18.075653">
        <ele>0</ele>
        <time>2019-11-29T06:47:20Z</time>
      </trkpt>
      <trkpt lat="59.325484" lon="18.075684">
        <ele>0</ele>
        <time>2019-11-29T06:47:21Z</time>
      </trkpt>
      <trkpt lat="59.325516" lon="18.075631">
        <ele>0</ele>
        <time>2019-11-29T06:47:23Z</time>
      </trkpt>
      <trkpt lat="59.325546" lon="18.075628">
        <ele>0</ele>
        <time>2019-11-29T06:47:23Z</time>
      </trkpt>
      <trkpt lat="59.325573" lon="18.075626">
        <ele>0</ele>
        <time>2019-11-29T06:47:24Z</time>
      </trkpt>
      <trkpt lat="59.325599" lon="18.075626">
        <ele>0</ele>
        <time>2019-11-29T06:47:25Z</time>
      </trkpt>
      <trkpt lat="59.325624" lon="18.075618">
        <ele>0</ele>
        <time>2019-11-29T06:47:26Z</time>
      </trkpt>
      <trkpt lat="59.325652" lon="18.075596">
        <ele>0</ele>
        <time>2019-11-29T06:47:28Z</time>
      </trkpt>
      <trkpt lat="59.325678" lon="18.075555">
        <ele>0</ele>
        <time>2019-11-29T06:47:28Z</time>
      </trkpt>
      <trkpt lat="59.325704" lon="18.075512">
        <ele>0</ele>
        <time>2019-11-29T06:47:30Z</time>
      </trkpt>
      <trkpt lat="59.325731" lon="18.07549">
        <ele>0</ele>
        <time>2019-11-29T06:47:30Z</time>
      </trkpt>
      <trkpt lat="59.325762" lon="18.075468">
        <ele>0</ele>
        <time>2019-11-29T06:47:31Z</time>
      </trkpt>
      <trkpt lat="59.325791" lon="18.075449">
        <ele>0</ele>
        <time>2019-11-29T06:47:33Z</time>
      </trkpt>
      <trkpt lat="59.325823" lon="18.075422">
        <ele>0</ele>
        <time>2019-11-29T06:47:33Z</time>
      </trkpt>
      <trkpt lat="59.325857" lon="18.075407">
        <ele>0</ele>
        <time>2019-11-29T06:47:34Z</time>
      </trkpt>
      <trkpt lat="59.325884" lon="18.075385">
        <ele>0</ele>
        <time>2019-11-29T06:47:35Z</time>
      </trkpt>
      <trkpt lat="59.325907" lon="18.075353">
        <ele>0</ele>
        <time>2019-11-29T06:47:36Z</time>
      </trkpt>
      <trkpt lat="59.325933" lon="18.075316">
        <ele>0</ele>
        <time>2019-11-29T06:47:38Z</time>
      </trkpt>
      <trkpt lat="59.325957" lon="18.075275">
        <ele>0</ele>
        <time>2019-11-29T06:47:38Z</time>
      </trkpt>
      <trkpt lat="59.325981" lon="18.075235">
        <ele>0</ele>
        <time>2019-11-29T06:47:39Z</time>
      </trkpt>
      <trkpt lat="59.326002" lon="18.075198">
        <ele>0</ele>
        <time>2019-11-29T06:47:41Z</time>
      </trkpt>
      <trkpt lat="59.326022" lon="18.075167">
        <ele>0</ele>
        <time>2019-11-29T06:47:41Z</time>
      </trkpt>
      <trkpt lat="59.326044" lon="18.075163">
        <ele>0</ele>
        <time>2019-11-29T06:47:42Z</time>
      </trkpt>
      <trkpt lat="59.326069" lon="18.075176">
        <ele>0</ele>
        <time>2019-11-29T06:47:44Z</time>
      </trkpt>
      <trkpt lat="59.326093" lon="18.075189">
        <ele>0</ele>
        <time>2019-11-29T06:47:44Z</time>
      </trkpt>
      <trkpt lat="59.326122" lon="18.075204">
        <ele>0</ele>
        <time>2019-11-29T06:47:45Z</time>
      </trkpt>
      <trkpt lat="59.326149" lon="18.075205">
        <ele>0</ele>
        <time>2019-11-29T06:47:47Z</time>
      </trkpt>
      <trkpt lat="59.326171" lon="18.075189">
        <ele>0</ele>
        <time>2019-11-29T06:47:47Z</time>
      </trkpt>
      <trkpt lat="59.326194" lon="18.075155">
        <ele>0</ele>
        <time>2019-11-29T06:47:48Z</time>
      </trkpt>
      <trkpt lat="59.326214" lon="18.075118">
        <ele>0</ele>
        <time>2019-11-29T06:47:49Z</time>
      </trkpt>
      <trkpt lat="59.326237" lon="18.075088">
        <ele>0</ele>
        <time>2019-11-29T06:47:50Z</time>
      </trkpt>
      <trkpt lat="59.32626" lon="18.075061">
        <ele>0</ele>
        <time>2019-11-29T06:47:52Z</time>
      </trkpt>
      <trkpt lat="59.326282" lon="18.07504">
        <ele>0</ele>
        <time>2019-11-29T06:47:52Z</time>
      </trkpt>
      <trkpt lat="59.326304" lon="18.075016">
        <ele>0</ele>
        <time>2019-11-29T06:47:54Z</time>
      </trkpt>
      <trkpt lat="59.326326" lon="18.074994">
        <ele>0</ele>
        <time>2019-11-29T06:47:54Z</time>
      </trkpt>
      <trkpt lat="59.326348" lon="18.074971">
        <ele>0</ele>
        <time>2019-11-29T06:47:55Z</time>
      </trkpt>
      <trkpt lat="59.326371" lon="18.074949">
        <ele>0</ele>
        <time>2019-11-29T06:47:57Z</time>
      </trkpt>
      <trkpt lat="59.326395" lon="18.074924">
        <ele>0</ele>
        <time>2019-11-29T06:47:57Z</time>
      </trkpt>
      <trkpt lat="59.326419" lon="18.0749">
        <ele>0</ele>
        <time>2019-11-29T06:47:58Z</time>
      </trkpt>
      <trkpt lat="59.326442" lon="18.074875">
        <ele>0</ele>
        <time>2019-11-29T06:48:00Z</time>
      </trkpt>
      <trkpt lat="59.326466" lon="18.074849">
        <ele>0</ele>
        <time>2019-11-29T06:48:00Z</time>
      </trkpt>
      <trkpt lat="59.326491" lon="18.074825">
        <ele>0</ele>
        <time>2019-11-29T06:48:01Z</time>
      </trkpt>
      <trkpt lat="59.326519" lon="18.074802">
        <ele>0</ele>
        <time>2019-11-29T06:48:02Z</time>
      </trkpt>
      <trkpt lat="59.326544" lon="18.07478">
        <ele>0</ele>
        <time>2019-11-29T06:48:03Z</time>
      </trkpt>
      <trkpt lat="59.32657" lon="18.074761">
        <ele>0</ele>
        <time>2019-11-29T06:48:05Z</time>
      </trkpt>
      <trkpt lat="59.326594" lon="18.074742">
        <ele>0</ele>
        <time>2019-11-29T06:48:06Z</time>
      </trkpt>
      <trkpt lat="59.326619" lon="18.074723">
        <ele>0</ele>
        <time>2019-11-29T06:48:06Z</time>
      </trkpt>
      <trkpt lat="59.326644" lon="18.074705">
        <ele>0</ele>
        <time>2019-11-29T06:48:07Z</time>
      </trkpt>
      <trkpt lat="59.326669" lon="18.074683">
        <ele>0</ele>
        <time>2019-11-29T06:48:09Z</time>
      </trkpt>
      <trkpt lat="59.326694" lon="18.074662">
        <ele>0</ele>
        <time>2019-11-29T06:48:09Z</time>
      </trkpt>
      <trkpt lat="59.326719" lon="18.07464">
        <ele>0</ele>
        <time>2019-11-29T06:48:11Z</time>
      </trkpt>
      <trkpt lat="59.326745" lon="18.074618">
        <ele>0</ele>
        <time>2019-11-29T06:48:11Z</time>
      </trkpt>
      <trkpt lat="59.32677" lon="18.074595">
        <ele>0</ele>
        <time>2019-11-29T06:48:13Z</time>
      </trkpt>
      <trkpt lat="59.326792" lon="18.074573">
        <ele>0</ele>
        <time>2019-11-29T06:48:13Z</time>
      </trkpt>
      <trkpt lat="59.326816" lon="18.074552">
        <ele>0</ele>
        <time>2019-11-29T06:48:14Z</time>
      </trkpt>
      <trkpt lat="59.32684" lon="18.074529">
        <ele>0</ele>
        <time>2019-11-29T06:48:16Z</time>
      </trkpt>
      <trkpt lat="59.326864" lon="18.074506">
        <ele>0</ele>
        <time>2019-11-29T06:48:16Z</time>
      </trkpt>
      <trkpt lat="59.326885" lon="18.074483">
        <ele>0</ele>
        <time>2019-11-29T06:48:17Z</time>
      </trkpt>
      <trkpt lat="59.326907" lon="18.074459">
        <ele>1</ele>
        <time>2019-11-29T06:48:18Z</time>
      </trkpt>
      <trkpt lat="59.326928" lon="18.074434">
        <ele>1</ele>
        <time>2019-11-29T06:48:19Z</time>
      </trkpt>
      <trkpt lat="59.326948" lon="18.074405">
        <ele>1</ele>
        <time>2019-11-29T06:48:20Z</time>
      </trkpt>
      <trkpt lat="59.32697" lon="18.074379">
        <ele>1</ele>
        <time>2019-11-29T06:48:21Z</time>
      </trkpt>
      <trkpt lat="59.326991" lon="18.074349">
        <ele>1</ele>
        <time>2019-11-29T06:48:22Z</time>
      </trkpt>
      <trkpt lat="59.327013" lon="18.074321">
        <ele>1</ele>
        <time>2019-11-29T06:48:24Z</time>
      </trkpt>
      <trkpt lat="59.327036" lon="18.074295">
        <ele>1</ele>
        <time>2019-11-29T06:48:25Z</time>
      </trkpt>
      <trkpt lat="59.327059" lon="18.07427">
        <ele>1</ele>
        <time>2019-11-29T06:48:25Z</time>
      </trkpt>
      <trkpt lat="59.327082" lon="18.074246">
        <ele>1</ele>
        <time>2019-11-29T06:48:26Z</time>
      </trkpt>
      <trkpt lat="59.327103" lon="18.07422">
        <ele>1</ele>
        <time>2019-11-29T06:48:28Z</time>
      </trkpt>
      <trkpt lat="59.327124" lon="18.074193">
        <ele>1</ele>
        <time>2019-11-29T06:48:28Z</time>
      </trkpt>
      <trkpt lat="59.327146" lon="18.074171">
        <ele>2</ele>
        <time>2019-11-29T06:48:30Z</time>
      </trkpt>
      <trkpt lat="59.327165" lon="18.074143">
        <ele>2</ele>
        <time>2019-11-29T06:48:30Z</time>
      </trkpt>
      <trkpt lat="59.327185" lon="18.074116">
        <ele>2</ele>
        <time>2019-11-29T06:48:32Z</time>
      </trkpt>
      <trkpt lat="59.327207" lon="18.074089">
        <ele>2</ele>
        <time>2019-11-29T06:48:32Z</time>
      </trkpt>
      <trkpt lat="59.327228" lon="18.074061">
        <ele>2</ele>
        <time>2019-11-29T06:48:33Z</time>
      </trkpt>
      <trkpt lat="59.32725" lon="18.074037">
        <ele>2</ele>
        <time>2019-11-29T06:48:35Z</time>
      </trkpt>
      <trkpt lat="59.327273" lon="18.074014">
        <ele>2</ele>
        <time>2019-11-29T06:48:35Z</time>
      </trkpt>
      <trkpt lat="59.327295" lon="18.07399">
        <ele>2</ele>
        <time>2019-11-29T06:48:36Z</time>
      </trkpt>
      <trkpt lat="59.327316" lon="18.073965">
        <ele>2</ele>
        <time>2019-11-29T06:48:38Z</time>
      </trkpt>
      <trkpt lat="59.327336" lon="18.073937">
        <ele>2</ele>
        <time>2019-11-29T06:48:38Z</time>
      </trkpt>
      <trkpt lat="59.327357" lon="18.073909">
        <ele>2</ele>
        <time>2019-11-29T06:48:39Z</time>
      </trkpt>
      <trkpt lat="59.327378" lon="18.073885">
        <ele>2</ele>
        <time>2019-11-29T06:48:40Z</time>
      </trkpt>
      <trkpt lat="59.3274" lon="18.073863">
        <ele>3</ele>
        <time>2019-11-29T06:48:41Z</time>
      </trkpt>
      <trkpt lat="59.327423" lon="18.073839">
        <ele>3</ele>
        <time>2019-11-29T06:48:43Z</time>
      </trkpt>
      <trkpt lat="59.327446" lon="18.073818">
        <ele>3</ele>
        <time>2019-11-29T06:48:43Z</time>
      </trkpt>
      <trkpt lat="59.327469" lon="18.073795">
        <ele>3</ele>
        <time>2019-11-29T06:48:45Z</time>
      </trkpt>
      <trkpt lat="59.327492" lon="18.073773">
        <ele>3</ele>
        <time>2019-11-29T06:48:45Z</time>
      </trkpt>
      <trkpt lat="59.327514" lon="18.073747">
        <ele>3</ele>
        <time>2019-11-29T06:48:46Z</time>
      </trkpt>
      <trkpt lat="59.327537" lon="18.073721">
        <ele>3</ele>
        <time>2019-11-29T06:48:48Z</time>
      </trkpt>
      <trkpt lat="59.327559" lon="18.073696">
        <ele>3</ele>
        <time>2019-11-29T06:48:49Z</time>
      </trkpt>
      <trkpt lat="59.327581" lon="18.073673">
        <ele>3</ele>
        <time>2019-11-29T06:48:49Z</time>
      </trkpt>
      <trkpt lat="59.327602" lon="18.073648">
        <ele>4</ele>
        <time>2019-11-29T06:48:51Z</time>
      </trkpt>
      <trkpt lat="59.327625" lon="18.073621">
        <ele>4</ele>
        <time>2019-11-29T06:48:51Z</time>
      </trkpt>
      <trkpt lat="59.327646" lon="18.073597">
        <ele>4</ele>
        <time>2019-11-29T06:48:52Z</time>
      </trkpt>
      <trkpt lat="59.327669" lon="18.073572">
        <ele>4</ele>
        <time>2019-11-29T06:48:54Z</time>
      </trkpt>
      <trkpt lat="59.327691" lon="18.073542">
        <ele>4</ele>
        <time>2019-11-29T06:48:54Z</time>
      </trkpt>
      <trkpt lat="59.327715" lon="18.073518">
        <ele>4</ele>
        <time>2019-11-29T06:48:55Z</time>
      </trkpt>
      <trkpt lat="59.327737" lon="18.073491">
        <ele>4</ele>
        <time>2019-11-29T06:48:56Z</time>
      </trkpt>
      <trkpt lat="59.32776" lon="18.073468">
        <ele>4</ele>
        <time>2019-11-29T06:48:57Z</time>
      </trkpt>
      <trkpt lat="59.327783" lon="18.073442">
        <ele>4</ele>
        <time>2019-11-29T06:48:59Z</time>
      </trkpt>
      <trkpt lat="59.327805" lon="18.073416">
        <ele>4</ele>
        <time>2019-11-29T06:48:59Z</time>
      </trkpt>
      <trkpt lat="59.327828" lon="18.07339">
        <ele>0</ele>
        <time>2019-11-29T06:49:00Z</time>
      </trkpt>
      <trkpt lat="59.32785" lon="18.073365">
        <ele>4</ele>
        <time>2019-11-29T06:49:01Z</time>
      </trkpt>
      <trkpt lat="59.327873" lon="18.073343">
        <ele>4</ele>
        <time>2019-11-29T06:49:02Z</time>
      </trkpt>
      <trkpt lat="59.327896" lon="18.073322">
        <ele>4</ele>
        <time>2019-11-29T06:49:04Z</time>
      </trkpt>
      <trkpt lat="59.327917" lon="18.073298">
        <ele>4</ele>
        <time>2019-11-29T06:49:04Z</time>
      </trkpt>
      <trkpt lat="59.327939" lon="18.073269">
        <ele>4</ele>
        <time>2019-11-29T06:49:05Z</time>
      </trkpt>
      <trkpt lat="59.327962" lon="18.073242">
        <ele>4</ele>
        <time>2019-11-29T06:49:07Z</time>
      </trkpt>
      <trkpt lat="59.327986" lon="18.07322">
        <ele>4</ele>
        <time>2019-11-29T06:49:08Z</time>
      </trkpt>
      <trkpt lat="59.32801" lon="18.073197">
        <ele>4</ele>
        <time>2019-11-29T06:49:08Z</time>
      </trkpt>
      <trkpt lat="59.328035" lon="18.073176">
        <ele>4</ele>
        <time>2019-11-29T06:49:10Z</time>
      </trkpt>
      <trkpt lat="59.32806" lon="18.073161">
        <ele>4</ele>
        <time>2019-11-29T06:49:10Z</time>
      </trkpt>
      <trkpt lat="59.328086" lon="18.07315">
        <ele>4</ele>
        <time>2019-11-29T06:49:11Z</time>
      </trkpt>
      <trkpt lat="59.328114" lon="18.073139">
        <ele>4</ele>
        <time>2019-11-29T06:49:13Z</time>
      </trkpt>
      <trkpt lat="59.328143" lon="18.073131">
        <ele>4</ele>
        <time>2019-11-29T06:49:13Z</time>
      </trkpt>
      <trkpt lat="59.328169" lon="18.073123">
        <ele>4</ele>
        <time>2019-11-29T06:49:14Z</time>
      </trkpt>
      <trkpt lat="59.328196" lon="18.073119">
        <ele>4</ele>
        <time>2019-11-29T06:49:16Z</time>
      </trkpt>
      <trkpt lat="59.328222" lon="18.073115">
        <ele>4</ele>
        <time>2019-11-29T06:49:16Z</time>
      </trkpt>
      <trkpt lat="59.328247" lon="18.073114">
        <ele>4</ele>
        <time>2019-11-29T06:49:17Z</time>
      </trkpt>
      <trkpt lat="59.328273" lon="18.073118">
        <ele>4</ele>
        <time>2019-11-29T06:49:18Z</time>
      </trkpt>
      <trkpt lat="59.328299" lon="18.073126">
        <ele>4</ele>
        <time>2019-11-29T06:49:19Z</time>
      </trkpt>
      <trkpt lat="59.328325" lon="18.073133">
        <ele>4</ele>
        <time>2019-11-29T06:49:21Z</time>
      </trkpt>
      <trkpt lat="59.328352" lon="18.073142">
        <ele>4</ele>
        <time>2019-11-29T06:49:21Z</time>
      </trkpt>
      <trkpt lat="59.328376" lon="18.073147">
        <ele>4</ele>
        <time>2019-11-29T06:49:23Z</time>
      </trkpt>
      <trkpt lat="59.328401" lon="18.073151">
        <ele>4</ele>
        <time>2019-11-29T06:49:23Z</time>
      </trkpt>
      <trkpt lat="59.328426" lon="18.073156">
        <ele>4</ele>
        <time>2019-11-29T06:49:24Z</time>
      </trkpt>
      <trkpt lat="59.328452" lon="18.073161">
        <ele>4</ele>
        <time>2019-11-29T06:49:26Z</time>
      </trkpt>
      <trkpt lat="59.328478" lon="18.073165">
        <ele>3</ele>
        <time>2019-11-29T06:49:27Z</time>
      </trkpt>
      <trkpt lat="59.328503" lon="18.073166">
        <ele>3</ele>
        <time>2019-11-29T06:49:27Z</time>
      </trkpt>
      <trkpt lat="59.32853" lon="18.073173">
        <ele>4</ele>
        <time>2019-11-29T06:49:29Z</time>
      </trkpt>
      <trkpt lat="59.328555" lon="18.073176">
        <ele>4</ele>
        <time>2019-11-29T06:49:29Z</time>
      </trkpt>
      <trkpt lat="59.328581" lon="18.073179">
        <ele>4</ele>
        <time>2019-11-29T06:49:30Z</time>
      </trkpt>
      <trkpt lat="59.328606" lon="18.073185">
        <ele>3</ele>
        <time>2019-11-29T06:49:32Z</time>
      </trkpt>
      <trkpt lat="59.328632" lon="18.07319">
        <ele>4</ele>
        <time>2019-11-29T06:49:32Z</time>
      </trkpt>
      <trkpt lat="59.328659" lon="18.073199">
        <ele>4</ele>
        <time>2019-11-29T06:49:33Z</time>
      </trkpt>
      <trkpt lat="59.328687" lon="18.073205">
        <ele>4</ele>
        <time>2019-11-29T06:49:35Z</time>
      </trkpt>
      <trkpt lat="59.328715" lon="18.073213">
        <ele>4</ele>
        <time>2019-11-29T06:49:35Z</time>
      </trkpt>
      <trkpt lat="59.328741" lon="18.073221">
        <ele>4</ele>
        <time>2019-11-29T06:49:36Z</time>
      </trkpt>
      <trkpt lat="59.328768" lon="18.073226">
        <ele>3</ele>
        <time>2019-11-29T06:49:37Z</time>
      </trkpt>
      <trkpt lat="59.328794" lon="18.073233">
        <ele>3</ele>
        <time>2019-11-29T06:49:38Z</time>
      </trkpt>
      <trkpt lat="59.32882" lon="18.07324">
        <ele>3</ele>
        <time>2019-11-29T06:49:40Z</time>
      </trkpt>
      <trkpt lat="59.328846" lon="18.073242">
        <ele>3</ele>
        <time>2019-11-29T06:49:40Z</time>
      </trkpt>
      <trkpt lat="59.328873" lon="18.073248">
        <ele>3</ele>
        <time>2019-11-29T06:49:42Z</time>
      </trkpt>
      <trkpt lat="59.328899" lon="18.073255">
        <ele>3</ele>
        <time>2019-11-29T06:49:42Z</time>
      </trkpt>
      <trkpt lat="59.328925" lon="18.073261">
        <ele>3</ele>
        <time>2019-11-29T06:49:43Z</time>
      </trkpt>
      <trkpt lat="59.328952" lon="18.073267">
        <ele>3</ele>
        <time>2019-11-29T06:49:45Z</time>
      </trkpt>
      <trkpt lat="59.328979" lon="18.073276">
        <ele>3</ele>
        <time>2019-11-29T06:49:46Z</time>
      </trkpt>
      <trkpt lat="59.329006" lon="18.073282">
        <ele>3</ele>
        <time>2019-11-29T06:49:46Z</time>
      </trkpt>
      <trkpt lat="59.329033" lon="18.07329">
        <ele>3</ele>
        <time>2019-11-29T06:49:48Z</time>
      </trkpt>
      <trkpt lat="59.329061" lon="18.0733">
        <ele>3</ele>
        <time>2019-11-29T06:49:48Z</time>
      </trkpt>
      <trkpt lat="59.329088" lon="18.073311">
        <ele>3</ele>
        <time>2019-11-29T06:49:49Z</time>
      </trkpt>
      <trkpt lat="59.329116" lon="18.073319">
        <ele>3</ele>
        <time>2019-11-29T06:49:51Z</time>
      </trkpt>
      <trkpt lat="59.329142" lon="18.073322">
        <ele>3</ele>
        <time>2019-11-29T06:49:51Z</time>
      </trkpt>
      <trkpt lat="59.329169" lon="18.073329">
        <ele>3</ele>
        <time>2019-11-29T06:49:52Z</time>
      </trkpt>
      <trkpt lat="59.329196" lon="18.073338">
        <ele>3</ele>
        <time>2019-11-29T06:49:54Z</time>
      </trkpt>
      <trkpt lat="59.329224" lon="18.073346">
        <ele>3</ele>
        <time>2019-11-29T06:49:54Z</time>
      </trkpt>
      <trkpt lat="59.329251" lon="18.073352">
        <ele>3</ele>
        <time>2019-11-29T06:49:55Z</time>
      </trkpt>
      <trkpt lat="59.329278" lon="18.07336">
        <ele>3</ele>
        <time>2019-11-29T06:49:56Z</time>
      </trkpt>
      <trkpt lat="59.329305" lon="18.073366">
        <ele>3</ele>
        <time>2019-11-29T06:49:57Z</time>
      </trkpt>
      <trkpt lat="59.329332" lon="18.073371">
        <ele>3</ele>
        <time>2019-11-29T06:49:59Z</time>
      </trkpt>
      <trkpt lat="59.32936" lon="18.073378">
        <ele>3</ele>
        <time>2019-11-29T06:50:00Z</time>
      </trkpt>
      <trkpt lat="59.329387" lon="18.073386">
        <ele>3</ele>
        <time>2019-11-29T06:50:00Z</time>
      </trkpt>
      <trkpt lat="59.329413" lon="18.073393">
        <ele>3</ele>
        <time>2019-11-29T06:50:01Z</time>
      </trkpt>
      <trkpt lat="59.329439" lon="18.073403">
        <ele>3</ele>
        <time>2019-11-29T06:50:03Z</time>
      </trkpt>
      <trkpt lat="59.329465" lon="18.073416">
        <ele>3</ele>
        <time>2019-11-29T06:50:03Z</time>
      </trkpt>
      <trkpt lat="59.329489" lon="18.073437">
        <ele>3</ele>
        <time>2019-11-29T06:50:05Z</time>
      </trkpt>
      <trkpt lat="59.329508" lon="18.073463">
        <ele>3</ele>
        <time>2019-11-29T06:50:05Z</time>
      </trkpt>
      <trkpt lat="59.329527" lon="18.073491">
        <ele>4</ele>
        <time>2019-11-29T06:50:07Z</time>
      </trkpt>
      <trkpt lat="59.329544" lon="18.073521">
        <ele>3</ele>
        <time>2019-11-29T06:50:07Z</time>
      </trkpt>
      <trkpt lat="59.329558" lon="18.073545">
        <ele>3</ele>
        <time>2019-11-29T06:50:08Z</time>
      </trkpt>
      <trkpt lat="59.329579" lon="18.073569">
        <ele>3</ele>
        <time>2019-11-29T06:50:10Z</time>
      </trkpt>
      <trkpt lat="59.329607" lon="18.073586">
        <ele>3</ele>
        <time>2019-11-29T06:50:13Z</time>
      </trkpt>
      <trkpt lat="59.329628" lon="18.073609">
        <ele>3</ele>
        <time>2019-11-29T06:50:14Z</time>
      </trkpt>
      <trkpt lat="59.329655" lon="18.073604">
        <ele>4</ele>
        <time>2019-11-29T06:50:26Z</time>
      </trkpt>
      <trkpt lat="59.32968" lon="18.073592">
        <ele>4</ele>
        <time>2019-11-29T06:50:28Z</time>
      </trkpt>
      <trkpt lat="59.329707" lon="18.073577">
        <ele>4</ele>
        <time>2019-11-29T06:50:28Z</time>
      </trkpt>
      <trkpt lat="59.329738" lon="18.073564">
        <ele>4</ele>
        <time>2019-11-29T06:50:29Z</time>
      </trkpt>
      <trkpt lat="59.329768" lon="18.073553">
        <ele>4</ele>
        <time>2019-11-29T06:50:31Z</time>
      </trkpt>
      <trkpt lat="59.329798" lon="18.073546">
        <ele>4</ele>
        <time>2019-11-29T06:50:31Z</time>
      </trkpt>
      <trkpt lat="59.329828" lon="18.073539">
        <ele>4</ele>
        <time>2019-11-29T06:50:33Z</time>
      </trkpt>
      <trkpt lat="59.329857" lon="18.073526">
        <ele>4</ele>
        <time>2019-11-29T06:50:33Z</time>
      </trkpt>
      <trkpt lat="59.329886" lon="18.073509">
        <ele>4</ele>
        <time>2019-11-29T06:50:34Z</time>
      </trkpt>
      <trkpt lat="59.329914" lon="18.073494">
        <ele>4</ele>
        <time>2019-11-29T06:50:36Z</time>
      </trkpt>
      <trkpt lat="59.329942" lon="18.073479">
        <ele>4</ele>
        <time>2019-11-29T06:50:36Z</time>
      </trkpt>
      <trkpt lat="59.32997" lon="18.073466">
        <ele>4</ele>
        <time>2019-11-29T06:50:37Z</time>
      </trkpt>
      <trkpt lat="59.329998" lon="18.073449">
        <ele>4</ele>
        <time>2019-11-29T06:50:38Z</time>
      </trkpt>
      <trkpt lat="59.330026" lon="18.073439">
        <ele>4</ele>
        <time>2019-11-29T06:50:39Z</time>
      </trkpt>
      <trkpt lat="59.330055" lon="18.073429">
        <ele>0</ele>
        <time>2019-11-29T06:50:40Z</time>
      </trkpt>
      <trkpt lat="59.330083" lon="18.073411">
        <ele>4</ele>
        <time>2019-11-29T06:50:41Z</time>
      </trkpt>
      <trkpt lat="59.330109" lon="18.073381">
        <ele>4</ele>
        <time>2019-11-29T06:50:43Z</time>
      </trkpt>
      <trkpt lat="59.330135" lon="18.073362">
        <ele>4</ele>
        <time>2019-11-29T06:50:43Z</time>
      </trkpt>
      <trkpt lat="59.330161" lon="18.073346">
        <ele>4</ele>
        <time>2019-11-29T06:50:45Z</time>
      </trkpt>
      <trkpt lat="59.330189" lon="18.073334">
        <ele>3</ele>
        <time>2019-11-29T06:50:45Z</time>
      </trkpt>
      <trkpt lat="59.330218" lon="18.07332">
        <ele>4</ele>
        <time>2019-11-29T06:50:46Z</time>
      </trkpt>
      <trkpt lat="59.330247" lon="18.073316">
        <ele>4</ele>
        <time>2019-11-29T06:50:47Z</time>
      </trkpt>
      <trkpt lat="59.330275" lon="18.073305">
        <ele>4</ele>
        <time>2019-11-29T06:50:48Z</time>
      </trkpt>
      <trkpt lat="59.330304" lon="18.073297">
        <ele>4</ele>
        <time>2019-11-29T06:50:49Z</time>
      </trkpt>
      <trkpt lat="59.33033" lon="18.073288">
        <ele>4</ele>
        <time>2019-11-29T06:50:51Z</time>
      </trkpt>
      <trkpt lat="59.330358" lon="18.073282">
        <ele>4</ele>
        <time>2019-11-29T06:50:51Z</time>
      </trkpt>
      <trkpt lat="59.330384" lon="18.073262">
        <ele>4</ele>
        <time>2019-11-29T06:50:52Z</time>
      </trkpt>
      <trkpt lat="59.330411" lon="18.073243">
        <ele>4</ele>
        <time>2019-11-29T06:50:54Z</time>
      </trkpt>
      <trkpt lat="59.330439" lon="18.073225">
        <ele>4</ele>
        <time>2019-11-29T06:50:54Z</time>
      </trkpt>
      <trkpt lat="59.330467" lon="18.073216">
        <ele>4</ele>
        <time>2019-11-29T06:50:55Z</time>
      </trkpt>
      <trkpt lat="59.330495" lon="18.073206">
        <ele>4</ele>
        <time>2019-11-29T06:50:57Z</time>
      </trkpt>
      <trkpt lat="59.330521" lon="18.073196">
        <ele>4</ele>
        <time>2019-11-29T06:50:57Z</time>
      </trkpt>
      <trkpt lat="59.330548" lon="18.073191">
        <ele>4</ele>
        <time>2019-11-29T06:50:58Z</time>
      </trkpt>
      <trkpt lat="59.330573" lon="18.073195">
        <ele>4</ele>
        <time>2019-11-29T06:50:59Z</time>
      </trkpt>
      <trkpt lat="59.330601" lon="18.073229">
        <ele>4</ele>
        <time>2019-11-29T06:51:02Z</time>
      </trkpt>
      <trkpt lat="59.330608" lon="18.073265">
        <ele>4</ele>
        <time>2019-11-29T06:51:03Z</time>
      </trkpt>
      <trkpt lat="59.330612" lon="18.073302">
        <ele>4</ele>
        <time>2019-11-29T06:51:03Z</time>
      </trkpt>
      <trkpt lat="59.330618" lon="18.073348">
        <ele>4</ele>
        <time>2019-11-29T06:51:05Z</time>
      </trkpt>
      <trkpt lat="59.330625" lon="18.07339">
        <ele>4</ele>
        <time>2019-11-29T06:51:05Z</time>
      </trkpt>
      <trkpt lat="59.330632" lon="18.073431">
        <ele>4</ele>
        <time>2019-11-29T06:51:06Z</time>
      </trkpt>
      <trkpt lat="59.33065" lon="18.073475">
        <ele>4</ele>
        <time>2019-11-29T06:51:08Z</time>
      </trkpt>
      <trkpt lat="59.330706" lon="18.07356">
        <ele>4</ele>
        <time>2019-11-29T06:51:10Z</time>
      </trkpt>
      <trkpt lat="59.330756" lon="18.073591">
        <ele>5</ele>
        <time>2019-11-29T06:51:10Z</time>
      </trkpt>
      <trkpt lat="59.330857" lon="18.073709">
        <ele>5</ele>
        <time>2019-11-29T06:51:13Z</time>
      </trkpt>
      <trkpt lat="59.330881" lon="18.073802">
        <ele>6</ele>
        <time>2019-11-29T06:51:16Z</time>
      </trkpt>
      <trkpt lat="59.330894" lon="18.073847">
        <ele>6</ele>
        <time>2019-11-29T06:51:16Z</time>
      </trkpt>
      <trkpt lat="59.330907" lon="18.073886">
        <ele>6</ele>
        <time>2019-11-29T06:51:17Z</time>
      </trkpt>
      <trkpt lat="59.330924" lon="18.07393">
        <ele>6</ele>
        <time>2019-11-29T06:51:18Z</time>
      </trkpt>
      <trkpt lat="59.33094" lon="18.073975">
        <ele>6</ele>
        <time>2019-11-29T06:51:19Z</time>
      </trkpt>
      <trkpt lat="59.33096" lon="18.074017">
        <ele>6</ele>
        <time>2019-11-29T06:51:21Z</time>
      </trkpt>
      <trkpt lat="59.330977" lon="18.074057">
        <ele>6</ele>
        <time>2019-11-29T06:51:22Z</time>
      </trkpt>
      <trkpt lat="59.330996" lon="18.074097">
        <ele>6</ele>
        <time>2019-11-29T06:51:22Z</time>
      </trkpt>
      <trkpt lat="59.331014" lon="18.074147">
        <ele>6</ele>
        <time>2019-11-29T06:51:24Z</time>
      </trkpt>
      <trkpt lat="59.33103" lon="18.074195">
        <ele>6</ele>
        <time>2019-11-29T06:51:24Z</time>
      </trkpt>
      <trkpt lat="59.331047" lon="18.07424">
        <ele>7</ele>
        <time>2019-11-29T06:51:26Z</time>
      </trkpt>
      <trkpt lat="59.331062" lon="18.074288">
        <ele>7</ele>
        <time>2019-11-29T06:51:26Z</time>
      </trkpt>
      <trkpt lat="59.331071" lon="18.074342">
        <ele>7</ele>
        <time>2019-11-29T06:51:27Z</time>
      </trkpt>
      <trkpt lat="59.331078" lon="18.074383">
        <ele>7</ele>
        <time>2019-11-29T06:51:29Z</time>
      </trkpt>
      <trkpt lat="59.331086" lon="18.074431">
        <ele>7</ele>
        <time>2019-11-29T06:51:30Z</time>
      </trkpt>
      <trkpt lat="59.3311" lon="18.074486">
        <ele>7</ele>
        <time>2019-11-29T06:51:32Z</time>
      </trkpt>
      <trkpt lat="59.331127" lon="18.074522">
        <ele>7</ele>
        <time>2019-11-29T06:51:34Z</time>
      </trkpt>
      <trkpt lat="59.331149" lon="18.074539">
        <ele>7</ele>
        <time>2019-11-29T06:51:35Z</time>
      </trkpt>
      <trkpt lat="59.331171" lon="18.074565">
        <ele>7</ele>
        <time>2019-11-29T06:51:37Z</time>
      </trkpt>
      <trkpt lat="59.33119" lon="18.074587">
        <ele>7</ele>
        <time>2019-11-29T06:51:37Z</time>
      </trkpt>
      <trkpt lat="59.331207" lon="18.074616">
        <ele>7</ele>
        <time>2019-11-29T06:51:38Z</time>
      </trkpt>
      <trkpt lat="59.331224" lon="18.074651">
        <ele>6</ele>
        <time>2019-11-29T06:51:40Z</time>
      </trkpt>
      <trkpt lat="59.331318" lon="18.074745">
        <ele>6</ele>
        <time>2019-11-29T06:51:43Z</time>
      </trkpt>
      <trkpt lat="59.331422" lon="18.074767">
        <ele>4</ele>
        <time>2019-11-29T06:51:46Z</time>
      </trkpt>
      <trkpt lat="59.331527" lon="18.074801">
        <ele>4</ele>
        <time>2019-11-29T06:51:49Z</time>
      </trkpt>
      <trkpt lat="59.331629" lon="18.074861">
        <ele>3</ele>
        <time>2019-11-29T06:51:52Z</time>
      </trkpt>
      <trkpt lat="59.331734" lon="18.074937">
        <ele>2</ele>
        <time>2019-11-29T06:51:56Z</time>
      </trkpt>
      <trkpt lat="59.331825" lon="18.07503">
        <ele>2</ele>
        <time>2019-11-29T06:52:01Z</time>
      </trkpt>
      <trkpt lat="59.331843" lon="18.075053">
        <ele>2</ele>
        <time>2019-11-29T06:52:01Z</time>
      </trkpt>
      <trkpt lat="59.331872" lon="18.075097">
        <ele>2</ele>
        <time>2019-11-29T06:52:04Z</time>
      </trkpt>
      <trkpt lat="59.331893" lon="18.075108">
        <ele>2</ele>
        <time>2019-11-29T06:52:05Z</time>
      </trkpt>
      <trkpt lat="59.331914" lon="18.075129">
        <ele>2</ele>
        <time>2019-11-29T06:52:05Z</time>
      </trkpt>
      <trkpt lat="59.331937" lon="18.075175">
        <ele>3</ele>
        <time>2019-11-29T06:52:06Z</time>
      </trkpt>
      <trkpt lat="59.331962" lon="18.075207">
        <ele>4</ele>
        <time>2019-11-29T06:52:08Z</time>
      </trkpt>
      <trkpt lat="59.331987" lon="18.075221">
        <ele>4</ele>
        <time>2019-11-29T06:52:08Z</time>
      </trkpt>
      <trkpt lat="59.332017" lon="18.075228">
        <ele>5</ele>
        <time>2019-11-29T06:52:10Z</time>
      </trkpt>
      <trkpt lat="59.332047" lon="18.075234">
        <ele>5</ele>
        <time>2019-11-29T06:52:10Z</time>
      </trkpt>
      <trkpt lat="59.332074" lon="18.075251">
        <ele>6</ele>
        <time>2019-11-29T06:52:12Z</time>
      </trkpt>
      <trkpt lat="59.332098" lon="18.075273">
        <ele>6</ele>
        <time>2019-11-29T06:52:12Z</time>
      </trkpt>
      <trkpt lat="59.332118" lon="18.0753">
        <ele>7</ele>
        <time>2019-11-29T06:52:13Z</time>
      </trkpt>
      <trkpt lat="59.332137" lon="18.075334">
        <ele>7</ele>
        <time>2019-11-29T06:52:15Z</time>
      </trkpt>
      <trkpt lat="59.332148" lon="18.075376">
        <ele>7</ele>
        <time>2019-11-29T06:52:15Z</time>
      </trkpt>
      <trkpt lat="59.332154" lon="18.075423">
        <ele>7</ele>
        <time>2019-11-29T06:52:16Z</time>
      </trkpt>
      <trkpt lat="59.332157" lon="18.075472">
        <ele>8</ele>
        <time>2019-11-29T06:52:18Z</time>
      </trkpt>
      <trkpt lat="59.332156" lon="18.075521">
        <ele>8</ele>
        <time>2019-11-29T06:52:18Z</time>
      </trkpt>
      <trkpt lat="59.332158" lon="18.075563">
        <ele>8</ele>
        <time>2019-11-29T06:52:20Z</time>
      </trkpt>
      <trkpt lat="59.332164" lon="18.075604">
        <ele>8</ele>
        <time>2019-11-29T06:52:20Z</time>
      </trkpt>
      <trkpt lat="59.332168" lon="18.075649">
        <ele>8</ele>
        <time>2019-11-29T06:52:21Z</time>
      </trkpt>
      <trkpt lat="59.332168" lon="18.075701">
        <ele>9</ele>
        <time>2019-11-29T06:52:23Z</time>
      </trkpt>
      <trkpt lat="59.33217" lon="18.075754">
        <ele>9</ele>
        <time>2019-11-29T06:52:24Z</time>
      </trkpt>
      <trkpt lat="59.332178" lon="18.075802">
        <ele>9</ele>
        <time>2019-11-29T06:52:24Z</time>
      </trkpt>
      <trkpt lat="59.332195" lon="18.075848">
        <ele>9</ele>
        <time>2019-11-29T06:52:25Z</time>
      </trkpt>
      <trkpt lat="59.332211" lon="18.075894">
        <ele>9</ele>
        <time>2019-11-29T06:52:27Z</time>
      </trkpt>
      <trkpt lat="59.332229" lon="18.07594">
        <ele>9</ele>
        <time>2019-11-29T06:52:27Z</time>
      </trkpt>
      <trkpt lat="59.332249" lon="18.075986">
        <ele>10</ele>
        <time>2019-11-29T06:52:28Z</time>
      </trkpt>
      <trkpt lat="59.332267" lon="18.076026">
        <ele>10</ele>
        <time>2019-11-29T06:52:30Z</time>
      </trkpt>
      <trkpt lat="59.332286" lon="18.076072">
        <ele>10</ele>
        <time>2019-11-29T06:52:30Z</time>
      </trkpt>
      <trkpt lat="59.332304" lon="18.076117">
        <ele>10</ele>
        <time>2019-11-29T06:52:31Z</time>
      </trkpt>
      <trkpt lat="59.332321" lon="18.076167">
        <ele>11</ele>
        <time>2019-11-29T06:52:32Z</time>
      </trkpt>
      <trkpt lat="59.332336" lon="18.076214">
        <ele>11</ele>
        <time>2019-11-29T06:52:33Z</time>
      </trkpt>
      <trkpt lat="59.332352" lon="18.07626">
        <ele>11</ele>
        <time>2019-11-29T06:52:35Z</time>
      </trkpt>
      <trkpt lat="59.332366" lon="18.076303">
        <ele>11</ele>
        <time>2019-11-29T06:52:35Z</time>
      </trkpt>
      <trkpt lat="59.33238" lon="18.07635">
        <ele>11</ele>
        <time>2019-11-29T06:52:37Z</time>
      </trkpt>
      <trkpt lat="59.332397" lon="18.076395">
        <ele>12</ele>
        <time>2019-11-29T06:52:37Z</time>
      </trkpt>
      <trkpt lat="59.332414" lon="18.076436">
        <ele>12</ele>
        <time>2019-11-29T06:52:39Z</time>
      </trkpt>
      <trkpt lat="59.33243" lon="18.076486">
        <ele>12</ele>
        <time>2019-11-29T06:52:39Z</time>
      </trkpt>
      <trkpt lat="59.332448" lon="18.076528">
        <ele>12</ele>
        <time>2019-11-29T06:52:41Z</time>
      </trkpt>
      <trkpt lat="59.332468" lon="18.07657">
        <ele>12</ele>
        <time>2019-11-29T06:52:41Z</time>
      </trkpt>
      <trkpt lat="59.332488" lon="18.076615">
        <ele>11</ele>
        <time>2019-11-29T06:52:42Z</time>
      </trkpt>
      <trkpt lat="59.332505" lon="18.076658">
        <ele>12</ele>
        <time>2019-11-29T06:52:44Z</time>
      </trkpt>
      <trkpt lat="59.33252" lon="18.076697">
        <ele>11</ele>
        <time>2019-11-29T06:52:44Z</time>
      </trkpt>
      <trkpt lat="59.332533" lon="18.07673">
        <ele>11</ele>
        <time>2019-11-29T06:52:45Z</time>
      </trkpt>
      <trkpt lat="59.332549" lon="18.076766">
        <ele>12</ele>
        <time>2019-11-29T06:52:47Z</time>
      </trkpt>
      <trkpt lat="59.332563" lon="18.076805">
        <ele>11</ele>
        <time>2019-11-29T06:52:47Z</time>
      </trkpt>
      <trkpt lat="59.332572" lon="18.076845">
        <ele>11</ele>
        <time>2019-11-29T06:52:48Z</time>
      </trkpt>
      <trkpt lat="59.332572" lon="18.076886">
        <ele>12</ele>
        <time>2019-11-29T06:52:50Z</time>
      </trkpt>
      <trkpt lat="59.332568" lon="18.076922">
        <ele>12</ele>
        <time>2019-11-29T06:52:50Z</time>
      </trkpt>
      <trkpt lat="59.332585" lon="18.07696">
        <ele>12</ele>
        <time>2019-11-29T06:52:52Z</time>
      </trkpt>
      <trkpt lat="59.332606" lon="18.077002">
        <ele>13</ele>
        <time>2019-11-29T06:52:55Z</time>
      </trkpt>
      <trkpt lat="59.332618" lon="18.077031">
        <ele>13</ele>
        <time>2019-11-29T06:52:56Z</time>
      </trkpt>
      <trkpt lat="59.332625" lon="18.077065">
        <ele>13</ele>
        <time>2019-11-29T06:52:59Z</time>
      </trkpt>
      <trkpt lat="59.33265" lon="18.077094">
        <ele>13</ele>
        <time>2019-11-29T06:53:02Z</time>
      </trkpt>
      <trkpt lat="59.332686" lon="18.077114">
        <ele>12</ele>
        <time>2019-11-29T06:53:03Z</time>
      </trkpt>
      <trkpt lat="59.332715" lon="18.077127">
        <ele>12</ele>
        <time>2019-11-29T06:53:04Z</time>
      </trkpt>
      <trkpt lat="59.332747" lon="18.077142">
        <ele>12</ele>
        <time>2019-11-29T06:53:05Z</time>
      </trkpt>
      <trkpt lat="59.332781" lon="18.077164">
        <ele>12</ele>
        <time>2019-11-29T06:53:07Z</time>
      </trkpt>
      <trkpt lat="59.332812" lon="18.077183">
        <ele>12</ele>
        <time>2019-11-29T06:53:07Z</time>
      </trkpt>
      <trkpt lat="59.332843" lon="18.077198">
        <ele>12</ele>
        <time>2019-11-29T06:53:08Z</time>
      </trkpt>
      <trkpt lat="59.332871" lon="18.077214">
        <ele>12</ele>
        <time>2019-11-29T06:53:10Z</time>
      </trkpt>
      <trkpt lat="59.332899" lon="18.077233">
        <ele>12</ele>
        <time>2019-11-29T06:53:10Z</time>
      </trkpt>
      <trkpt lat="59.332925" lon="18.077251">
        <ele>12</ele>
        <time>2019-11-29T06:53:11Z</time>
      </trkpt>
      <trkpt lat="59.332948" lon="18.077276">
        <ele>12</ele>
        <time>2019-11-29T06:53:13Z</time>
      </trkpt>
      <trkpt lat="59.332969" lon="18.0773">
        <ele>11</ele>
        <time>2019-11-29T06:53:13Z</time>
      </trkpt>
      <trkpt lat="59.332991" lon="18.077319">
        <ele>11</ele>
        <time>2019-11-29T06:53:15Z</time>
      </trkpt>
      <trkpt lat="59.333012" lon="18.077338">
        <ele>11</ele>
        <time>2019-11-29T06:53:15Z</time>
      </trkpt>
      <trkpt lat="59.333033" lon="18.077362">
        <ele>11</ele>
        <time>2019-11-29T06:53:17Z</time>
      </trkpt>
      <trkpt lat="59.333055" lon="18.077387">
        <ele>11</ele>
        <time>2019-11-29T06:53:17Z</time>
      </trkpt>
      <trkpt lat="59.333076" lon="18.0774">
        <ele>11</ele>
        <time>2019-11-29T06:53:18Z</time>
      </trkpt>
      <trkpt lat="59.333095" lon="18.077416">
        <ele>11</ele>
        <time>2019-11-29T06:53:20Z</time>
      </trkpt>
      <trkpt lat="59.333115" lon="18.077432">
        <ele>10</ele>
        <time>2019-11-29T06:53:20Z</time>
      </trkpt>
      <trkpt lat="59.333137" lon="18.077449">
        <ele>10</ele>
        <time>2019-11-29T06:53:21Z</time>
      </trkpt>
      <trkpt lat="59.333163" lon="18.077458">
        <ele>10</ele>
        <time>2019-11-29T06:53:22Z</time>
      </trkpt>
      <trkpt lat="59.333183" lon="18.077471">
        <ele>10</ele>
        <time>2019-11-29T06:53:23Z</time>
      </trkpt>
      <trkpt lat="59.333203" lon="18.077486">
        <ele>10</ele>
        <time>2019-11-29T06:53:25Z</time>
      </trkpt>
      <trkpt lat="59.33322" lon="18.077509">
        <ele>10</ele>
        <time>2019-11-29T06:53:25Z</time>
      </trkpt>
      <trkpt lat="59.333241" lon="18.077526">
        <ele>10</ele>
        <time>2019-11-29T06:53:27Z</time>
      </trkpt>
      <trkpt lat="59.333262" lon="18.077548">
        <ele>10</ele>
        <time>2019-11-29T06:53:27Z</time>
      </trkpt>
      <trkpt lat="59.333286" lon="18.077572">
        <ele>9</ele>
        <time>2019-11-29T06:53:28Z</time>
      </trkpt>
      <trkpt lat="59.333311" lon="18.077596">
        <ele>9</ele>
        <time>2019-11-29T06:53:30Z</time>
      </trkpt>
      <trkpt lat="59.333338" lon="18.077617">
        <ele>9</ele>
        <time>2019-11-29T06:53:30Z</time>
      </trkpt>
      <trkpt lat="59.333364" lon="18.077641">
        <ele>9</ele>
        <time>2019-11-29T06:53:31Z</time>
      </trkpt>
      <trkpt lat="59.333392" lon="18.077648">
        <ele>9</ele>
        <time>2019-11-29T06:53:32Z</time>
      </trkpt>
      <trkpt lat="59.333415" lon="18.077657">
        <ele>9</ele>
        <time>2019-11-29T06:53:34Z</time>
      </trkpt>
      <trkpt lat="59.333441" lon="18.077686">
        <ele>9</ele>
        <time>2019-11-29T06:53:34Z</time>
      </trkpt>
      <trkpt lat="59.333457" lon="18.07772">
        <ele>9</ele>
        <time>2019-11-29T06:53:36Z</time>
      </trkpt>
      <trkpt lat="59.333471" lon="18.077745">
        <ele>9</ele>
        <time>2019-11-29T06:53:36Z</time>
      </trkpt>
      <trkpt lat="59.33348" lon="18.077776">
        <ele>8</ele>
        <time>2019-11-29T06:53:37Z</time>
      </trkpt>
      <trkpt lat="59.333506" lon="18.077827">
        <ele>8</ele>
        <time>2019-11-29T06:53:39Z</time>
      </trkpt>
      <trkpt lat="59.333524" lon="18.077847">
        <ele>8</ele>
        <time>2019-11-29T06:53:40Z</time>
      </trkpt>
      <trkpt lat="59.333551" lon="18.077861">
        <ele>8</ele>
        <time>2019-11-29T06:53:42Z</time>
      </trkpt>
      <trkpt lat="59.333574" lon="18.077873">
        <ele>8</ele>
        <time>2019-11-29T06:53:42Z</time>
      </trkpt>
      <trkpt lat="59.3336" lon="18.07789">
        <ele>8</ele>
        <time>2019-11-29T06:53:43Z</time>
      </trkpt>
      <trkpt lat="59.333627" lon="18.077905">
        <ele>8</ele>
        <time>2019-11-29T06:53:44Z</time>
      </trkpt>
      <trkpt lat="59.333656" lon="18.077925">
        <ele>8</ele>
        <time>2019-11-29T06:53:45Z</time>
      </trkpt>
      <trkpt lat="59.333686" lon="18.077946">
        <ele>8</ele>
        <time>2019-11-29T06:53:47Z</time>
      </trkpt>
      <trkpt lat="59.333713" lon="18.077966">
        <ele>8</ele>
        <time>2019-11-29T06:53:48Z</time>
      </trkpt>
      <trkpt lat="59.333742" lon="18.077981">
        <ele>8</ele>
        <time>2019-11-29T06:53:48Z</time>
      </trkpt>
      <trkpt lat="59.333768" lon="18.077994">
        <ele>8</ele>
        <time>2019-11-29T06:53:49Z</time>
      </trkpt>
      <trkpt lat="59.333795" lon="18.078012">
        <ele>7</ele>
        <time>2019-11-29T06:53:50Z</time>
      </trkpt>
      <trkpt lat="59.333823" lon="18.078031">
        <ele>7</ele>
        <time>2019-11-29T06:53:51Z</time>
      </trkpt>
      <trkpt lat="59.333852" lon="18.078058">
        <ele>7</ele>
        <time>2019-11-29T06:53:53Z</time>
      </trkpt>
      <trkpt lat="59.33388" lon="18.078075">
        <ele>7</ele>
        <time>2019-11-29T06:53:53Z</time>
      </trkpt>
      <trkpt lat="59.333904" lon="18.078088">
        <ele>7</ele>
        <time>2019-11-29T06:53:54Z</time>
      </trkpt>
      <trkpt lat="59.333924" lon="18.078098">
        <ele>7</ele>
        <time>2019-11-29T06:53:56Z</time>
      </trkpt>
      <trkpt lat="59.333954" lon="18.078105">
        <ele>7</ele>
        <time>2019-11-29T06:53:56Z</time>
      </trkpt>
      <trkpt lat="59.334052" lon="18.078137">
        <ele>8</ele>
        <time>2019-11-29T06:53:59Z</time>
      </trkpt>
      <trkpt lat="59.334129" lon="18.078237">
        <ele>9</ele>
        <time>2019-11-29T06:54:02Z</time>
      </trkpt>
      <trkpt lat="59.334152" lon="18.078264">
        <ele>9</ele>
        <time>2019-11-29T06:54:04Z</time>
      </trkpt>
      <trkpt lat="59.334175" lon="18.078294">
        <ele>9</ele>
        <time>2019-11-29T06:54:05Z</time>
      </trkpt>
      <trkpt lat="59.334198" lon="18.07832">
        <ele>10</ele>
        <time>2019-11-29T06:54:05Z</time>
      </trkpt>
      <trkpt lat="59.334221" lon="18.078342">
        <ele>10</ele>
        <time>2019-11-29T06:54:06Z</time>
      </trkpt>
      <trkpt lat="59.334249" lon="18.078367">
        <ele>10</ele>
        <time>2019-11-29T06:54:07Z</time>
      </trkpt>
      <trkpt lat="59.334274" lon="18.078396">
        <ele>11</ele>
        <time>2019-11-29T06:54:08Z</time>
      </trkpt>
      <trkpt lat="59.334294" lon="18.078425">
        <ele>11</ele>
        <time>2019-11-29T06:54:10Z</time>
      </trkpt>
      <trkpt lat="59.334316" lon="18.07845">
        <ele>11</ele>
        <time>2019-11-29T06:54:10Z</time>
      </trkpt>
      <trkpt lat="59.334336" lon="18.078477">
        <ele>11</ele>
        <time>2019-11-29T06:54:12Z</time>
      </trkpt>
      <trkpt lat="59.334354" lon="18.078503">
        <ele>11</ele>
        <time>2019-11-29T06:54:12Z</time>
      </trkpt>
      <trkpt lat="59.334376" lon="18.078524">
        <ele>11</ele>
        <time>2019-11-29T06:54:14Z</time>
      </trkpt>
      <trkpt lat="59.334408" lon="18.078545">
        <ele>12</ele>
        <time>2019-11-29T06:54:14Z</time>
      </trkpt>
      <trkpt lat="59.334438" lon="18.078568">
        <ele>12</ele>
        <time>2019-11-29T06:54:15Z</time>
      </trkpt>
      <trkpt lat="59.334465" lon="18.078592">
        <ele>12</ele>
        <time>2019-11-29T06:54:17Z</time>
      </trkpt>
      <trkpt lat="59.334486" lon="18.078613">
        <ele>12</ele>
        <time>2019-11-29T06:54:17Z</time>
      </trkpt>
      <trkpt lat="59.334513" lon="18.078631">
        <ele>12</ele>
        <time>2019-11-29T06:54:18Z</time>
      </trkpt>
      <trkpt lat="59.334537" lon="18.078644">
        <ele>12</ele>
        <time>2019-11-29T06:54:20Z</time>
      </trkpt>
      <trkpt lat="59.334565" lon="18.078663">
        <ele>12</ele>
        <time>2019-11-29T06:54:20Z</time>
      </trkpt>
      <trkpt lat="59.334591" lon="18.078679">
        <ele>12</ele>
        <time>2019-11-29T06:54:22Z</time>
      </trkpt>
      <trkpt lat="59.334619" lon="18.0787">
        <ele>13</ele>
        <time>2019-11-29T06:54:22Z</time>
      </trkpt>
      <trkpt lat="59.334643" lon="18.078711">
        <ele>12</ele>
        <time>2019-11-29T06:54:23Z</time>
      </trkpt>
      <trkpt lat="59.334676" lon="18.078729">
        <ele>12</ele>
        <time>2019-11-29T06:54:25Z</time>
      </trkpt>
      <trkpt lat="59.334728" lon="18.078768">
        <ele>12</ele>
        <time>2019-11-29T06:54:26Z</time>
      </trkpt>
      <trkpt lat="59.334809" lon="18.078831">
        <ele>12</ele>
        <time>2019-11-29T06:54:29Z</time>
      </trkpt>
      <trkpt lat="59.334829" lon="18.078855">
        <ele>12</ele>
        <time>2019-11-29T06:54:31Z</time>
      </trkpt>
      <trkpt lat="59.334851" lon="18.078877">
        <ele>12</ele>
        <time>2019-11-29T06:54:31Z</time>
      </trkpt>
      <trkpt lat="59.334874" lon="18.078893">
        <ele>12</ele>
        <time>2019-11-29T06:54:32Z</time>
      </trkpt>
      <trkpt lat="59.334896" lon="18.078917">
        <ele>12</ele>
        <time>2019-11-29T06:54:34Z</time>
      </trkpt>
      <trkpt lat="59.334922" lon="18.078948">
        <ele>13</ele>
        <time>2019-11-29T06:54:34Z</time>
      </trkpt>
      <trkpt lat="59.334946" lon="18.078968">
        <ele>13</ele>
        <time>2019-11-29T06:54:35Z</time>
      </trkpt>
      <trkpt lat="59.334971" lon="18.078991">
        <ele>13</ele>
        <time>2019-11-29T06:54:36Z</time>
      </trkpt>
      <trkpt lat="59.334996" lon="18.079006">
        <ele>13</ele>
        <time>2019-11-29T06:54:37Z</time>
      </trkpt>
      <trkpt lat="59.335018" lon="18.079024">
        <ele>13</ele>
        <time>2019-11-29T06:54:39Z</time>
      </trkpt>
      <trkpt lat="59.33504" lon="18.079046">
        <ele>13</ele>
        <time>2019-11-29T06:54:39Z</time>
      </trkpt>
      <trkpt lat="59.335063" lon="18.079065">
        <ele>13</ele>
        <time>2019-11-29T06:54:41Z</time>
      </trkpt>
      <trkpt lat="59.335086" lon="18.079078">
        <ele>13</ele>
        <time>2019-11-29T06:54:41Z</time>
      </trkpt>
      <trkpt lat="59.335107" lon="18.079097">
        <ele>13</ele>
        <time>2019-11-29T06:54:42Z</time>
      </trkpt>
      <trkpt lat="59.33513" lon="18.079114">
        <ele>14</ele>
        <time>2019-11-29T06:54:44Z</time>
      </trkpt>
      <trkpt lat="59.335155" lon="18.079132">
        <ele>14</ele>
        <time>2019-11-29T06:54:44Z</time>
      </trkpt>
      <trkpt lat="59.335181" lon="18.079153">
        <ele>14</ele>
        <time>2019-11-29T06:54:45Z</time>
      </trkpt>
      <trkpt lat="59.335205" lon="18.079174">
        <ele>14</ele>
        <time>2019-11-29T06:54:46Z</time>
      </trkpt>
      <trkpt lat="59.335225" lon="18.079195">
        <ele>14</ele>
        <time>2019-11-29T06:54:47Z</time>
      </trkpt>
      <trkpt lat="59.335244" lon="18.079223">
        <ele>14</ele>
        <time>2019-11-29T06:54:49Z</time>
      </trkpt>
      <trkpt lat="59.335265" lon="18.079244">
        <ele>14</ele>
        <time>2019-11-29T06:54:50Z</time>
      </trkpt>
      <trkpt lat="59.335288" lon="18.079254">
        <ele>14</ele>
        <time>2019-11-29T06:54:50Z</time>
      </trkpt>
      <trkpt lat="59.335313" lon="18.079263">
        <ele>14</ele>
        <time>2019-11-29T06:54:52Z</time>
      </trkpt>
      <trkpt lat="59.335333" lon="18.079269">
        <ele>14</ele>
        <time>2019-11-29T06:54:52Z</time>
      </trkpt>
      <trkpt lat="59.33536" lon="18.079275">
        <ele>14</ele>
        <time>2019-11-29T06:54:55Z</time>
      </trkpt>
      <trkpt lat="59.335395" lon="18.079304">
        <ele>14</ele>
        <time>2019-11-29T06:54:56Z</time>
      </trkpt>
      <trkpt lat="59.335416" lon="18.07931">
        <ele>14</ele>
        <time>2019-11-29T06:54:58Z</time>
      </trkpt>
      <trkpt lat="59.335438" lon="18.079321">
        <ele>13</ele>
        <time>2019-11-29T06:54:58Z</time>
      </trkpt>
      <trkpt lat="59.335465" lon="18.079343">
        <ele>14</ele>
        <time>2019-11-29T06:54:59Z</time>
      </trkpt>
      <trkpt lat="59.33549" lon="18.079362">
        <ele>14</ele>
        <time>2019-11-29T06:55:00Z</time>
      </trkpt>
      <trkpt lat="59.335519" lon="18.079391">
        <ele>13</ele>
        <time>2019-11-29T06:55:01Z</time>
      </trkpt>
      <trkpt lat="59.335548" lon="18.079418">
        <ele>14</ele>
        <time>2019-11-29T06:55:02Z</time>
      </trkpt>
      <trkpt lat="59.335577" lon="18.07945">
        <ele>14</ele>
        <time>2019-11-29T06:55:03Z</time>
      </trkpt>
      <trkpt lat="59.335601" lon="18.079483">
        <ele>14</ele>
        <time>2019-11-29T06:55:05Z</time>
      </trkpt>
      <trkpt lat="59.335623" lon="18.079507">
        <ele>14</ele>
        <time>2019-11-29T06:55:05Z</time>
      </trkpt>
      <trkpt lat="59.335653" lon="18.079534">
        <ele>14</ele>
        <time>2019-11-29T06:55:06Z</time>
      </trkpt>
      <trkpt lat="59.335685" lon="18.079553">
        <ele>14</ele>
        <time>2019-11-29T06:55:07Z</time>
      </trkpt>
      <trkpt lat="59.335711" lon="18.079573">
        <ele>15</ele>
        <time>2019-11-29T06:55:09Z</time>
      </trkpt>
      <trkpt lat="59.335735" lon="18.079588">
        <ele>15</ele>
        <time>2019-11-29T06:55:09Z</time>
      </trkpt>
      <trkpt lat="59.335759" lon="18.079603">
        <ele>15</ele>
        <time>2019-11-29T06:55:11Z</time>
      </trkpt>
      <trkpt lat="59.335785" lon="18.079623">
        <ele>15</ele>
        <time>2019-11-29T06:55:11Z</time>
      </trkpt>
      <trkpt lat="59.335813" lon="18.079639">
        <ele>15</ele>
        <time>2019-11-29T06:55:12Z</time>
      </trkpt>
      <trkpt lat="59.335841" lon="18.079656">
        <ele>15</ele>
        <time>2019-11-29T06:55:14Z</time>
      </trkpt>
      <trkpt lat="59.335868" lon="18.079673">
        <ele>15</ele>
        <time>2019-11-29T06:55:14Z</time>
      </trkpt>
      <trkpt lat="59.335895" lon="18.079691">
        <ele>15</ele>
        <time>2019-11-29T06:55:15Z</time>
      </trkpt>
      <trkpt lat="59.335923" lon="18.079705">
        <ele>15</ele>
        <time>2019-11-29T06:55:16Z</time>
      </trkpt>
      <trkpt lat="59.335955" lon="18.079724">
        <ele>15</ele>
        <time>2019-11-29T06:55:17Z</time>
      </trkpt>
      <trkpt lat="59.335985" lon="18.079745">
        <ele>15</ele>
        <time>2019-11-29T06:55:19Z</time>
      </trkpt>
      <trkpt lat="59.336012" lon="18.079763">
        <ele>15</ele>
        <time>2019-11-29T06:55:19Z</time>
      </trkpt>
      <trkpt lat="59.336038" lon="18.079783">
        <ele>15</ele>
        <time>2019-11-29T06:55:20Z</time>
      </trkpt>
      <trkpt lat="59.336066" lon="18.079808">
        <ele>15</ele>
        <time>2019-11-29T06:55:22Z</time>
      </trkpt>
      <trkpt lat="59.336093" lon="18.07983">
        <ele>15</ele>
        <time>2019-11-29T06:55:22Z</time>
      </trkpt>
      <trkpt lat="59.33612" lon="18.079855">
        <ele>15</ele>
        <time>2019-11-29T06:55:23Z</time>
      </trkpt>
      <trkpt lat="59.336144" lon="18.079877">
        <ele>16</ele>
        <time>2019-11-29T06:55:25Z</time>
      </trkpt>
      <trkpt lat="59.336173" lon="18.079898">
        <ele>15</ele>
        <time>2019-11-29T06:55:25Z</time>
      </trkpt>
      <trkpt lat="59.336202" lon="18.079914">
        <ele>15</ele>
        <time>2019-11-29T06:55:27Z</time>
      </trkpt>
      <trkpt lat="59.336229" lon="18.079933">
        <ele>15</ele>
        <time>2019-11-29T06:55:28Z</time>
      </trkpt>
      <trkpt lat="59.336254" lon="18.07995">
        <ele>15</ele>
        <time>2019-11-29T06:55:28Z</time>
      </trkpt>
      <trkpt lat="59.336281" lon="18.079968">
        <ele>15</ele>
        <time>2019-11-29T06:55:30Z</time>
      </trkpt>
      <trkpt lat="59.33631" lon="18.079983">
        <ele>15</ele>
        <time>2019-11-29T06:55:30Z</time>
      </trkpt>
      <trkpt lat="59.336337" lon="18.079997">
        <ele>15</ele>
        <time>2019-11-29T06:55:31Z</time>
      </trkpt>
      <trkpt lat="59.336363" lon="18.080015">
        <ele>15</ele>
        <time>2019-11-29T06:55:33Z</time>
      </trkpt>
      <trkpt lat="59.336385" lon="18.080033">
        <ele>15</ele>
        <time>2019-11-29T06:55:33Z</time>
      </trkpt>
      <trkpt lat="59.336409" lon="18.08005">
        <ele>15</ele>
        <time>2019-11-29T06:55:34Z</time>
      </trkpt>
      <trkpt lat="59.336438" lon="18.080065">
        <ele>15</ele>
        <time>2019-11-29T06:55:36Z</time>
      </trkpt>
      <trkpt lat="59.336458" lon="18.080088">
        <ele>15</ele>
        <time>2019-11-29T06:55:37Z</time>
      </trkpt>
      <trkpt lat="59.336482" lon="18.080108">
        <ele>15</ele>
        <time>2019-11-29T06:55:37Z</time>
      </trkpt>
      <trkpt lat="59.336502" lon="18.080127">
        <ele>15</ele>
        <time>2019-11-29T06:55:38Z</time>
      </trkpt>
      <trkpt lat="59.336524" lon="18.080148">
        <ele>15</ele>
        <time>2019-11-29T06:55:40Z</time>
      </trkpt>
      <trkpt lat="59.336545" lon="18.080167">
        <ele>15</ele>
        <time>2019-11-29T06:55:40Z</time>
      </trkpt>
      <trkpt lat="59.336567" lon="18.080185">
        <ele>15</ele>
        <time>2019-11-29T06:55:41Z</time>
      </trkpt>
      <trkpt lat="59.336588" lon="18.080204">
        <ele>15</ele>
        <time>2019-11-29T06:55:42Z</time>
      </trkpt>
      <trkpt lat="59.336611" lon="18.080227">
        <ele>15</ele>
        <time>2019-11-29T06:55:43Z</time>
      </trkpt>
      <trkpt lat="59.336632" lon="18.080254">
        <ele>15</ele>
        <time>2019-11-29T06:55:45Z</time>
      </trkpt>
      <trkpt lat="59.336651" lon="18.080278">
        <ele>16</ele>
        <time>2019-11-29T06:55:45Z</time>
      </trkpt>
      <trkpt lat="59.336671" lon="18.080302">
        <ele>16</ele>
        <time>2019-11-29T06:55:47Z</time>
      </trkpt>
      <trkpt lat="59.336693" lon="18.080323">
        <ele>16</ele>
        <time>2019-11-29T06:55:47Z</time>
      </trkpt>
      <trkpt lat="59.336715" lon="18.080341">
        <ele>16</ele>
        <time>2019-11-29T06:55:48Z</time>
      </trkpt>
      <trkpt lat="59.336738" lon="18.080356">
        <ele>16</ele>
        <time>2019-11-29T06:55:50Z</time>
      </trkpt>
      <trkpt lat="59.336765" lon="18.080367">
        <ele>16</ele>
        <time>2019-11-29T06:55:50Z</time>
      </trkpt>
      <trkpt lat="59.336852" lon="18.080444">
        <ele>16</ele>
        <time>2019-11-29T06:55:55Z</time>
      </trkpt>
      <trkpt lat="59.3369" lon="18.080465">
        <ele>16</ele>
        <time>2019-11-29T06:55:56Z</time>
      </trkpt>
      <trkpt lat="59.336922" lon="18.080478">
        <ele>16</ele>
        <time>2019-11-29T06:55:58Z</time>
      </trkpt>
      <trkpt lat="59.336971" lon="18.080506">
        <ele>16</ele>
        <time>2019-11-29T06:55:59Z</time>
      </trkpt>
      <trkpt lat="59.337008" lon="18.080522">
        <ele>17</ele>
        <time>2019-11-29T06:56:00Z</time>
      </trkpt>
      <trkpt lat="59.33704" lon="18.080551">
        <ele>17</ele>
        <time>2019-11-29T06:56:02Z</time>
      </trkpt>
      <trkpt lat="59.337069" lon="18.080589">
        <ele>17</ele>
        <time>2019-11-29T06:56:02Z</time>
      </trkpt>
      <trkpt lat="59.337095" lon="18.080623">
        <ele>17</ele>
        <time>2019-11-29T06:56:03Z</time>
      </trkpt>
      <trkpt lat="59.337118" lon="18.080654">
        <ele>17</ele>
        <time>2019-11-29T06:56:04Z</time>
      </trkpt>
      <trkpt lat="59.33714" lon="18.080685">
        <ele>18</ele>
        <time>2019-11-29T06:56:06Z</time>
      </trkpt>
      <trkpt lat="59.337161" lon="18.080711">
        <ele>18</ele>
        <time>2019-11-29T06:56:06Z</time>
      </trkpt>
      <trkpt lat="59.33718" lon="18.080736">
        <ele>18</ele>
        <time>2019-11-29T06:56:08Z</time>
      </trkpt>
      <trkpt lat="59.337195" lon="18.080763">
        <ele>18</ele>
        <time>2019-11-29T06:56:08Z</time>
      </trkpt>
      <trkpt lat="59.33722" lon="18.08079">
        <ele>19</ele>
        <time>2019-11-29T06:56:09Z</time>
      </trkpt>
      <trkpt lat="59.337248" lon="18.080815">
        <ele>19</ele>
        <time>2019-11-29T06:56:11Z</time>
      </trkpt>
      <trkpt lat="59.337278" lon="18.080835">
        <ele>19</ele>
        <time>2019-11-29T06:56:11Z</time>
      </trkpt>
      <trkpt lat="59.337303" lon="18.080859">
        <ele>19</ele>
        <time>2019-11-29T06:56:12Z</time>
      </trkpt>
      <trkpt lat="59.337327" lon="18.080879">
        <ele>19</ele>
        <time>2019-11-29T06:56:14Z</time>
      </trkpt>
      <trkpt lat="59.337348" lon="18.080896">
        <ele>19</ele>
        <time>2019-11-29T06:56:15Z</time>
      </trkpt>
      <trkpt lat="59.337378" lon="18.080915">
        <ele>19</ele>
        <time>2019-11-29T06:56:15Z</time>
      </trkpt>
      <trkpt lat="59.337402" lon="18.080931">
        <ele>19</ele>
        <time>2019-11-29T06:56:16Z</time>
      </trkpt>
      <trkpt lat="59.337429" lon="18.080946">
        <ele>19</ele>
        <time>2019-11-29T06:56:18Z</time>
      </trkpt>
      <trkpt lat="59.337457" lon="18.08096">
        <ele>19</ele>
        <time>2019-11-29T06:56:18Z</time>
      </trkpt>
      <trkpt lat="59.337488" lon="18.080976">
        <ele>19</ele>
        <time>2019-11-29T06:56:19Z</time>
      </trkpt>
      <trkpt lat="59.337511" lon="18.080989">
        <ele>19</ele>
        <time>2019-11-29T06:56:20Z</time>
      </trkpt>
      <trkpt lat="59.337533" lon="18.081009">
        <ele>19</ele>
        <time>2019-11-29T06:56:21Z</time>
      </trkpt>
      <trkpt lat="59.337558" lon="18.081024">
        <ele>19</ele>
        <time>2019-11-29T06:56:23Z</time>
      </trkpt>
      <trkpt lat="59.337582" lon="18.081044">
        <ele>19</ele>
        <time>2019-11-29T06:56:23Z</time>
      </trkpt>
      <trkpt lat="59.337609" lon="18.081063">
        <ele>19</ele>
        <time>2019-11-29T06:56:25Z</time>
      </trkpt>
      <trkpt lat="59.337634" lon="18.081081">
        <ele>19</ele>
        <time>2019-11-29T06:56:25Z</time>
      </trkpt>
      <trkpt lat="59.33766" lon="18.081096">
        <ele>19</ele>
        <time>2019-11-29T06:56:27Z</time>
      </trkpt>
      <trkpt lat="59.337692" lon="18.081115">
        <ele>19</ele>
        <time>2019-11-29T06:56:27Z</time>
      </trkpt>
      <trkpt lat="59.337721" lon="18.08114">
        <ele>19</ele>
        <time>2019-11-29T06:56:28Z</time>
      </trkpt>
      <trkpt lat="59.337748" lon="18.081163">
        <ele>19</ele>
        <time>2019-11-29T06:56:30Z</time>
      </trkpt>
      <trkpt lat="59.33777" lon="18.081184">
        <ele>19</ele>
        <time>2019-11-29T06:56:30Z</time>
      </trkpt>
      <trkpt lat="59.337797" lon="18.081205">
        <ele>19</ele>
        <time>2019-11-29T06:56:31Z</time>
      </trkpt>
      <trkpt lat="59.337824" lon="18.081231">
        <ele>19</ele>
        <time>2019-11-29T06:56:33Z</time>
      </trkpt>
      <trkpt lat="59.337853" lon="18.081252">
        <ele>18</ele>
        <time>2019-11-29T06:56:33Z</time>
      </trkpt>
      <trkpt lat="59.33788" lon="18.08127">
        <ele>18</ele>
        <time>2019-11-29T06:56:34Z</time>
      </trkpt>
      <trkpt lat="59.337905" lon="18.081291">
        <ele>18</ele>
        <time>2019-11-29T06:56:36Z</time>
      </trkpt>
      <trkpt lat="59.337928" lon="18.081308">
        <ele>18</ele>
        <time>2019-11-29T06:56:36Z</time>
      </trkpt>
      <trkpt lat="59.337952" lon="18.081324">
        <ele>18</ele>
        <time>2019-11-29T06:56:37Z</time>
      </trkpt>
      <trkpt lat="59.337975" lon="18.081346">
        <ele>17</ele>
        <time>2019-11-29T06:56:39Z</time>
      </trkpt>
      <trkpt lat="59.337997" lon="18.081374">
        <ele>17</ele>
        <time>2019-11-29T06:56:39Z</time>
      </trkpt>
      <trkpt lat="59.338021" lon="18.081402">
        <ele>17</ele>
        <time>2019-11-29T06:56:40Z</time>
      </trkpt>
      <trkpt lat="59.338046" lon="18.081424">
        <ele>17</ele>
        <time>2019-11-29T06:56:41Z</time>
      </trkpt>
      <trkpt lat="59.338069" lon="18.081439">
        <ele>17</ele>
        <time>2019-11-29T06:56:42Z</time>
      </trkpt>
      <trkpt lat="59.338105" lon="18.081449">
        <ele>16</ele>
        <time>2019-11-29T06:56:44Z</time>
      </trkpt>
      <trkpt lat="59.338137" lon="18.081459">
        <ele>16</ele>
        <time>2019-11-29T06:56:44Z</time>
      </trkpt>
      <trkpt lat="59.338171" lon="18.081485">
        <ele>16</ele>
        <time>2019-11-29T06:56:45Z</time>
      </trkpt>
      <trkpt lat="59.338205" lon="18.081518">
        <ele>17</ele>
        <time>2019-11-29T06:56:47Z</time>
      </trkpt>
      <trkpt lat="59.338227" lon="18.081559">
        <ele>17</ele>
        <time>2019-11-29T06:56:47Z</time>
      </trkpt>
      <trkpt lat="59.338244" lon="18.081597">
        <ele>17</ele>
        <time>2019-11-29T06:56:48Z</time>
      </trkpt>
      <trkpt lat="59.338256" lon="18.08164">
        <ele>18</ele>
        <time>2019-11-29T06:56:50Z</time>
      </trkpt>
      <trkpt lat="59.338282" lon="18.081684">
        <ele>18</ele>
        <time>2019-11-29T06:56:53Z</time>
      </trkpt>
      <trkpt lat="59.338302" lon="18.081709">
        <ele>18</ele>
        <time>2019-11-29T06:56:53Z</time>
      </trkpt>
      <trkpt lat="59.338329" lon="18.081737">
        <ele>18</ele>
        <time>2019-11-29T06:56:55Z</time>
      </trkpt>
      <trkpt lat="59.338351" lon="18.081762">
        <ele>18</ele>
        <time>2019-11-29T06:56:55Z</time>
      </trkpt>
      <trkpt lat="59.338373" lon="18.081783">
        <ele>18</ele>
        <time>2019-11-29T06:56:56Z</time>
      </trkpt>
      <trkpt lat="59.338395" lon="18.081809">
        <ele>19</ele>
        <time>2019-11-29T06:56:58Z</time>
      </trkpt>
      <trkpt lat="59.338418" lon="18.081828">
        <ele>19</ele>
        <time>2019-11-29T06:56:58Z</time>
      </trkpt>
      <trkpt lat="59.338439" lon="18.08185">
        <ele>19</ele>
        <time>2019-11-29T06:56:59Z</time>
      </trkpt>
      <trkpt lat="59.338462" lon="18.081875">
        <ele>20</ele>
        <time>2019-11-29T06:57:00Z</time>
      </trkpt>
      <trkpt lat="59.338483" lon="18.081897">
        <ele>20</ele>
        <time>2019-11-29T06:57:01Z</time>
      </trkpt>
      <trkpt lat="59.338504" lon="18.081914">
        <ele>20</ele>
        <time>2019-11-29T06:57:03Z</time>
      </trkpt>
      <trkpt lat="59.338523" lon="18.081931">
        <ele>20</ele>
        <time>2019-11-29T06:57:03Z</time>
      </trkpt>
      <trkpt lat="59.338545" lon="18.081945">
        <ele>21</ele>
        <time>2019-11-29T06:57:05Z</time>
      </trkpt>
      <trkpt lat="59.338566" lon="18.081961">
        <ele>21</ele>
        <time>2019-11-29T06:57:05Z</time>
      </trkpt>
      <trkpt lat="59.338586" lon="18.08198">
        <ele>21</ele>
        <time>2019-11-29T06:57:06Z</time>
      </trkpt>
      <trkpt lat="59.338613" lon="18.081998">
        <ele>21</ele>
        <time>2019-11-29T06:57:08Z</time>
      </trkpt>
      <trkpt lat="59.338642" lon="18.082011">
        <ele>22</ele>
        <time>2019-11-29T06:57:08Z</time>
      </trkpt>
      <trkpt lat="59.338671" lon="18.082027">
        <ele>22</ele>
        <time>2019-11-29T06:57:09Z</time>
      </trkpt>
      <trkpt lat="59.338698" lon="18.082048">
        <ele>22</ele>
        <time>2019-11-29T06:57:10Z</time>
      </trkpt>
      <trkpt lat="59.338726" lon="18.082071">
        <ele>22</ele>
        <time>2019-11-29T06:57:12Z</time>
      </trkpt>
      <trkpt lat="59.338754" lon="18.082096">
        <ele>22</ele>
        <time>2019-11-29T06:57:12Z</time>
      </trkpt>
      <trkpt lat="59.338779" lon="18.082118">
        <ele>22</ele>
        <time>2019-11-29T06:57:13Z</time>
      </trkpt>
      <trkpt lat="59.338809" lon="18.082133">
        <ele>23</ele>
        <time>2019-11-29T06:57:15Z</time>
      </trkpt>
      <trkpt lat="59.338841" lon="18.082148">
        <ele>23</ele>
        <time>2019-11-29T06:57:15Z</time>
      </trkpt>
      <trkpt lat="59.338875" lon="18.082167">
        <ele>23</ele>
        <time>2019-11-29T06:57:16Z</time>
      </trkpt>
      <trkpt lat="59.338907" lon="18.082184">
        <ele>23</ele>
        <time>2019-11-29T06:57:17Z</time>
      </trkpt>
      <trkpt lat="59.338937" lon="18.082195">
        <ele>23</ele>
        <time>2019-11-29T06:57:18Z</time>
      </trkpt>
      <trkpt lat="59.338966" lon="18.082211">
        <ele>23</ele>
        <time>2019-11-29T06:57:20Z</time>
      </trkpt>
      <trkpt lat="59.338997" lon="18.082221">
        <ele>22</ele>
        <time>2019-11-29T06:57:20Z</time>
      </trkpt>
      <trkpt lat="59.339025" lon="18.082237">
        <ele>22</ele>
        <time>2019-11-29T06:57:22Z</time>
      </trkpt>
      <trkpt lat="59.339056" lon="18.082275">
        <ele>22</ele>
        <time>2019-11-29T06:57:22Z</time>
      </trkpt>
      <trkpt lat="59.339084" lon="18.082319">
        <ele>22</ele>
        <time>2019-11-29T06:57:24Z</time>
      </trkpt>
      <trkpt lat="59.339113" lon="18.082354">
        <ele>22</ele>
        <time>2019-11-29T06:57:24Z</time>
      </trkpt>
      <trkpt lat="59.339144" lon="18.08238">
        <ele>22</ele>
        <time>2019-11-29T06:57:25Z</time>
      </trkpt>
      <trkpt lat="59.339178" lon="18.082409">
        <ele>22</ele>
        <time>2019-11-29T06:57:27Z</time>
      </trkpt>
      <trkpt lat="59.339206" lon="18.082438">
        <ele>22</ele>
        <time>2019-11-29T06:57:27Z</time>
      </trkpt>
      <trkpt lat="59.33923" lon="18.082455">
        <ele>22</ele>
        <time>2019-11-29T06:57:28Z</time>
      </trkpt>
      <trkpt lat="59.339254" lon="18.082471">
        <ele>22</ele>
        <time>2019-11-29T06:57:30Z</time>
      </trkpt>
      <trkpt lat="59.339276" lon="18.082494">
        <ele>22</ele>
        <time>2019-11-29T06:57:30Z</time>
      </trkpt>
      <trkpt lat="59.339293" lon="18.08252">
        <ele>22</ele>
        <time>2019-11-29T06:57:31Z</time>
      </trkpt>
      <trkpt lat="59.339308" lon="18.082559">
        <ele>22</ele>
        <time>2019-11-29T06:57:33Z</time>
      </trkpt>
      <trkpt lat="59.339318" lon="18.08261">
        <ele>23</ele>
        <time>2019-11-29T06:57:33Z</time>
      </trkpt>
      <trkpt lat="59.339316" lon="18.082659">
        <ele>23</ele>
        <time>2019-11-29T06:57:34Z</time>
      </trkpt>
      <trkpt lat="59.339304" lon="18.082708">
        <ele>23</ele>
        <time>2019-11-29T06:57:36Z</time>
      </trkpt>
      <trkpt lat="59.339296" lon="18.082761">
        <ele>23</ele>
        <time>2019-11-29T06:57:36Z</time>
      </trkpt>
      <trkpt lat="59.339285" lon="18.082816">
        <ele>23</ele>
        <time>2019-11-29T06:57:37Z</time>
      </trkpt>
      <trkpt lat="59.339273" lon="18.082881">
        <ele>23</ele>
        <time>2019-11-29T06:57:39Z</time>
      </trkpt>
      <trkpt lat="59.33926" lon="18.082943">
        <ele>23</ele>
        <time>2019-11-29T06:57:39Z</time>
      </trkpt>
      <trkpt lat="59.339247" lon="18.082996">
        <ele>23</ele>
        <time>2019-11-29T06:57:41Z</time>
      </trkpt>
      <trkpt lat="59.339232" lon="18.083042">
        <ele>23</ele>
        <time>2019-11-29T06:57:42Z</time>
      </trkpt>
      <trkpt lat="59.339221" lon="18.083094">
        <ele>23</ele>
        <time>2019-11-29T06:57:42Z</time>
      </trkpt>
      <trkpt lat="59.339185" lon="18.083269">
        <ele>23</ele>
        <time>2019-11-29T06:57:45Z</time>
      </trkpt>
      <trkpt lat="59.339145" lon="18.083468">
        <ele>23</ele>
        <time>2019-11-29T06:57:49Z</time>
      </trkpt>
      <trkpt lat="59.339177" lon="18.083554">
        <ele>22</ele>
        <time>2019-11-29T06:57:51Z</time>
      </trkpt>
      <trkpt lat="59.339225" lon="18.0836">
        <ele>21</ele>
        <time>2019-11-29T06:57:53Z</time>
      </trkpt>
      <trkpt lat="59.339257" lon="18.083628">
        <ele>21</ele>
        <time>2019-11-29T06:57:53Z</time>
      </trkpt>
      <trkpt lat="59.339344" lon="18.083737">
        <ele>20</ele>
        <time>2019-11-29T06:57:56Z</time>
      </trkpt>
      <trkpt lat="59.339443" lon="18.083858">
        <ele>20</ele>
        <time>2019-11-29T06:58:02Z</time>
      </trkpt>
      <trkpt lat="59.339458" lon="18.083884">
        <ele>20</ele>
        <time>2019-11-29T06:58:02Z</time>
      </trkpt>
      <trkpt lat="59.339539" lon="18.084026">
        <ele>19</ele>
        <time>2019-11-29T06:58:08Z</time>
      </trkpt>
      <trkpt lat="59.339646" lon="18.084079">
        <ele>19</ele>
        <time>2019-11-29T06:58:11Z</time>
      </trkpt>
      <trkpt lat="59.339679" lon="18.084108">
        <ele>20</ele>
        <time>2019-11-29T06:58:11Z</time>
      </trkpt>
      <trkpt lat="59.339712" lon="18.084144">
        <ele>20</ele>
        <time>2019-11-29T06:58:12Z</time>
      </trkpt>
      <trkpt lat="59.339737" lon="18.084172">
        <ele>20</ele>
        <time>2019-11-29T06:58:13Z</time>
      </trkpt>
      <trkpt lat="59.339759" lon="18.084198">
        <ele>20</ele>
        <time>2019-11-29T06:58:14Z</time>
      </trkpt>
      <trkpt lat="59.339787" lon="18.084219">
        <ele>20</ele>
        <time>2019-11-29T06:58:15Z</time>
      </trkpt>
      <trkpt lat="59.339806" lon="18.08425">
        <ele>20</ele>
        <time>2019-11-29T06:58:16Z</time>
      </trkpt>
      <trkpt lat="59.339829" lon="18.084281">
        <ele>20</ele>
        <time>2019-11-29T06:58:17Z</time>
      </trkpt>
      <trkpt lat="59.339857" lon="18.084305">
        <ele>21</ele>
        <time>2019-11-29T06:58:19Z</time>
      </trkpt>
      <trkpt lat="59.339885" lon="18.084335">
        <ele>21</ele>
        <time>2019-11-29T06:58:20Z</time>
      </trkpt>
      <trkpt lat="59.339912" lon="18.084357">
        <ele>21</ele>
        <time>2019-11-29T06:58:20Z</time>
      </trkpt>
      <trkpt lat="59.339934" lon="18.084377">
        <ele>21</ele>
        <time>2019-11-29T06:58:21Z</time>
      </trkpt>
      <trkpt lat="59.339958" lon="18.084395">
        <ele>21</ele>
        <time>2019-11-29T06:58:23Z</time>
      </trkpt>
      <trkpt lat="59.339977" lon="18.084419">
        <ele>21</ele>
        <time>2019-11-29T06:58:23Z</time>
      </trkpt>
      <trkpt lat="59.339997" lon="18.084449">
        <ele>21</ele>
        <time>2019-11-29T06:58:24Z</time>
      </trkpt>
      <trkpt lat="59.340016" lon="18.084471">
        <ele>22</ele>
        <time>2019-11-29T06:58:26Z</time>
      </trkpt>
      <trkpt lat="59.340036" lon="18.084495">
        <ele>21</ele>
        <time>2019-11-29T06:58:26Z</time>
      </trkpt>
      <trkpt lat="59.340054" lon="18.084521">
        <ele>21</ele>
        <time>2019-11-29T06:58:27Z</time>
      </trkpt>
      <trkpt lat="59.340073" lon="18.084547">
        <ele>21</ele>
        <time>2019-11-29T06:58:28Z</time>
      </trkpt>
      <trkpt lat="59.340092" lon="18.084577">
        <ele>21</ele>
        <time>2019-11-29T06:58:29Z</time>
      </trkpt>
      <trkpt lat="59.340112" lon="18.084606">
        <ele>21</ele>
        <time>2019-11-29T06:58:30Z</time>
      </trkpt>
      <trkpt lat="59.34014" lon="18.084632">
        <ele>21</ele>
        <time>2019-11-29T06:58:32Z</time>
      </trkpt>
      <trkpt lat="59.340168" lon="18.084654">
        <ele>21</ele>
        <time>2019-11-29T06:58:32Z</time>
      </trkpt>
      <trkpt lat="59.340196" lon="18.084676">
        <ele>20</ele>
        <time>2019-11-29T06:58:33Z</time>
      </trkpt>
      <trkpt lat="59.340261" lon="18.084704">
        <ele>20</ele>
        <time>2019-11-29T06:58:35Z</time>
      </trkpt>
      <trkpt lat="59.340288" lon="18.084726">
        <ele>19</ele>
        <time>2019-11-29T06:58:37Z</time>
      </trkpt>
      <trkpt lat="59.340312" lon="18.084763">
        <ele>19</ele>
        <time>2019-11-29T06:58:38Z</time>
      </trkpt>
      <trkpt lat="59.340327" lon="18.08481">
        <ele>19</ele>
        <time>2019-11-29T06:58:38Z</time>
      </trkpt>
      <trkpt lat="59.340329" lon="18.084847">
        <ele>20</ele>
        <time>2019-11-29T06:58:39Z</time>
      </trkpt>
      <trkpt lat="59.340328" lon="18.084882">
        <ele>20</ele>
        <time>2019-11-29T06:58:41Z</time>
      </trkpt>
      <trkpt lat="59.340326" lon="18.084918">
        <ele>21</ele>
        <time>2019-11-29T06:58:41Z</time>
      </trkpt>
      <trkpt lat="59.340317" lon="18.084958">
        <ele>21</ele>
        <time>2019-11-29T06:58:42Z</time>
      </trkpt>
      <trkpt lat="59.340313" lon="18.084994">
        <ele>21</ele>
        <time>2019-11-29T06:58:43Z</time>
      </trkpt>
    </trkseg>
  </trk>
</gpx>